[[{"header":{"parameterUnit":"m.s-1","parameterCategory":1,"la1":30.6,"la2":29.2853,"lo1":-89.7004,"lo2":-87.6739,"dy":0.0162,"dx":0.0183,"nx":112,"ny":82,"refTime":"2023-09-11T18:00:00:Z","depth":0,"parameterNumber":2,"parameterNumberName":"U-component_of_WINDS"},"data":[0.0,0.0,0.0,0.0,0.0,0.0,0.0,0.0,0.0,0.0,0.0,0.0,0.0,0.0,0.0,0.0,0.0,0.0,0.0,0.0,0.0,0.0,0.0,0.0,0.0,0.0,0.0,0.0,0.0,0.0,0.0,0.0,0.0,0.0,0.0,0.0,0.0,0.0,0.0,0.0,0.0,0.0,0.0,0.0,0.0,0.0,0.0,0.0,0.0,0.0,0.0,0.0,0.0,0.0,0.0,0.0,0.0,0.0,0.0,0.0,0.0,0.0,0.0,0.0,0.0,0.0,0.0,0.0,0.0,0.0,0.0,0.0,0.0,0.0,0.0,0.0,0.0,0.0,0.0,0.0,0.0,0.0,0.0,0.0,0.0,0.0,0.0,0.0,0.0,0.0,-0.3885,-0.5077,-0.5804,-0.6084,-0.5774,-0.5306,-0.4788,-0.4287,0.0,0.0,0.0,0.0,0.0,0.0,0.0,0.0,0.0,0.0,0.0,0.0,0.0,0.0,0.0,0.0,0.0,0.0,0.0,0.0,0.0,0.0,0.0,0.0,0.0,0.0,0.0,0.0,0.0,0.0,0.0,0.0,0.0,0.0,0.0,0.0,0.0,0.0,0.0,0.0,0.0,0.0,0.0,0.0,0.0,0.0,0.0,0.0,0.0,0.0,0.0,0.0,0.0,0.0,0.0,0.0,0.0,0.0,0.0,0.0,0.0,0.0,0.0,0.0,0.0,0.0,0.0,0.0,0.0,0.0,0.0,0.0,0.0,0.0,0.0,0.0,0.0,0.0,0.0,0.0,0.0,0.0,0.0,0.0,0.0,0.0,0.0,0.0,0.0,0.0,0.0,0.0,0.0,0.0,0.0,0.0,0.0,0.0,0.0,0.0,0.0,0.0,0.0,0.0,-0.3625,-0.4592,-0.4996,-0.5193,-0.5155,-0.4847,-0.4497,-0.4063,0.0,0.0,0.0,0.0,0.0,0.0,0.0,0.0,0.0,0.0,0.0,0.0,0.0,0.0,0.0,0.0,0.0,0.0,0.0,0.0,0.0,0.0,0.0,0.0,0.0,0.0,0.0,0.0,0.0,0.0,0.0,0.0,0.0,0.0,0.0,0.0,0.0,0.0,0.0,0.0,0.0,0.0,0.0,0.0,0.0,0.0,0.0,0.0,0.0,0.0,0.0,0.0,0.0,0.0,0.0,0.0,0.0,0.0,0.0,0.0,0.0,0.0,0.0,0.0,0.0,0.0,0.0,0.0,0.0,0.0,0.0,0.0,0.0,0.0,0.0,0.0,0.0,0.0,0.0,0.0,0.0,0.0,0.0,0.0,0.0,0.0,0.0,0.0,0.0,0.0,0.0,0.0,0.0,0.0,0.0,0.0,0.0,0.0,0.0,0.0,0.0,0.0,0.0,-0.347,-0.3868,-0.4239,-0.4482,-0.4561,-0.4456,-0.4239,-0.3932,-0.3531,-0.2777,0.0,0.0,0.0,0.0,0.0,0.0,0.0,0.0,0.0,0.0,0.0,0.0,0.0,0.0,0.0,0.0,0.0,0.0,0.0,0.0,0.0,0.0,0.0,0.0,0.0,0.0,0.0,0.0,0.0,0.0,0.0,0.0,0.0,0.0,0.0,0.0,0.0,0.0,0.0,0.0,0.0,0.0,0.0,0.0,0.0,0.0,0.0,0.0,0.0,0.0,0.0,0.0,0.0,0.0,0.0,0.0,0.0,0.0,0.0,0.0,0.0,0.0,0.0,0.0,0.0,0.0,0.0,0.0,0.0,0.0,0.0,0.0,0.0,0.0,0.0,0.0,0.0,0.0,0.0,0.0,0.0,0.0,0.0,0.0,0.0,0.0,0.0,0.0,0.0,0.0,0.0,0.0,0.0,0.0,0.0,0.0,0.0,0.0,0.0,0.0,0.0,0.0,-0.3991,-0.4199,-0.4102,-0.4203,-0.4254,-0.4077,-0.3914,-0.3593,-0.3115,-0.2394,0.0,0.0,0.0,0.0,0.0,0.0,0.0,0.0,0.0,0.0,0.0,0.0,0.0,0.0,0.0,0.0,0.0,0.0,0.0,0.0,0.0,0.0,0.0,0.0,0.0,0.0,0.0,0.0,0.0,0.0,0.0,0.0,0.0,0.0,0.0,0.0,0.0,0.0,0.0,0.0,0.0,0.0,0.0,0.0,0.0,0.0,0.0,0.0,0.0,0.0,0.0,0.0,0.0,0.0,0.0,0.0,0.0,0.0,0.0,0.0,0.0,0.0,0.0,0.0,0.0,0.0,0.0,0.0,0.0,0.0,0.0,0.0,0.0,0.0,0.0,0.0,0.0,0.0,0.0,0.0,0.0,0.0,0.0,0.0,0.0,0.0,0.0,0.0,0.0,0.0,0.0,0.0,0.0,0.0,0.0,0.0,0.0,0.0,0.0,0.0,0.0,0.0,-0.428,-0.4385,-0.4357,-0.4348,-0.43,-0.4262,-0.416,-0.3783,-0.3156,-0.2365,0.0,0.0,0.0,0.0,0.0,0.0,0.0,0.0,0.0,0.0,0.0,0.0,0.0,0.0,0.0,0.0,0.0,0.0,0.0,0.0,0.0,0.0,0.0,0.0,0.0,0.0,0.0,0.0,0.0,0.0,0.0,0.0,0.0,0.0,0.0,0.0,0.0,0.0,0.0,0.0,0.0,0.0,0.0,0.0,0.0,0.0,0.0,0.0,0.0,0.0,0.0,0.0,0.0,0.0,0.0,0.0,0.0,0.0,0.0,0.0,0.0,0.0,0.0,0.0,0.0,0.0,0.0,0.0,0.0,0.0,0.0,0.0,0.0,0.0,0.0,0.0,0.0,0.0,0.0,0.0,0.0,0.0,0.0,0.0,0.0,0.0,0.0,0.0,0.0,0.0,0.0,0.0,0.0,0.0,0.0,0.0,0.0,0.0,0.0,0.0,0.0,0.0,-0.5052,-0.5118,-0.5162,-0.514,-0.5057,-0.4944,-0.4637,-0.4153,-0.3329,0.0,0.0,0.0,0.0,0.0,0.0,0.0,0.0,0.0,0.0,0.0,0.0,0.0,0.0,0.0,0.0,0.0,0.0,0.0,0.0,0.0,0.0,0.0,0.0,0.0,0.0,0.0,0.0,0.0,0.0,0.0,0.0,0.0,0.0,0.0,0.0,0.0,0.0,0.0,0.0,0.0,0.0,0.0,0.0,0.0,0.0,0.0,0.0,0.0,0.0,0.0,0.0,0.0,0.0,0.0,0.0,0.0,0.0,0.0,0.0,0.0,0.0,0.0,0.0,0.0,0.0,0.0,0.0,0.0,0.0,0.0,0.0,0.0,0.0,0.0,0.0,0.0,0.0,0.0,0.0,0.0,0.0,0.0,0.0,0.0,0.0,0.0,0.0,0.0,0.0,0.0,0.0,0.0,0.0,0.0,0.0,0.0,0.0,0.0,0.0,0.0,0.0,-0.6067,-0.6126,-0.6166,-0.6304,-0.6237,-0.6121,-0.5935,-0.547,-0.481,-0.3954,0.0,0.0,0.0,0.0,0.0,0.0,0.0,0.0,0.0,0.0,0.0,0.0,0.0,0.0,0.0,0.0,0.0,0.0,0.0,0.0,0.0,0.0,0.0,0.0,0.0,0.0,0.0,0.0,0.0,0.0,0.0,0.0,0.0,0.0,0.0,0.0,0.0,0.0,0.0,0.0,0.0,0.0,0.0,0.0,0.0,0.0,0.0,0.0,0.0,0.0,0.0,0.0,0.0,0.0,0.0,0.0,0.0,0.0,0.0,0.0,0.0,0.0,0.0,0.0,0.0,0.0,0.0,0.0,0.0,0.0,0.0,0.0,0.0,0.0,0.0,0.0,0.0,0.0,0.0,0.0,0.0,0.0,0.0,0.0,0.0,0.0,0.0,0.0,0.0,0.0,0.0,0.0,0.0,0.0,0.0,0.0,0.0,0.0,0.0,0.0,0.0,0.0,-0.746,-0.7522,-0.7595,-0.7783,-0.7621,-0.7425,-0.7238,-0.6588,-0.5854,0.0,0.0,0.0,0.0,0.0,0.0,0.0,0.0,0.0,0.0,0.0,0.0,0.0,0.0,0.0,0.0,0.0,0.0,0.0,0.0,0.0,0.0,0.0,0.0,0.0,0.0,0.0,0.0,0.0,0.0,0.0,0.0,0.0,0.0,0.0,0.0,0.0,0.0,0.0,0.0,0.0,0.0,0.0,0.0,0.0,0.0,0.0,0.0,0.0,0.0,0.0,0.0,0.0,0.0,0.0,0.0,0.0,0.0,0.0,0.0,0.0,0.0,0.0,0.0,0.0,0.0,0.0,0.0,0.0,0.0,0.0,0.0,0.0,0.0,0.0,0.0,0.0,0.0,0.0,0.0,0.0,0.0,0.0,0.0,0.0,0.0,0.0,0.0,0.0,0.0,0.0,0.0,0.0,0.0,0.0,0.0,0.0,0.0,0.0,0.0,0.0,0.0,0.0,-0.8275,-0.836,-0.836,-0.8432,-0.8394,-0.828,-0.805,-0.7476,-0.6745,-0.5893,0.0,0.0,0.0,0.0,0.0,0.0,0.0,0.0,0.0,0.0,0.0,0.0,0.0,0.0,0.0,0.0,0.0,0.0,0.0,0.0,0.0,0.0,0.0,0.0,0.0,0.0,0.0,0.0,0.0,0.0,0.0,0.0,0.0,0.0,0.0,0.0,0.0,0.0,0.0,0.0,0.0,0.0,0.0,0.0,0.0,0.0,0.0,0.0,0.0,0.0,0.0,0.0,0.0,0.0,0.0,0.0,0.0,0.0,0.0,0.0,0.0,0.0,0.0,0.0,0.0,0.0,0.0,0.0,0.0,0.0,0.0,0.0,0.0,0.0,0.0,0.0,0.0,0.0,0.0,0.0,0.0,0.0,0.0,0.0,0.0,0.0,0.0,0.0,0.0,0.0,0.0,0.0,0.0,0.0,0.0,0.0,0.0,0.0,0.0,0.0,0.0,0.0,-0.9344,-0.9344,-0.9344,-0.9533,-0.9458,-0.9306,-0.9008,-0.851,-0.7858,-0.6997,0.0,0.0,0.0,0.0,0.0,0.0,0.0,0.0,0.0,0.0,0.0,0.0,0.0,0.0,0.0,0.0,0.0,0.0,0.0,0.0,0.0,0.0,0.0,0.0,0.0,0.0,0.0,0.0,0.0,0.0,0.0,0.0,0.0,0.0,0.0,0.0,0.0,0.0,0.0,0.0,0.0,0.0,0.0,0.0,0.0,0.0,0.0,0.0,0.0,0.0,0.0,0.0,0.0,0.0,0.0,0.0,0.0,0.0,0.0,0.0,0.0,0.0,0.0,0.0,0.0,0.0,0.0,0.0,0.0,0.0,0.0,0.0,0.0,0.0,0.0,0.0,0.0,0.0,0.0,0.0,0.0,0.0,0.0,0.0,0.0,0.0,0.0,0.0,0.0,0.0,0.0,0.0,0.0,0.0,0.0,0.0,0.0,0.0,0.0,0.0,0.0,0.0,-1.0553,-1.0494,-1.0587,-1.0926,-1.077,-1.0511,-1.0133,-0.9676,-0.9083,-0.8294,0.0,0.0,0.0,0.0,0.0,0.0,0.0,0.0,0.0,0.0,0.0,0.0,0.0,0.0,0.0,0.0,0.0,0.0,0.0,0.0,0.0,0.0,0.0,0.0,0.0,0.0,0.0,0.0,0.0,0.0,0.0,0.0,0.0,0.0,0.0,0.0,0.0,0.0,0.0,0.0,0.0,0.0,0.0,0.0,0.0,0.0,0.0,0.0,0.0,0.0,0.0,0.0,0.0,0.0,0.0,0.0,0.0,0.0,0.0,0.0,-1.1172,-1.0118,0.0,0.0,0.0,0.0,0.0,0.0,0.0,0.0,0.0,0.0,0.0,0.0,0.0,0.0,0.0,0.0,0.0,0.0,0.0,0.0,0.0,0.0,0.0,0.0,0.0,0.0,0.0,0.0,0.0,0.0,0.0,0.0,0.0,0.0,0.0,0.0,0.0,0.0,0.0,0.0,-1.1578,-1.1924,-1.2211,-1.2296,-1.2054,-1.1812,-1.1575,-1.0828,-1.0099,-0.9423,-0.8352,0.0,0.0,0.0,0.0,0.0,0.0,0.0,0.0,0.0,0.0,0.0,0.0,0.0,0.0,0.0,0.0,0.0,0.0,0.0,0.0,0.0,0.0,0.0,0.0,0.0,0.0,0.0,0.0,0.0,0.0,0.0,0.0,0.0,0.0,0.0,0.0,0.0,0.0,0.0,0.0,0.0,0.0,0.0,0.0,0.0,0.0,0.0,0.0,0.0,0.0,0.0,0.0,0.0,0.0,0.0,0.0,0.0,0.0,0.0,-1.295,-1.1995,0.0,0.0,0.0,0.0,0.0,0.0,0.0,0.0,0.0,0.0,0.0,0.0,0.0,0.0,0.0,0.0,0.0,0.0,0.0,0.0,0.0,0.0,0.0,0.0,0.0,0.0,0.0,0.0,0.0,0.0,0.0,0.0,0.0,0.0,0.0,0.0,0.0,0.0,0.0,0.0,-1.3147,-1.336,-1.3535,-1.3724,-1.3449,-1.3094,-1.2652,-1.2011,-1.1228,-1.0383,-0.9601,0.0,0.0,0.0,0.0,0.0,0.0,0.0,0.0,0.0,0.0,0.0,0.0,0.0,0.0,0.0,0.0,0.0,0.0,0.0,0.0,0.0,0.0,0.0,0.0,0.0,0.0,0.0,0.0,0.0,0.0,0.0,0.0,0.0,0.0,0.0,0.0,0.0,0.0,0.0,0.0,0.0,0.0,0.0,0.0,0.0,0.0,0.0,0.0,0.0,0.0,0.0,0.0,0.0,-1.463,-1.4938,-1.5214,-1.5595,-1.5648,-1.5405,-1.4676,-1.3972,-1.3313,-1.2529,0.0,0.0,0.0,0.0,0.0,0.0,0.0,0.0,0.0,0.0,0.0,0.0,0.0,0.0,0.0,0.0,0.0,0.0,0.0,0.0,0.0,0.0,-1.197,-1.2285,-1.2396,-1.2157,-1.1327,0.0,0.0,0.0,0.0,0.0,0.0,0.0,0.0,0.0,0.0,0.0,-1.468,-1.4732,-1.484,-1.5186,-1.484,-1.4367,-1.3758,-1.3209,-1.2485,-1.1497,-1.0963,-1.0289,0.0,0.0,0.0,0.0,0.0,0.0,0.0,0.0,0.0,0.0,0.0,0.0,0.0,0.0,0.0,0.0,0.0,0.0,0.0,0.0,0.0,0.0,0.0,0.0,0.0,0.0,0.0,0.0,0.0,0.0,0.0,0.0,-1.0666,-1.103,0.0,0.0,0.0,0.0,0.0,0.0,0.0,0.0,0.0,0.0,0.0,0.0,0.0,-1.4085,-1.4274,-1.4921,-1.5249,-1.5314,-1.598,-1.6336,-1.6392,-1.6661,-1.6772,-1.6734,-1.6626,0.0,-1.4019,-1.3577,0.0,0.0,0.0,0.0,0.0,0.0,0.0,0.0,0.0,0.0,0.0,0.0,0.0,0.0,0.0,0.0,0.0,0.0,0.0,0.0,0.0,0.0,-1.313,-1.3334,-1.3489,-1.3584,-1.3641,-1.2877,-1.2224,-1.2294,-1.2736,-1.3109,0.0,0.0,0.0,0.0,0.0,0.0,-1.5444,-1.5994,-1.6392,-1.6473,-1.6106,-1.5745,-1.5393,-1.4643,-1.3862,-1.314,-1.2462,-1.18,-1.102,-1.0346,0.0,0.0,0.0,0.0,0.0,0.0,0.0,0.0,0.0,0.0,0.0,0.0,0.0,0.0,0.0,0.0,0.0,0.0,0.0,0.0,0.0,0.0,0.0,0.0,0.0,0.0,0.0,0.0,0.0,-1.1238,-1.2095,-1.2483,-1.2777,-1.3058,0.0,0.0,0.0,0.0,0.0,0.0,0.0,0.0,0.0,-1.5179,-1.5682,-1.5984,-1.6079,-1.6812,-1.7217,-1.7286,-1.7752,-1.7995,-1.8065,-1.8181,-1.821,-1.8112,-1.8072,-1.7527,-1.6564,-1.5642,-1.4936,-1.4391,0.0,0.0,0.0,0.0,-1.3281,-1.3082,-1.3151,-1.2876,-1.2499,-1.2375,0.0,0.0,0.0,0.0,0.0,0.0,0.0,-1.305,-1.3305,-1.3863,-1.4415,-1.4629,-1.4795,-1.4962,-1.5144,-1.4872,-1.4452,-1.3829,-1.4268,-1.4714,-1.4599,-1.4994,0.0,0.0,0.0,-1.6524,-1.6766,-1.7074,-1.7294,-1.7424,-1.718,-1.6853,-1.6517,-1.5809,-1.5061,-1.4321,-1.3724,-1.3003,-1.2283,-1.1634,-1.0823,0.0,0.0,0.0,0.0,0.0,0.0,0.0,0.0,0.0,0.0,0.0,0.0,0.0,0.0,0.0,0.0,0.0,0.0,0.0,0.0,0.0,0.0,0.0,0.0,0.0,0.0,0.0,0.0,-1.2711,-1.3366,-1.3913,-1.417,-1.4499,0.0,0.0,0.0,0.0,0.0,0.0,-1.6332,-1.6586,-1.6742,-1.683,-1.741,-1.7749,-1.7779,-1.8382,-1.8747,-1.8849,-1.8969,-1.9089,-1.919,-1.919,-1.916,-1.9059,-1.901,-1.886,-1.8577,-1.7462,-1.6804,-1.6521,-1.629,-1.6094,-1.5955,-1.5776,-1.5597,-1.5455,-1.5281,-1.5041,-1.4715,-1.4477,-1.4172,-1.3909,-1.3683,0.0,0.0,0.0,0.0,-1.4351,-1.45,-1.4999,-1.5506,-1.5675,-1.5823,-1.5972,-1.6046,-1.633,-1.6242,-1.5243,-1.5616,-1.6018,-1.5894,-1.6229,0.0,-1.678,-1.7041,-1.7375,-1.7659,-1.774,-1.7829,-1.8,-1.7821,-1.7612,-1.7434,-1.6835,-1.6231,-1.5641,-1.5049,-1.4391,-1.3652,-1.2984,-1.2157,-1.1219,0.0,0.0,0.0,0.0,0.0,0.0,0.0,0.0,0.0,0.0,0.0,0.0,0.0,0.0,0.0,0.0,0.0,0.0,0.0,0.0,0.0,0.0,0.0,0.0,0.0,0.0,0.0,0.0,0.0,-1.5409,-1.5659,0.0,0.0,0.0,0.0,-1.7636,-1.78,-1.8014,-1.8328,-1.8358,-1.852,-1.8832,-1.8884,-1.8996,-1.9097,-1.9149,-1.916,-1.916,-1.919,-1.919,-1.919,-1.919,-1.919,-1.919,-1.919,-1.919,-1.91,-1.8403,-1.7978,-1.7664,-1.7361,-1.7147,-1.6986,-1.6793,-1.6651,-1.6509,-1.6431,-1.6238,-1.6024,-1.599,-1.5968,-1.598,-1.6103,-1.5765,0.0,0.0,-1.523,-1.5405,-1.5442,-1.5843,-1.6228,-1.6253,-1.6253,-1.6299,-1.6277,-1.6729,-1.6949,-1.6327,-1.6558,-1.6861,-1.6814,0.0,-1.7326,-1.7367,-1.7529,-1.77,-1.77,-1.787,-1.7991,-1.8,-1.7821,-1.7843,-1.8213,-1.7805,-1.7448,-1.7192,-1.6734,-1.6098,-1.5311,-1.4629,-1.3827,-1.2912,-1.2015,0.0,0.0,0.0,0.0,0.0,0.0,0.0,0.0,0.0,0.0,0.0,0.0,0.0,0.0,0.0,0.0,0.0,0.0,0.0,0.0,0.0,0.0,0.0,0.0,0.0,0.0,0.0,0.0,-1.7042,-1.7272,0.0,-1.7804,-1.7874,-1.807,-1.8533,-1.8616,-1.8736,-1.8939,-1.8969,-1.8999,-1.9119,-1.9409,-1.9608,-1.9638,-2.0087,-2.0488,-2.0816,-2.0901,-2.1136,-2.1443,-2.1301,-2.1078,-2.0784,-2.0666,-2.0454,-2.0142,-1.9911,-1.941,-1.8817,-1.8773,-1.8756,-1.8695,-1.8484,-1.8308,-1.8198,-1.8028,-1.7822,-1.7697,-1.791,-1.7692,-1.742,-1.7658,-1.7306,-1.6793,-1.6592,-1.6593,-1.663,-1.6471,-1.664,-1.6885,-1.6862,-1.6999,-1.7088,-1.7167,-1.7454,-1.7641,-1.7457,-1.7502,-1.7595,-1.7595,-1.7713,-1.7797,-1.7797,-1.7838,-1.7995,-1.8233,-1.8341,-1.8494,-1.8742,-1.8723,-1.8697,-1.8885,-1.8557,-1.8342,-1.8273,-1.7861,-1.7368,-1.6773,-1.6233,-1.5511,-1.4542,-1.3774,-1.2839,0.0,0.0,0.0,0.0,0.0,0.0,0.0,0.0,0.0,0.0,0.0,0.0,0.0,0.0,0.0,0.0,0.0,0.0,0.0,0.0,0.0,0.0,0.0,0.0,0.0,-1.6784,-1.7502,-1.815,-1.8384,-1.859,-1.8925,-1.8978,-1.9166,-1.9619,-1.9641,-1.9781,-2.0084,-2.0115,-2.0195,-2.0395,-2.0669,-2.0839,-2.0839,-2.1308,-2.1682,-2.2036,-2.2124,-2.2352,-2.2719,-2.2571,-2.2332,-2.2024,-2.1912,-2.1642,-2.1359,-2.1293,-2.0927,-2.0378,-2.0183,-2.0105,-2.0093,-1.9929,-1.9813,-1.969,-1.944,-1.9233,-1.9176,-1.9403,-1.9157,-1.8851,-1.9029,-1.8682,-1.8165,-1.7924,-1.7809,-1.7698,-1.7386,-1.7444,-1.7579,-1.7494,-1.7584,-1.7684,-1.777,-1.791,-1.8034,-1.8194,-1.8085,-1.8,-1.8,-1.8,-1.8034,-1.8162,-1.8179,-1.8357,-1.8733,-1.8785,-1.8888,-1.9187,-1.9194,-1.9235,-1.9358,-1.9204,-1.9089,-1.9112,-1.8829,-1.848,-1.7948,-1.7567,-1.6932,-1.5969,-1.4968,-1.3929,-1.2848,0.0,0.0,0.0,0.0,0.0,0.0,0.0,0.0,0.0,0.0,0.0,0.0,0.0,0.0,0.0,0.0,0.0,0.0,0.0,0.0,0.0,0.0,0.0,-1.7073,-1.7523,-1.8089,-1.867,-1.8942,-1.9282,-1.9896,-1.9972,-2.0236,-2.0903,-2.0948,-2.1229,-2.1894,-2.1917,-2.218,-2.2696,-2.2719,-2.2719,-2.2719,-2.2719,-2.2719,-2.273,-2.273,-2.2708,-2.2765,-2.2765,-2.2753,-2.273,-2.273,-2.273,-2.2673,-2.2503,-2.24,-2.2309,-2.1453,-2.1118,-2.1118,-2.1024,-2.1006,-2.0938,-2.0565,-2.0417,-2.0421,-2.0446,-2.0329,-2.0219,-2.0251,-1.9871,-1.938,-1.9114,-1.892,-1.8658,-1.8252,-1.8272,-1.8362,-1.808,-1.8049,-1.8049,-1.8049,-1.8025,-1.8177,-1.8537,-1.8314,-1.8034,-1.8034,-1.8034,-1.8153,-1.8554,-1.8605,0.0,-1.9136,-1.9239,-1.9239,-1.9247,-1.9237,-1.935,-1.971,-1.9739,-1.973,-1.974,-1.9732,-1.945,-1.8864,-1.8657,-1.8107,-1.7146,-1.5582,-1.4411,-1.3689,0.0,0.0,0.0,0.0,0.0,0.0,0.0,0.0,0.0,0.0,0.0,0.0,0.0,0.0,0.0,0.0,0.0,0.0,0.0,0.0,0.0,-1.8061,-1.8613,-1.8279,-1.886,-1.9469,-1.9874,-2.0096,-2.0488,-2.1144,-2.1201,-2.1459,-2.2159,-2.2193,-2.2295,-2.2467,-2.2478,-2.2536,-2.2707,-2.2719,-2.2719,-2.2719,-2.2719,-2.2868,-2.3201,-2.3201,-2.342,-2.3775,-2.3775,-2.358,-2.3201,-2.3201,-2.3018,-2.2719,-2.2639,-2.2605,-2.256,-2.1911,-2.1695,-2.1637,-2.1328,-2.1137,-2.0999,-2.0864,-2.0845,-2.0896,-2.1215,-2.1138,-2.0916,-2.1275,-2.0936,-2.0434,-2.0205,-2.0024,-1.9723,-1.9136,-1.9022,-1.8953,-1.8612,-1.8742,-1.8945,-1.8945,-1.9031,-1.9132,-1.9236,-1.9049,-1.8862,-1.8862,-1.8862,-1.8896,-1.9041,-1.9059,-1.9153,-1.9538,-1.9546,-1.9684,-1.9958,-1.9977,-2.0011,-2.0129,-2.015,-2.0131,-2.0158,-2.0155,-1.9951,-1.9627,-1.9516,-1.9069,-1.8063,-1.7086,-1.6143,0.0,0.0,0.0,0.0,0.0,0.0,0.0,0.0,0.0,0.0,0.0,0.0,0.0,0.0,0.0,0.0,0.0,0.0,0.0,0.0,0.0,0.0,-1.9362,-1.9916,-2.0151,-2.0194,-2.0412,-2.0895,-2.1102,-2.1436,-2.2069,-2.2126,-2.2274,-2.2662,-2.2719,-2.2811,-2.2983,-2.2995,-2.3098,-2.3305,-2.3316,-2.3316,-2.3316,-2.3316,-2.3465,-2.3728,-2.3728,-2.3913,-2.42,-2.42,-2.4039,-2.3728,-2.3728,-2.3592,-2.3316,-2.3316,-2.3316,-2.3258,0.0,0.0,0.0,0.0,-2.1763,-2.1597,-2.1597,-2.1607,-2.1607,-2.1895,-2.1786,-2.1552,-2.1852,-2.1606,-2.1223,-2.1031,-2.0976,-2.081,-2.0157,-2.0049,-2.0058,-1.9693,-1.9752,-1.9873,-1.9947,-1.9877,-1.9837,-2.0005,-1.9877,0.0,-1.9913,-1.9549,-1.9273,-1.9523,-1.9497,-1.9591,-2.0057,-2.002,-2.0061,-2.0436,-2.0354,-2.0346,-2.0462,-2.0346,0.0,0.0,0.0,-2.0246,-2.0065,-1.9973,0.0,0.0,0.0,-1.7502,-1.6579,-1.607,0.0,0.0,-1.2968,-1.2489,0.0,0.0,0.0,0.0,0.0,0.0,0.0,0.0,0.0,0.0,0.0,0.0,0.0,0.0,0.0,0.0,-2.0418,-2.1137,-2.2083,-2.1462,-2.1124,-2.1719,-2.1908,-2.2214,-2.2719,-2.2765,-2.2788,-2.2846,-2.2891,-2.3052,-2.3476,-2.3488,0.0,0.0,0.0,-2.42,-2.42,-2.42,-2.42,-2.42,-2.42,-2.42,-2.42,-2.42,-2.42,-2.42,-2.42,-2.42,-2.42,-2.4258,-2.4315,-2.4242,-2.3311,-2.2907,-2.2891,-2.28,-2.2665,-2.2515,-2.2515,0.0,0.0,-2.2542,-2.2412,-2.2271,-2.2324,-2.2182,-2.1991,-2.1771,-2.1912,-2.1939,-2.1279,-2.1286,-2.1358,-2.1121,-2.095,-2.0852,-2.1053,-2.0763,-2.0613,-2.0953,-2.0851,-2.0827,-2.1114,-2.0167,-1.9583,-2.0105,-2.0025,-2.0049,-2.0656,-2.0518,-2.0445,-2.0715,-2.0544,0.0,-2.0678,-2.0499,-2.0337,-2.0292,-2.0292,-2.0292,-2.0292,-2.0065,-1.9837,-1.9646,-1.9188,-1.8589,-1.7878,-1.7606,-1.6893,-1.578,-1.4435,-1.3616,0.0,0.0,0.0,0.0,0.0,0.0,0.0,0.0,0.0,0.0,0.0,0.0,0.0,0.0,0.0,-2.0849,-2.1521,-2.1996,-2.2329,-2.2196,-2.2128,-2.2239,-2.2444,-2.2731,-2.3212,-2.3258,-2.343,-2.3867,-2.3902,-2.3948,-2.4051,-2.4051,-2.4097,-2.42,-2.42,-2.42,-2.42,-2.42,-2.42,-2.42,-2.42,0.0,-2.42,-2.42,-2.42,-2.42,-2.42,-2.42,-2.4223,-2.4613,-2.4914,-2.5058,-2.4065,-2.3604,-2.3433,-2.3412,-2.3298,-2.3113,-2.3113,-2.3001,-2.2955,-2.3346,-2.3323,-2.3245,-2.3659,-2.3598,0.0,-2.3163,-2.3146,-2.3099,-2.2615,-2.2442,-2.2308,-2.2093,-2.21,-2.2132,-2.2175,-2.2251,-2.2311,-2.2397,-2.2221,-2.2045,-2.212,-2.1309,-2.0713,-2.0792,-2.0801,-2.0783,-2.0943,-2.0906,-2.087,-2.0925,-2.0916,-2.0826,-2.0708,-2.0663,-2.0518,-2.0292,-2.0292,-2.0292,-2.0292,-2.0246,-2.011,-1.9837,-1.9745,-1.9417,-1.8912,-1.8635,-1.8272,-1.7818,-1.5971,-1.4748,0.0,0.0,0.0,0.0,0.0,0.0,0.0,0.0,0.0,0.0,0.0,-1.8432,-1.9209,0.0,-2.0959,-2.1958,-2.2449,-2.2849,-2.3239,-2.3312,-2.32,-2.2914,-2.3006,-2.3259,-2.3728,-2.3786,-2.3925,-2.4177,-2.42,-2.42,-2.42,-2.42,-2.42,-2.42,-2.42,-2.4315,-2.4556,-2.4556,-2.4694,-2.4958,-2.4958,-2.4958,-2.4958,-2.4958,-2.4958,-2.4958,-2.4958,-2.4958,-2.4981,-2.521,-2.5398,-2.5504,-2.5002,-2.4608,-2.4343,-2.4343,-2.4218,-2.4066,-2.4066,-2.3924,-2.3787,-2.4028,-2.3937,-2.3852,-2.4129,-2.4035,-2.3825,-2.3705,-2.3835,-2.3933,-2.3607,-2.366,-2.3711,-2.3628,-2.3539,-2.3564,-2.3649,-2.3617,-2.3484,-2.3484,-2.3377,-2.3226,-2.3139,-2.2624,-2.2148,-2.1758,-2.141,-2.1239,-2.132,-2.1159,-2.1032,-2.1176,-2.1105,-2.0997,-2.1069,-2.0925,-2.0781,-2.0645,-2.0645,-2.0645,-2.0645,-2.0555,-2.0428,-2.0292,-2.0155,-1.9928,-1.9563,-1.9425,-1.9142,-1.8758,-1.7796,-1.689,0.0,0.0,0.0,0.0,0.0,0.0,0.0,-1.8646,-1.9236,-1.9053,-1.957,-2.0178,-2.0648,-2.1218,-2.1903,-2.2932,-2.3249,-2.3575,-2.4131,-2.42,-2.4051,-2.3602,-2.3556,-2.3717,-2.4154,-2.42,-2.42,-2.42,-2.42,-2.4235,-2.4326,-2.4338,-2.4384,-2.4487,-2.4487,-2.4682,-2.5061,-2.5073,-2.5279,-2.5716,-2.5716,-2.5716,-2.5716,-2.5716,-2.5716,-2.5716,-2.5716,-2.5761,-2.5853,-2.5853,-2.5922,-2.6003,-2.6003,-2.5807,-2.5459,-2.5306,-2.5072,-2.4876,-2.4876,-2.4701,-2.4508,-2.4596,-2.4527,-2.4407,-2.4534,-2.4486,-2.4366,-2.4344,-2.4613,-2.4873,-2.4708,-2.4871,-2.5073,-2.5073,-2.485,-2.4722,-2.4946,-2.4722,-2.4466,-2.4509,-2.4498,-2.4402,-2.4188,-2.393,-2.3464,-2.2608,-2.1919,-2.1571,-2.1696,-2.1365,-2.1239,-2.1419,-2.1248,-2.1186,-2.1392,-2.1141,-2.0997,-2.0997,-2.0997,-2.0997,-2.0997,-2.0826,-2.0736,-2.0736,-2.0564,-2.0337,-2.0102,-2.0102,-1.992,-1.9554,-1.9554,-1.895,-1.7823,-1.7993,-1.8353,-1.9026,-1.9227,-1.9379,0.0,-2.0337,-2.0937,-2.09,-2.1676,-2.2381,-2.2641,-2.3022,-2.3411,-2.3734,-2.3963,-2.4131,-2.4189,-2.42,-2.4177,-2.412,-2.4108,-2.4131,-2.4189,-2.42,-2.42,-2.42,-2.42,-2.4384,-2.4809,-2.4832,-2.505,-2.5532,-2.5543,-2.5566,-2.5624,-2.5624,-2.5658,-2.5716,-2.5716,-2.5716,-2.5716,-2.5716,-2.5716,-2.5716,-2.5716,-2.5968,-2.6421,-2.6421,-2.6645,-2.7018,-2.7018,-2.7018,-2.6874,-2.597,-2.5394,-2.5083,-2.5083,-2.482,-2.4563,-2.5007,-2.5098,-2.5215,-2.5818,-2.595,-2.5981,-2.6218,-2.6303,-2.6348,-2.6348,-2.606,-2.577,-2.577,-2.5464,-2.52,-2.5411,-2.5411,-2.5411,-2.5675,-2.5675,-2.5633,-2.5359,-2.4978,-2.4305,-2.2969,-2.2362,-2.1919,-2.1741,-2.1642,-2.1642,-2.1651,-2.1642,-2.1562,-2.1392,-2.1141,-2.0997,-2.0997,-2.0997,-2.0997,-2.0997,-2.0997,-2.0952,-2.0952,-2.0952,-2.0907,-2.0862,-2.0862,-2.0862,-2.0817,-2.0817,-2.0048,-1.9872,-2.0176,-2.0537,-2.0695,-2.1091,-2.1466,-2.1349,-2.1983,-2.2574,-2.2438,-2.2859,-2.3298,-2.3494,-2.3677,-2.3824,-2.4043,-2.4164,-2.42,-2.42,-2.42,-2.4292,-2.4579,-2.4608,-2.4517,-2.4235,-2.4453,-2.4613,-2.4613,-2.49,-2.5164,-2.5371,-2.5383,-2.5486,-2.5704,-2.5716,-2.5853,-2.6152,-2.6152,-2.6301,-2.6548,-2.6548,-2.6548,-2.6548,-2.6548,-2.6548,-2.6548,-2.6548,-2.6714,-2.6909,-2.6909,-2.7036,-2.719,-2.719,-2.719,-2.7133,-2.6709,-2.6388,-2.6147,-2.6147,-2.5945,-2.5747,-2.5935,-2.6002,-2.6087,-2.6329,-2.6437,-2.6437,-2.6561,-2.6603,-2.6603,-2.6603,-2.6437,-2.6313,-2.6313,-2.6177,-2.6052,-2.6124,-2.6135,-2.6177,-2.6271,-2.6396,-2.6354,-2.5968,-2.5538,-2.4903,-2.3777,-2.2974,-2.2413,-2.215,-2.1874,-2.1696,-2.1696,-2.1696,-2.1651,-2.1562,-2.1463,-2.1419,-2.1419,-2.1419,-2.1419,-2.1419,-2.1284,-2.1239,-2.1239,-2.1096,-2.0997,-2.0997,-2.0997,-2.0997,-2.0997,-2.0997,-2.0682,-2.1452,-2.1861,-2.2102,-2.2086,-2.2573,-2.2983,-2.2806,-2.3226,-2.3629,-2.3482,-2.3641,-2.3824,-2.397,-2.397,-2.4043,-2.4164,-2.42,-2.4246,-2.4372,-2.4395,-2.4579,-2.5073,-2.5135,-2.4994,-2.4659,-2.4935,-2.513,-2.513,-2.5497,-2.5773,-2.5911,-2.5922,-2.5991,-2.6129,-2.609,-2.6301,-2.6668,-2.6668,-2.6864,-2.719,-2.719,-2.719,-2.719,-2.719,-2.719,-2.719,-2.719,-2.719,-2.719,-2.719,-2.719,-2.719,-2.719,-2.719,-2.719,-2.719,-2.7056,-2.6891,-2.6891,-2.6768,-2.6603,-2.6603,-2.6603,-2.6603,-2.6685,-2.6685,-2.6685,-2.6768,-2.6768,-2.6768,-2.6768,-2.6727,-2.6685,-2.6685,-2.6644,-2.6603,-2.6685,-2.6685,-2.6685,-2.6768,-2.6891,-2.685,-2.6437,-2.5999,-2.5443,-2.468,-2.379,-2.2974,-2.246,-2.2052,-2.1785,-2.1696,-2.1696,-2.1696,-2.1696,-2.1696,-2.1696,-2.1696,-2.1696,-2.1696,-2.1696,-2.1562,-2.1482,-2.1482,-2.1275,-2.1177,-2.1177,-2.1177,-2.1177,-2.1177,-2.1177,-2.1177,-2.2196,-2.2503,-2.2788,-2.3224,-2.3385,-2.3464,-2.3797,-2.3886,-2.3897,-2.3897,-2.4043,-2.4189,-2.42,-2.42,-2.4189,-2.42,-2.42,-2.4361,-2.482,-2.4889,-2.5084,-2.5624,-2.5693,-2.5693,-2.567,-2.5681,-2.5693,-2.5693,-2.5704,-2.5922,-2.6455,-2.6478,-2.6668,-2.7121,-2.7144,-2.7156,-2.7167,-2.7167,-2.7179,-2.719,-2.719,-2.719,-2.719,-2.719,-2.719,-2.719,-2.719,-2.719,-2.719,-2.719,-2.719,-2.719,-2.719,-2.719,-2.719,-2.719,-2.7056,-2.6891,-2.6891,-2.6768,-2.6603,-2.6603,-2.6603,-2.6644,-2.6809,-2.6891,-2.6933,-2.7149,-2.719,-2.719,-2.719,-2.7026,-2.6891,-2.6891,-2.6727,-2.6644,-2.685,-2.6891,-2.6933,-2.7149,-2.719,-2.7108,-2.6891,-2.6498,-2.603,-2.5527,-2.4743,-2.3721,-2.2574,-2.223,-2.2008,-2.1741,-2.1696,-2.1696,-2.1696,-2.1696,-2.1696,-2.1696,-2.1696,-2.1696,-2.1696,-2.1687,-2.1696,-2.1696,-2.1696,-2.1696,-2.1696,-2.1696,-2.1696,-2.1696,-2.1696,-2.1696,-2.3383,-2.3837,-2.4131,-2.4295,-2.4223,-2.4162,-2.4263,-2.4189,-2.4091,-2.4091,-2.4152,-2.42,-2.42,-2.42,-2.42,-2.42,-2.4464,-2.4728,-2.4889,-2.5196,-2.5652,-2.6175,-2.6217,-2.6359,-2.6674,-2.6404,-2.6249,-2.6249,-2.6531,-2.6754,-2.6967,-2.6967,-2.7047,-2.7179,-2.719,-2.719,-2.719,-2.719,-2.719,-2.719,-2.719,-2.719,-2.719,-2.719,-2.719,-2.719,-2.719,-2.719,-2.719,-2.719,-2.719,-2.719,-2.719,-2.719,-2.719,-2.719,-2.7149,-2.7108,-2.7108,-2.7067,-2.7015,-2.7015,-2.7015,-2.7026,-2.7067,-2.7108,-2.7108,-2.719,-2.719,-2.719,-2.719,-2.7149,-2.7108,-2.7108,-2.7067,-2.7015,-2.7067,-2.7108,-2.7108,-2.719,-2.719,-2.7149,-2.6933,-2.6622,-2.6144,-2.5421,-2.4421,-2.3392,-2.2526,-2.2201,-2.2008,-2.1741,-2.1696,-2.1696,-2.1696,-2.1696,-2.1696,-2.1696,-2.1696,-2.1696,-2.1696,-2.1696,-2.1696,-2.1696,-2.1696,-2.1696,-2.1696,-2.1696,-2.1696,-2.1696,-2.1696,-2.1696,-2.4175,-2.467,-2.4921,-2.4921,-2.4814,-2.4706,-2.4598,-2.4454,-2.4309,-2.42,-2.4152,-2.4137,-2.432,-2.428,-2.4314,-2.4576,-2.4871,-2.5169,-2.5432,-2.5787,-2.6177,-2.6691,-2.673,-2.6871,-2.7179,-2.6932,-2.6737,-2.6737,-2.7047,-2.719,-2.719,-2.719,-2.719,-2.719,-2.719,-2.719,-2.719,-2.719,-2.719,-2.719,-2.719,-2.719,-2.719,-2.719,-2.719,-2.719,-2.719,-2.719,-2.719,-2.719,-2.719,-2.719,-2.719,-2.719,-2.719,-2.719,-2.719,-2.719,-2.719,-2.719,-2.719,-2.719,-2.719,-2.719,-2.719,-2.719,-2.719,-2.719,-2.719,-2.719,-2.719,-2.719,-2.719,-2.719,-2.719,-2.719,-2.719,-2.719,-2.719,-2.719,-2.719,-2.7149,-2.7015,-2.6816,-2.637,-2.5557,-2.47,-2.3784,-2.2911,-2.2545,-2.223,-2.1874,-2.1785,-2.1696,-2.1696,-2.1696,-2.1696,-2.1696,-2.1696,-2.1696,-2.1696,-2.1696,-2.1696,-2.1696,-2.1696,-2.1696,-2.1696,-2.1696,-2.1696,-2.1696,-2.1696,-2.1696,-2.4578,-2.4957,-2.5111,-2.5111,-2.5111,-2.5052,-2.4861,-2.4646,-2.4454,-2.4236,-2.4043,-2.4045,-2.4495,-2.4408,-2.4532,-2.528,-2.542,-2.5682,-2.6396,-2.6507,-2.6691,-2.7133,-2.719,-2.719,-2.719,-2.719,-2.719,-2.719,-2.719,-2.719,-2.719,-2.719,-2.719,-2.719,-2.719,-2.719,-2.719,-2.719,-2.719,-2.719,-2.719,-2.719,-2.719,-2.719,-2.719,-2.719,-2.719,-2.719,-2.719,-2.719,-2.719,-2.719,-2.719,-2.719,-2.719,-2.719,-2.719,-2.719,-2.719,-2.719,-2.719,-2.719,-2.719,-2.719,-2.719,-2.719,-2.719,-2.719,-2.719,-2.719,-2.719,-2.719,-2.719,-2.719,-2.719,-2.719,-2.719,-2.719,-2.719,-2.719,-2.719,-2.719,-2.719,-2.701,-2.6678,-2.6014,-2.5527,-2.4807,-2.3637,-2.3091,-2.2627,-2.2141,-2.1874,-2.1696,-2.1696,-2.1696,-2.1696,-2.1696,-2.1696,-2.1696,-2.1696,-2.1696,-2.1696,-2.1696,-2.1696,-2.1696,-2.1696,-2.1696,-2.1696,-2.1696,-2.1696,-2.1696,-2.4965,-2.5218,-2.5241,-2.5241,-2.5182,-2.5052,-2.4861,-2.4646,-2.4381,-2.4043,-2.3934,-2.4002,-2.4328,-2.4341,-2.4556,-2.5262,-2.5701,-2.6052,-2.6455,-2.6823,-2.7082,-2.7179,-2.719,-2.719,-2.719,-2.719,-2.719,-2.719,-2.719,-2.719,-2.719,-2.719,-2.719,-2.719,-2.719,-2.719,-2.719,-2.719,-2.719,-2.719,-2.719,-2.719,-2.719,-2.719,-2.719,-2.719,-2.719,-2.719,-2.719,-2.719,-2.719,-2.719,-2.719,-2.719,-2.719,-2.719,-2.719,-2.719,-2.719,-2.719,-2.719,-2.719,-2.719,-2.719,-2.719,-2.719,-2.719,-2.719,-2.719,-2.719,-2.719,-2.719,-2.719,-2.719,-2.719,-2.719,-2.719,-2.719,-2.719,-2.719,-2.719,-2.719,-2.719,-2.7026,-2.6715,-2.6216,-2.5602,-2.4837,-2.3841,-2.3188,-2.2627,-2.2141,-2.1874,-2.1696,-2.1696,-2.1696,-2.1696,-2.1696,-2.1696,-2.1696,-2.1696,-2.1696,-2.1696,-2.1696,-2.1696,-2.1696,-2.1696,-2.1696,-2.1696,-2.1696,-2.1696,-2.1696,-2.5198,-2.5382,-2.5276,-2.5241,-2.5147,-2.5016,-2.4718,-2.4574,-2.4381,-2.397,-2.3968,-2.415,-2.4442,-2.458,-2.4965,-2.5786,-2.6138,-2.6409,-2.6754,-2.7047,-2.719,-2.719,-2.719,-2.719,-2.719,-2.719,-2.719,-2.719,-2.719,-2.719,-2.719,-2.719,-2.719,-2.719,-2.719,-2.719,-2.719,-2.719,-2.719,-2.719,-2.719,-2.719,-2.719,-2.719,-2.719,-2.719,-2.719,-2.719,-2.719,-2.719,-2.719,-2.719,-2.719,-2.719,-2.719,-2.719,-2.719,-2.719,-2.719,-2.719,-2.719,-2.719,-2.719,-2.719,-2.719,-2.719,-2.719,-2.719,-2.719,-2.719,-2.719,-2.719,-2.719,-2.719,-2.719,-2.719,-2.719,-2.719,-2.719,-2.719,-2.719,-2.7149,-2.7079,-2.6896,-2.6534,-2.5981,-2.5317,-2.4592,-2.3764,-2.3154,-2.2662,-2.2264,-2.1909,-2.1696,-2.1696,-2.1696,-2.1696,-2.1696,-2.1696,-2.1696,-2.1696,-2.1696,-2.1696,-2.1696,-2.1696,-2.1696,-2.1696,-2.1696,-2.1696,-2.1696,-2.1696,-2.1696,-2.5229,-2.5369,-2.5241,-2.5123,-2.5052,-2.4909,-2.4562,-2.4418,-2.4273,-2.3861,-2.3997,-2.4258,-2.4586,-2.489,-2.5455,-2.6404,-2.6554,-2.6685,-2.7108,-2.7149,-2.719,-2.719,-2.719,-2.719,-2.719,-2.719,-2.719,-2.719,-2.719,-2.719,-2.719,-2.719,-2.719,-2.719,-2.719,-2.719,-2.719,-2.719,-2.719,-2.719,-2.719,-2.719,-2.719,-2.719,-2.719,-2.719,-2.719,-2.719,-2.719,-2.719,-2.719,-2.719,-2.719,-2.719,-2.719,-2.719,-2.719,-2.719,-2.719,-2.719,-2.719,-2.719,-2.719,-2.719,-2.719,-2.719,-2.719,-2.719,-2.719,-2.719,-2.719,-2.719,-2.719,-2.719,-2.719,-2.719,-2.719,-2.719,-2.719,-2.719,-2.7179,-2.7097,-2.6896,-2.6565,-2.614,-2.5456,-2.4795,-2.4122,-2.3503,-2.3013,-2.2662,-2.2397,-2.1954,-2.1696,-2.1696,-2.1696,-2.1696,-2.1696,-2.1696,-2.1696,-2.1696,-2.1696,-2.1696,-2.1696,-2.1696,-2.1696,-2.1696,-2.1696,-2.1696,-2.1696,-2.1696,-2.1696,-2.4597,-2.4917,-2.5087,-2.4885,-2.4718,-2.4526,-2.4309,-2.397,-2.3629,-2.3224,-2.3377,-2.3726,-2.4183,-2.46,-2.5161,-2.613,-2.6271,-2.6437,-2.6891,-2.6933,-2.7015,-2.719,-2.719,-2.719,-2.719,-2.719,-2.719,-2.719,-2.719,-2.719,-2.719,-2.719,-2.719,-2.719,-2.719,-2.719,-2.719,-2.719,-2.719,-2.719,-2.719,-2.719,-2.719,-2.719,-2.719,-2.719,-2.719,-2.719,-2.719,-2.719,-2.719,-2.719,-2.719,-2.719,-2.719,-2.719,-2.719,-2.719,-2.719,-2.719,-2.719,-2.719,-2.719,-2.719,-2.719,-2.719,-2.719,-2.719,-2.719,-2.719,-2.719,-2.719,-2.719,-2.719,-2.719,-2.719,-2.719,-2.719,-2.719,-2.719,-2.7062,-2.6887,-2.6595,-2.6085,-2.5465,-2.4769,-2.4105,-2.3493,-2.2979,-2.2662,-2.2397,-2.2185,-2.1874,-2.1696,-2.1696,-2.1696,-2.1696,-2.1696,-2.1696,-2.1696,-2.1696,-2.1696,-2.1696,-2.1696,-2.1696,-2.1696,-2.1696,-2.1696,-2.1696,-2.1696,-2.1696,-2.1696,-2.4408,-2.4718,-2.4885,-2.4682,-2.449,-2.4236,-2.3824,-2.3409,-2.2979,-2.2483,-2.2665,-2.3079,-2.361,-2.4111,-2.4791,-2.5692,-2.5832,-2.601,-2.6456,-2.6633,-2.6798,-2.7015,-2.7149,-2.719,-2.719,-2.719,-2.719,-2.719,-2.719,-2.719,-2.719,-2.719,-2.719,-2.719,-2.719,-2.719,-2.719,-2.719,-2.719,-2.719,-2.719,-2.719,-2.719,-2.719,-2.719,-2.719,-2.719,-2.719,-2.719,-2.719,-2.719,-2.719,-2.719,-2.719,-2.719,-2.719,-2.719,-2.719,-2.719,-2.719,-2.719,-2.719,-2.719,-2.719,-2.719,-2.719,-2.719,-2.719,-2.719,-2.719,-2.719,-2.719,-2.719,-2.719,-2.719,-2.719,-2.719,-2.719,-2.7179,-2.7062,-2.6857,-2.655,-2.6074,-2.5413,-2.4729,-2.4082,-2.3368,-2.2794,-2.2495,-2.2185,-2.2043,-2.2097,-2.1874,-2.1696,-2.1696,-2.1696,-2.1696,-2.1696,-2.1696,-2.1696,-2.1696,-2.1696,-2.1696,-2.1696,-2.1696,-2.1696,-2.1696,-2.1696,-2.1696,-2.1696,-2.1696,-2.1696,-2.406,-2.4425,-2.4682,-2.4418,-2.4164,-2.3787,-2.3224,-2.2692,-2.2161,-2.1638,-2.1825,-2.2242,-2.2808,-2.3423,-2.4158,-2.4978,-2.5189,-2.5359,-2.5768,-2.6071,-2.6332,-2.6633,-2.6839,-2.7015,-2.7149,-2.7108,-2.7097,-2.7149,-2.7108,-2.7108,-2.719,-2.719,-2.719,-2.719,-2.719,-2.719,-2.719,-2.7149,-2.7149,-2.7149,-2.7097,-2.7067,-2.7056,-2.7108,-2.7149,-2.7149,-2.719,-2.719,-2.719,-2.719,-2.719,-2.719,-2.719,-2.719,-2.719,-2.719,-2.719,-2.719,-2.719,-2.719,-2.719,-2.719,-2.719,-2.719,-2.719,-2.719,-2.719,-2.719,-2.719,-2.719,-2.719,-2.719,-2.719,-2.719,-2.719,-2.719,-2.719,-2.7179,-2.7062,-2.6871,-2.6513,-2.608,-2.5401,-2.474,-2.4065,-2.3392,-2.275,-2.2264,-2.2052,-2.183,-2.1785,-2.2008,-2.183,-2.1696,-2.1696,-2.1696,-2.1696,-2.1696,-2.1696,-2.1696,-2.1696,-2.1696,-2.1696,-2.1696,-2.1696,-2.1696,-2.1696,-2.1696,-2.1696,-2.1696,-2.1696,-2.1696,-2.3081,-2.377,-2.4454,-2.4043,-2.353,-2.3001,-2.259,-2.1749,-2.0971,-2.0668,-2.0713,-2.101,-2.1858,-2.2413,-2.3001,-2.3816,-2.4155,-2.4413,-2.4627,-2.5062,-2.5485,-2.5946,-2.6155,-2.6456,-2.6891,-2.6768,-2.6727,-2.6891,-2.6768,-2.6809,-2.719,-2.719,-2.719,-2.719,-2.719,-2.719,-2.719,-2.7015,-2.6933,-2.6933,-2.6727,-2.6644,-2.6644,-2.685,-2.6933,-2.6933,-2.7108,-2.719,-2.719,-2.719,-2.719,-2.719,-2.719,-2.719,-2.719,-2.719,-2.719,-2.719,-2.719,-2.719,-2.719,-2.719,-2.719,-2.719,-2.719,-2.719,-2.719,-2.719,-2.719,-2.719,-2.719,-2.719,-2.719,-2.719,-2.719,-2.719,-2.719,-2.7062,-2.686,-2.6576,-2.6028,-2.5378,-2.4702,-2.4058,-2.335,-2.2593,-2.2264,-2.2052,-2.1776,-2.1741,-2.1696,-2.1731,-2.1687,-2.1696,-2.1696,-2.1696,-2.1696,-2.1696,-2.1696,-2.1696,-2.1696,-2.1696,-2.1696,-2.1696,-2.1696,-2.1696,-2.1696,-2.1696,-2.1696,-2.1696,-2.1696,-2.1696,-2.2728,-2.3294,-2.3821,-2.3745,-2.3372,-2.2767,-2.1901,-2.0962,-2.0138,-1.9552,-1.9308,-1.9425,-2.0218,-2.0796,-2.1431,-2.227,-2.266,-2.3052,-2.3574,-2.392,-2.4349,-2.4967,-2.5463,-2.5935,-2.6238,-2.6332,-2.629,-2.6082,-2.5874,-2.5874,-2.6166,-2.6727,-2.7015,-2.7015,-2.7149,-2.7149,-2.7015,-2.6933,-2.6757,-2.6498,-2.6415,-2.6373,-2.6373,-2.6456,-2.6633,-2.6891,-2.685,-2.6891,-2.7026,-2.6891,-2.6891,-2.7015,-2.7015,-2.7097,-2.719,-2.719,-2.719,-2.719,-2.719,-2.719,-2.719,-2.719,-2.7108,-2.7026,-2.7149,-2.719,-2.719,-2.719,-2.7108,-2.7015,-2.7015,-2.6933,-2.685,-2.6974,-2.6933,-2.685,-2.6974,-2.673,-2.6341,-2.5983,-2.5378,-2.4692,-2.4003,-2.3325,-2.27,-2.229,-2.1989,-2.183,-2.1687,-2.1696,-2.1696,-2.1696,-2.1696,-2.1696,-2.1696,-2.1696,-2.1696,-2.1696,-2.1696,-2.1696,-2.1696,-2.1696,-2.1696,-2.1696,-2.1696,-2.1696,-2.1696,-2.1696,-2.1696,-2.1696,-2.1696,-2.1696,-2.215,-2.2658,-2.3095,-2.3213,-2.2916,-2.2268,-2.1078,-2.0138,-1.9323,-1.85,-1.8101,-1.8132,-1.8707,-1.928,-1.9963,0.0,0.0,-2.1774,-2.2394,-2.2702,-2.3183,-2.393,-2.452,-2.5073,-2.5505,-2.5684,-2.5558,-2.4925,-2.4765,-2.4712,-2.4797,-2.56,-2.6238,-2.6674,-2.6839,-2.688,-2.6809,-2.6592,-2.629,-2.5904,-2.5684,-2.56,-2.56,-2.5726,-2.603,-2.6385,-2.6385,-2.6479,-2.6603,-2.6509,-2.6592,-2.6715,-2.6768,-2.6891,-2.7015,-2.7097,-2.7108,-2.7108,-2.719,-2.7149,-2.7108,-2.7108,-2.6933,-2.6715,-2.6839,-2.6974,-2.7015,-2.7015,-2.6839,-2.6674,-2.6603,-2.655,-2.6509,-2.6674,-2.6592,-2.6498,-2.6592,-2.6251,-2.5736,-2.5224,-2.4598,-2.397,-2.33,-2.269,-2.2236,-2.2024,-2.1811,-2.1696,-2.1696,-2.1696,-2.1696,-2.1696,-2.1696,-2.1696,-2.1696,-2.1696,-2.1696,-2.1696,-2.1696,-2.1696,-2.1696,-2.1696,-2.1696,-2.1696,-2.1696,-2.1696,-2.1696,-2.1696,-2.1696,-2.1696,-2.1696,-2.1696,-2.1198,-2.1792,-2.2317,-2.2398,-2.1966,-2.1221,-2.0168,-1.9283,-1.8465,-1.7588,-1.7245,-1.7229,-1.7655,-1.8158,-1.8716,-1.9333,-2.008,-2.0718,-2.0997,-2.1436,-2.2006,-2.2711,-2.3236,-2.3844,-2.4744,-2.4829,-2.4445,-2.3594,-2.3507,-2.341,-2.3139,-2.3737,-2.4776,-2.6144,-2.6227,-2.6332,-2.6603,-2.5874,-2.5411,-2.52,-2.4551,-2.4209,-2.4241,-2.4616,-2.4967,-2.5242,-2.5728,-2.5895,-2.5937,-2.6124,-2.6196,-2.6227,-2.6509,-2.6603,-2.6644,-2.6809,-2.6891,-2.6933,-2.7149,-2.7067,-2.6891,-2.6891,-2.6592,-2.6196,-2.6227,-2.6415,-2.6603,-2.6603,-2.6415,-2.6155,-2.5979,-2.6052,-2.6185,-2.6196,-2.6196,-2.6144,-2.5935,-2.552,-2.5024,-2.4357,-2.3851,-2.3296,-2.2558,-2.2253,-2.2028,-2.175,-2.1696,-2.1696,-2.1696,-2.1696,-2.1696,-2.1696,-2.1696,-2.1696,-2.1696,-2.1696,-2.1696,-2.1696,-2.1696,-2.1696,-2.1696,-2.1696,-2.1696,-2.1696,-2.1696,-2.1696,-2.1696,-2.1696,-2.1696,-2.1696,-2.1696,-2.1696,-2.0133,-2.0692,-2.1047,-2.1267,-2.1078,-2.0498,-1.9362,-1.8625,-1.7983,-1.7107,-1.6779,-1.6611,-1.6594,-1.7122,-1.771,-1.8201,-1.8881,-1.9646,-2.0419,-2.0645,-2.1006,-2.1776,-2.2555,-2.3193,-2.3617,-2.3487,-2.3193,-2.258,-2.2378,-2.229,-2.2403,-2.2624,-2.3444,-2.4999,-2.5348,-2.5485,-2.5454,-2.502,-2.4541,-2.4026,-2.3627,-2.3367,-2.3236,-2.3531,-2.392,-2.4445,-2.4456,-2.4765,-2.5211,-2.4935,-2.5094,-2.5527,-2.5622,-2.5843,-2.6146,-2.6332,-2.6404,-2.6456,-2.6715,-2.6633,-2.6415,-2.6238,-2.5904,-2.5485,-2.5359,-2.558,-2.579,-2.5538,-2.5369,-2.5232,-2.502,-2.4967,-2.5094,-2.5274,-2.5189,-2.4999,-2.4967,-2.4585,-2.4108,-2.3543,-2.3071,-2.2618,-2.2253,-2.1983,-2.1803,-2.1696,-2.1696,-2.1696,-2.1696,-2.1696,-2.1696,-2.1696,-2.1696,-2.1696,-2.1696,-2.1696,-2.1696,-2.1696,-2.1696,-2.1696,-2.1696,-2.1696,-2.1696,-2.1696,-2.1696,-2.1696,-2.1696,-2.1696,-2.1696,-2.1696,-2.1696,-2.1696,-1.8605,-1.9229,-1.9577,-1.9841,-1.9868,-1.9559,-1.8536,-1.7983,-1.7416,-1.6657,-1.6294,-1.6084,-1.5869,-1.6458,-1.713,-1.7497,-1.8186,-1.902,-1.9891,-2.0027,-2.0346,-2.1159,-2.1935,-2.2448,-2.2545,-2.2448,-2.2183,-2.1704,-2.1454,-2.141,-2.1579,-2.1659,-2.2192,-2.329,-2.3983,-2.4284,-2.4198,-2.3887,-2.3444,-2.2974,-2.2633,-2.2378,-2.229,-2.2492,-2.2833,-2.3357,-2.327,-2.3594,0.0,-2.3983,-2.4166,-2.4562,-2.4765,-2.4978,-2.5285,-2.5558,-2.5726,-2.5863,-2.6082,-2.6041,-2.5768,-2.5474,-2.502,-2.4519,-2.4219,-2.4509,-2.4935,-2.4476,-2.4348,-2.4348,-2.4166,-2.4166,-2.4294,-2.4433,-2.4348,-2.4209,-2.3993,-2.3667,-2.329,-2.2823,-2.2482,-2.2208,-2.1983,-2.1803,-2.1696,-2.1696,-2.1696,-2.1696,-2.1696,-2.1696,-2.1696,-2.1696,-2.1696,-2.1696,-2.1696,-2.1696,-2.1696,-2.1696,-2.1696,-2.1696,-2.1696,-2.1696,-2.1696,-2.1696,-2.1696,-2.1696,-2.1696,-2.1696,-2.1696,-2.1696,-2.1696,-2.1696,0.0,-1.746,-1.8024,-1.8204,-1.8451,-1.8416,-1.7781,-1.7335,0.0,-1.6211,-1.5873,-1.5658,-1.5431,-1.6169,-1.6825,-1.7051,-1.7878,-1.8759,-1.9496,-1.9633,-1.9982,-2.0862,-2.1347,-2.1624,-2.1642,-2.1624,-2.1436,-2.0997,-2.0781,-2.0654,-2.0654,-2.0871,-2.1051,-2.1302,-2.2157,-2.2755,-2.3018,-2.2526,-2.2227,-2.2015,-2.1562,-2.1347,-2.1347,-2.1535,-2.1784,-2.2015,-2.2227,-2.2457,-2.2759,-2.3212,-2.3387,-2.345,-2.3907,-2.4069,-2.4112,-2.4531,-2.484,-2.5062,-2.5316,-2.5232,-2.4978,-2.4541,-2.395,-2.3329,-2.2891,-2.3396,-2.3993,-2.3537,-2.3416,-2.3416,-2.3416,-2.3537,-2.3711,-2.3711,-2.3711,-2.358,-2.3144,-2.2882,-2.2608,-2.2164,-2.2061,-2.1983,-2.175,-2.1696,-2.1696,-2.1696,-2.1696,-2.1696,-2.1696,-2.1696,-2.1696,-2.1696,-2.1696,-2.1696,-2.1696,-2.1696,-2.1696,-2.1696,-2.1696,-2.1696,-2.1696,-2.1696,-2.1696,-2.1696,-2.1696,-2.1696,-2.1696,-2.1696,-2.1696,-2.1696,-2.1696,-2.1705,-1.3813,0.0,-1.678,-1.6966,-1.7214,-1.7277,0.0,-1.664,-1.6435,-1.5906,-1.5733,-1.5658,-1.5431,-1.5979,-1.6632,-1.7035,-1.7735,-1.8512,-1.9496,-1.9891,-2.0292,-2.0736,-2.0871,-2.0916,-2.0925,-2.0916,-2.0781,-2.051,-2.0428,-2.0382,-2.0382,-2.0419,-2.0473,-2.0564,-2.0781,-2.1266,-2.2033,-2.1776,-2.1508,-2.1257,-2.1006,-2.0744,-2.0572,-2.0826,-2.1042,-2.1257,-2.1302,-2.1579,-2.1954,-2.2078,-2.2246,-2.2467,-2.2731,-2.2809,-2.2877,-2.3313,-2.3531,-2.3661,-2.4059,-2.4079,-2.3841,-2.3353,-2.2969,-2.2618,-2.2362,-2.2662,-2.3057,-2.275,-2.2662,-2.2662,-2.2662,-2.2706,-2.274,-2.274,-2.274,-2.2662,-2.2397,-2.2318,-2.2185,-2.1856,-2.1785,-2.175,-2.1696,-2.1696,-2.1696,-2.1696,-2.1696,-2.1696,-2.1696,-2.1696,-2.1696,-2.1696,-2.1696,-2.1696,-2.1696,-2.1696,-2.1696,-2.1696,-2.1696,-2.1696,-2.1696,-2.1696,-2.1696,-2.1696,-2.1696,-2.1696,-2.1696,-2.1696,-2.1696,-2.1696,-2.1696,-2.1851,-1.2335,-1.3787,-1.5327,-1.5443,-1.594,-1.6345,-1.6147,-1.6064,-1.6023,-1.5733,-1.5616,-1.5541,-1.5541,-1.6115,-1.6735,-1.7211,-1.7833,-1.8604,-1.9496,-1.9982,-2.0337,-2.0518,-2.0518,-2.0518,-2.0518,-2.0518,-2.0473,-2.0292,-2.0292,-2.0292,-2.0292,-2.0292,-2.0292,-2.0292,-2.0292,-2.0518,-2.106,-2.0934,-2.0835,-2.069,-2.0564,-2.0428,-2.0292,-2.0473,-2.0555,-2.069,-2.069,-2.0871,-2.1239,-2.132,-2.1445,-2.1615,-2.1865,-2.1954,-2.198,-2.2315,-2.258,-2.2809,-2.3071,-2.3047,-2.2803,-2.2539,-2.2309,-2.2043,-2.1963,-2.2097,-2.2264,-2.2132,-2.2087,-2.2087,-2.222,-2.2264,-2.2264,-2.2264,-2.2264,-2.2185,-2.1963,-2.1919,-2.1874,-2.1741,-2.1696,-2.1696,-2.1696,-2.1696,-2.1696,-2.1696,-2.1696,-2.1696,-2.1696,-2.1696,-2.1696,-2.1696,-2.1696,-2.1696,-2.1696,-2.1696,-2.1696,-2.1696,-2.1696,-2.1696,-2.1696,-2.1696,-2.1696,-2.1696,-2.1696,-2.1696,-2.1696,-2.1696,-2.1778,-2.1961,-2.1961,-2.2181,-1.1372,-1.2541,-1.3699,-1.3895,-1.4724,-1.5526,-1.5526,-1.5567,-1.5567,-1.5616,-1.5458,-1.5423,-1.5658,-1.6286,-1.6963,-1.7401,-1.8165,-1.8897,-1.9496,-1.9982,-2.0292,-2.0292,-2.0292,-2.0292,-2.0292,-2.0292,-2.0292,-2.0292,-2.0292,-2.0292,-2.0292,-2.0292,-2.0292,-2.0292,-2.0292,-2.0292,-2.0292,-2.0292,-2.0292,-2.0292,-2.0292,-2.0292,-2.0292,-2.0292,-2.0292,-2.0292,-2.0292,-2.0428,-2.0654,-2.0871,-2.0952,-2.0907,-2.1203,-2.1257,-2.1248,-2.149,-2.1802,-2.2167,-2.222,-2.2176,-2.2052,-2.2052,-2.1874,-2.1696,-2.1696,-2.1696,-2.1696,-2.1696,-2.1696,-2.1731,-2.1963,-2.2052,-2.2052,-2.2052,-2.2052,-2.1963,-2.1741,-2.1696,-2.1696,-2.1696,-2.1696,-2.1696,-2.1696,-2.1696,-2.1696,-2.1696,-2.1696,-2.1696,-2.1696,-2.1696,-2.1696,-2.1696,-2.1696,-2.1696,-2.1696,-2.1696,-2.1696,-2.1696,-2.1696,-2.1696,-2.1696,-2.1696,-2.1696,-2.1696,-2.1696,-2.1723,-2.1778,-2.1778,-2.1989,-2.2373,-2.2373,-2.2602,-1.0105,-1.0929,-1.1994,-1.3061,-1.3987,-1.465,-1.4817,-1.4859,-1.4901,-1.5166,-1.5173,-1.5257,-1.5616,-1.6286,-1.6963,-1.7401,-1.8571,-1.945,-1.9587,-1.9982,-2.0292,-2.0292,-2.0292,-2.0292,-2.0292,-2.0292,-2.0292,-2.0292,-2.0292,-2.0292,-2.0292,-2.0292,-2.0292,-2.0292,-2.0292,-2.0292,-2.0292,-2.0292,-2.0292,-2.0292,-2.0292,-2.0292,-2.0292,-2.0292,-2.0292,-2.0292,-2.0292,-2.0337,-2.0382,-2.0645,-2.0609,-2.0428,-2.0699,-2.0654,-2.0518,-2.0736,-2.0916,-2.1015,-2.1437,-2.1651,-2.1785,-2.1785,-2.1731,-2.1696,-2.1696,-2.1696,-2.1696,-2.1696,-2.1696,-2.1696,-2.1731,-2.1785,-2.1785,-2.1785,-2.1785,-2.1731,-2.1696,-2.1696,-2.1696,-2.1696,-2.1696,-2.1696,-2.1696,-2.1696,-2.1696,-2.1696,-2.1696,-2.1696,-2.1696,-2.1696,-2.1696,-2.1696,-2.1696,-2.1696,-2.1696,-2.1696,-2.1696,-2.1696,-2.1696,-2.1696,-2.1696,-2.1696,-2.1696,-2.1696,-2.1696,-2.1861,-2.219,-2.219,-2.24,-2.2812,-2.2812,-2.3023,-0.9506,-1.0272,-1.1163,-1.1954,-1.3013,-1.3899,-1.411,-1.4356,-1.4566,-1.4699,-1.4915,-1.5208,-1.5484,-1.6322,-1.7245,-1.8063,-1.9001,-1.9587,-1.9587,-1.9982,-2.0292,-2.0292,-2.0292,-2.0292,-2.0292,-2.0292,-2.0292,-2.0292,-2.0292,-2.0292,-2.0292,-2.0292,-2.0292,-2.0292,-2.0292,-2.0292,-2.0292,-2.0292,-2.0292,-2.0292,-2.0292,-2.0292,-2.0292,-2.0292,-2.0292,-2.0292,-2.0292,-2.0292,-2.0292,-2.0428,-2.0428,-2.0292,-2.0428,-2.0428,-2.0337,-2.0609,-2.0781,-2.0916,-2.1248,-2.1517,-2.1696,-2.1696,-2.1696,-2.1696,-2.1696,-2.1696,-2.1696,-2.1696,-2.1696,-2.1696,-2.1696,-2.1696,-2.1696,-2.1696,-2.1696,-2.1696,-2.1696,-2.1696,-2.1696,-2.1696,-2.1696,-2.1696,-2.1696,-2.1696,-2.1696,-2.1696,-2.1696,-2.1696,-2.1696,-2.1696,-2.1696,-2.1696,-2.1696,-2.1696,-2.1696,-2.1696,-2.1696,-2.1696,-2.1696,-2.1696,-2.1696,-2.1696,-2.1696,-2.1696,-2.1897,-2.2099,-2.2282,-2.251,-2.2821,-2.3224,-2.3081,-2.3241,-0.898,-0.9807,-1.0643,-1.1042,-1.2153,-1.3222,-1.3434,-1.3808,-1.4097,-1.4223,-1.4573,-1.4964,-1.5325,-1.6365,-1.7559,-1.8716,-1.9296,-1.9633,-1.9671,-2.0027,-2.0292,-2.0292,-2.0292,-2.0292,-2.0292,-2.0292,-2.0292,-2.0292,-2.0292,-2.0292,-2.0292,-2.0292,-2.0292,-2.0292,-2.0292,-2.0292,-2.0292,-2.0292,-2.0292,-2.0292,-2.0292,-2.0292,-2.0292,-2.0292,-2.0292,-2.0292,-2.0292,-2.0292,-2.0292,-2.0292,-2.0292,-2.0292,-2.0292,-2.0292,-2.0337,-2.0518,-2.0736,-2.0961,-2.1203,-2.1428,-2.1651,-2.1696,-2.1696,-2.1696,-2.1696,-2.1696,-2.1696,-2.1696,-2.1696,-2.1696,-2.1696,-2.1696,-2.1696,-2.1696,-2.1696,-2.1696,-2.1696,-2.1696,-2.1696,-2.1696,-2.1696,-2.1696,-2.1696,-2.1696,-2.1696,-2.1696,-2.1696,-2.1696,-2.1696,-2.1696,-2.1696,-2.1696,-2.1696,-2.1696,-2.1696,-2.1696,-2.1696,-2.1696,-2.1651,-2.1607,-2.1607,-2.1553,-2.1598,-2.1653,-2.1989,-2.2235,-2.237,-2.2697,-2.306,-2.349,-2.3188,-2.3251,-0.836,-0.9252,-1.0156,-1.0643,-1.1613,-1.2534,-1.2747,-1.3009,-1.33,-1.3662,-1.3984,-1.4419,-1.5257,-1.6508,-1.784,-1.8983,-1.9387,-1.9679,-1.9845,-2.011,-2.0292,-2.0292,-2.0292,-2.0292,-2.0292,-2.0292,-2.0292,-2.0292,-2.0292,-2.0292,-2.0292,-2.0292,-2.0292,-2.0292,-2.0292,-2.0292,-2.0292,-2.0292,-2.0292,-2.0292,-2.0292,-2.0292,-2.0292,-2.0292,-2.0292,-2.0292,-2.0292,-2.0292,-2.0292,-2.0292,-2.0292,-2.0292,-2.0292,-2.0292,-2.0292,-2.0337,-2.0518,-2.0744,-2.0961,-2.1195,-2.1437,-2.1651,-2.1696,-2.1696,-2.1696,-2.1696,-2.1696,-2.1696,-2.1696,-2.1696,-2.1696,-2.1696,-2.1696,-2.1696,-2.1696,-2.1696,-2.1696,-2.1696,-2.1696,-2.1696,-2.1696,-2.1696,-2.1696,-2.1696,-2.1696,-2.1696,-2.1696,-2.1696,-2.1696,-2.1696,-2.1696,-2.1696,-2.1696,-2.1696,-2.1696,-2.1696,-2.1696,-2.1696,-2.1526,-2.1446,-2.1446,-2.1195,-2.122,-2.1602,-2.1637,-2.2002,-2.2673,-2.2699,-2.297,-2.3411,-2.3094,-2.2953,-0.825,-0.9178,-1.0075,-1.04,-1.1077,-1.1817,-1.216,-1.2454,-1.2747,-1.3039,-1.3476,-1.4282,-1.5746,-1.6575,-1.7486,-1.8754,-1.9304,-1.9671,-1.9891,-2.011,-2.0292,-2.0292,-2.0292,-2.0292,-2.0292,-2.0292,-2.0292,-2.0292,-2.0292,-2.0292,-2.0292,-2.0292,-2.0292,-2.0292,-2.0292,-2.0292,-2.0292,-2.0292,-2.0292,-2.0292,-2.0292,-2.0292,-2.0292,-2.0292,-2.0292,-2.0292,-2.0292,-2.0292,-2.0292,-2.0292,-2.0292,-2.0292,-2.0292,-2.0292,-2.0292,-2.0292,-2.0473,-2.0744,-2.0907,-2.1195,-2.1437,-2.1651,-2.1696,-2.1696,-2.1696,-2.1607,-2.1517,-2.1517,-2.1374,-2.132,-2.1642,-2.1696,-2.1696,-2.1696,-2.1696,-2.1696,-2.1696,-2.1696,-2.1696,-2.1696,-2.1696,-2.1696,-2.1696,-2.1696,-2.1696,-2.1696,-2.1696,-2.1651,-2.1517,-2.1517,-2.1472,-2.1275,-2.1419,-2.1517,-2.1517,-2.1607,-2.1651,-2.1526,-2.1437,-2.1392,-2.1392,-2.1391,-2.144,-2.16,-2.2032,-2.2421,-2.2713,-2.301,-2.3097,-2.3088,-2.2627,-2.2215,-0.8211,-0.9186,-1.005,-1.0239,-1.08,-1.1397,-1.1693,-1.1995,-1.2246,-1.2429,-1.3143,-1.4251,-1.5966,-1.6566,-1.7287,-1.8678,-1.9296,-1.9716,-1.9973,-2.0201,-2.0292,-2.0292,-2.0292,-2.0292,-2.0292,-2.0292,-2.0292,-2.0292,-2.0292,-2.0292,-2.0292,-2.0292,-2.0292,-2.0292,-2.0292,-2.0292,-2.0292,-2.0292,-2.0292,-2.0292,-2.0292,-2.0292,-2.0292,-2.0292,-2.0292,-2.0292,-2.0292,-2.0292,-2.0292,-2.0292,-2.0292,-2.0292,-2.0292,-2.0292,-2.0292,-2.0292,-2.0428,-2.0609,-2.0907,-2.1141,-2.1338,-2.1607,-2.1651,-2.1607,-2.1607,-2.1472,-2.1293,-2.1293,-2.1141,-2.1087,-2.1508,-2.1607,-2.1607,-2.1696,-2.1696,-2.1696,-2.1696,-2.1696,-2.1696,-2.1696,-2.1696,-2.1696,-2.1696,-2.1696,-2.1696,-2.1696,-2.1696,-2.1607,-2.1437,-2.1392,-2.1293,-2.1042,-2.115,-2.1293,-2.1392,-2.1526,-2.1571,-2.1392,-2.1302,-2.1302,-2.1346,-2.1375,-2.1491,-2.1728,-2.2158,-2.2383,-2.2496,-2.2665,-2.2585,-2.2274,-2.1717,-2.1191,-0.8173,-0.9171,-1.0044,-1.0262,-1.0783,-1.1305,-1.1305,-1.1527,-1.1753,-1.1959,-1.29,-1.4193,-1.5809,-1.6446,-1.7326,-1.8915,-1.9433,-1.9762,-2.0246,-2.0292,-2.0292,-2.0292,-2.0292,-2.0292,-2.0292,-2.0292,-2.0292,-2.0292,-2.0292,-2.0292,-2.0292,-2.0292,-2.0292,-2.0292,-2.0292,-2.0292,-2.0292,-2.0292,-2.0292,-2.0292,-2.0292,-2.0292,-2.0292,-2.0292,-2.0292,-2.0292,-2.0292,-2.0292,-2.0292,-2.0292,-2.0292,-2.0292,-2.0292,-2.0292,-2.0292,-2.0292,-2.0292,-2.0382,-2.0817,-2.0997,-2.1087,-2.1553,-2.1562,-2.1392,-2.1392,-2.1195,-2.0997,-2.0997,-2.0997,-2.1051,-2.1302,-2.1392,-2.1437,-2.1651,-2.1696,-2.1696,-2.1696,-2.1696,-2.1696,-2.1696,-2.1696,-2.1696,-2.1696,-2.1696,-2.1696,-2.1696,-2.1696,-2.1607,-2.1437,-2.1392,-2.1293,-2.0997,-2.0997,-2.1096,-2.1347,-2.1392,-2.1392,-2.1392,-2.115,-2.1038,-2.1165,-2.1014,-2.1234,-2.1978,-2.1708,-2.1778,-2.2072,-2.1573,-2.1173,-2.0873,-2.0344,-1.9761,-0.798,-0.9056,-1.0044,-1.0262,-1.0783,-1.1305,-1.1305,-1.1348,-1.1581,-1.2155,-1.2662,-1.3464,-1.502,-1.5729,-1.6588,-1.8333,-1.8858,-1.9296,-1.9936,-1.9891,-1.9853,-2.0019,-2.0019,-2.011,-2.0292,-2.0292,-2.0292,-2.0292,-2.0292,-2.0292,-2.0292,-2.0292,-2.0292,-2.0292,-2.0292,-2.0292,-2.0292,-2.0292,-2.0292,-2.0292,-2.0292,-2.0292,-2.0292,-2.0292,-2.0292,-2.0292,-2.0292,-2.0292,-2.0292,-2.0292,-2.0292,-2.0292,-2.0292,-2.0292,-2.0292,-2.0292,-2.0428,-2.06,-2.0907,-2.0997,-2.1042,-2.1383,-2.1338,-2.1141,-2.1141,-2.0961,-2.0781,-2.0781,-2.0645,-2.0564,-2.0835,-2.0934,-2.1015,-2.1562,-2.1696,-2.1696,-2.1696,-2.1696,-2.1696,-2.1696,-2.1696,-2.1696,-2.1696,-2.1696,-2.1696,-2.1696,-2.1696,-2.1553,-2.1186,-2.0835,-2.0609,-2.051,-2.069,-2.0826,-2.088,-2.1051,-2.106,-2.0934,-2.0654,-2.0637,-2.0895,-2.0972,-2.1048,-2.1131,-2.1294,-2.1263,-2.0995,-2.079,-2.049,-2.0042,-1.9457,-1.8885,-0.7984,-0.9076,-1.0065,-1.0368,-1.0893,-1.1305,-1.1305,-1.1305,-1.1494,-1.2106,-1.2357,-1.2905,-1.4436,-1.5205,-1.6157,-1.7849,-1.8434,-1.8912,-1.9517,-1.9525,-1.9525,-1.9745,-1.9791,-1.9891,-2.011,-2.0073,-2.0073,-2.0155,-2.0155,-2.0155,-2.0155,-2.0155,-2.011,-2.0027,-2.0027,-2.0073,-2.0155,-2.0155,-2.0201,-2.0292,-2.0292,-2.0292,-2.0292,-2.0292,-2.0292,-2.0292,-2.0292,-2.0292,-2.0292,-2.0292,-2.0292,-2.0292,-2.0292,-2.0292,-2.0292,-2.0292,-2.0382,-2.0564,-2.0781,-2.0871,-2.0916,-2.115,-2.1105,-2.0871,-2.0871,-2.0736,-2.0518,-2.0518,-2.0428,-2.0382,-2.0654,-2.0699,-2.0826,-2.1311,-2.149,-2.1579,-2.1562,-2.1651,-2.1696,-2.1696,-2.1696,-2.1696,-2.1696,-2.1696,-2.1696,-2.1696,-2.1553,-2.132,-2.1042,-2.06,-2.0292,-2.0292,-2.0428,-2.0564,-2.0699,-2.0826,-2.0781,-2.0564,-2.0292,-2.0163,-2.0241,-2.0424,-2.0582,-2.0676,-2.0652,-2.0439,-1.996,-1.9761,-1.9406,-1.884,-1.837,-1.7845,-0.8122,-0.9178,-1.0125,-1.0583,-1.0997,-1.1305,-1.1305,-1.1305,-1.1446,-1.1873,-1.1989,-1.2437,-1.3917,-1.4818,-1.5812,-1.7343,-1.8017,-1.8535,-1.905,-1.905,-1.9142,-1.9409,-1.9479,-1.9533,-1.9791,-1.9625,-1.9625,-1.9837,-1.9837,-1.9837,-1.9837,-1.9791,-1.9708,-1.9487,-1.9496,-1.9571,-1.9791,-1.9837,-2.0019,-2.0246,-2.0292,-2.0292,-2.0292,-2.0292,-2.0292,-2.0292,-2.0292,-2.0292,-2.0292,-2.0292,-2.0292,-2.0292,-2.0292,-2.0292,-2.0292,-2.0292,-2.0337,-2.0382,-2.0609,-2.0699,-2.0744,-2.0907,-2.0826,-2.0654,-2.0654,-2.0473,-2.0292,-2.0292,-2.0292,-2.0382,-2.0609,-2.0654,-2.069,-2.0881,-2.1141,-2.1338,-2.1338,-2.1517,-2.1642,-2.1642,-2.1642,-2.1642,-2.1642,-2.1642,-2.1642,-2.1642,-2.1275,-2.0952,-2.0952,-2.06,-2.0292,-2.0292,-2.0292,-2.0382,-2.0654,-2.0654,-2.0518,-2.0201,-1.9928,-1.9605,-1.9293,-1.956,-1.9881,-2.0313,-1.9828,-1.9354,-1.902,-1.852,-1.8003,-1.7529,-1.7219,-1.6808,-0.7914,-0.9197,-1.0312,-1.0618,-1.0997,-1.1305,-1.1305,-1.1305,-1.1402,-1.1684,-1.1899,-1.231,-1.3262,-1.4214,-1.5283,-1.6598,-1.7088,-1.7584,-1.8218,-1.7986,-1.7885,-1.8357,-1.8411,-1.8596,-1.9012,-1.9012,-1.9058,-1.9333,-1.9333,-1.9333,-1.9333,-1.915,-1.8912,-1.8673,-1.8673,-1.8765,-1.9012,-1.9463,-1.9783,-1.9973,-2.0201,-2.0292,-2.0292,-2.0292,-2.0292,-2.0292,-2.0292,-2.0292,-2.0292,-2.0292,-2.0292,-2.0292,-2.0292,-2.0292,-2.0292,-2.0292,-2.0428,-2.0609,-2.0699,-2.0699,-2.0699,-2.0744,-2.0609,-2.0382,-2.0382,-2.0337,-2.0292,-2.0292,-2.0292,-2.0292,-2.0382,-2.0382,-2.0382,-2.0464,-2.0798,-2.1086,-2.1096,-2.1141,-2.1132,-2.1132,-2.1132,-2.1132,-2.1132,-2.1132,-2.1132,-2.1132,-2.0916,-2.0736,-2.0736,-2.0473,-2.0292,-2.0292,-2.0292,-2.0337,-2.0382,-2.0201,-1.9882,-1.9463,-1.8819,-1.8369,-1.8142,-1.8614,-1.8885,-1.8871,-1.8513,-1.8101,-1.7641,-1.7483,-1.7272,-1.6889,-1.6636,-1.643,-0.7718,-0.8851,-0.9983,-1.0682,-1.1089,-1.1305,-1.1305,-1.1305,-1.1354,-1.1494,-1.1684,-1.2063,-1.2689,-1.3655,-1.4658,-1.5697,-1.6311,-1.6741,-1.7138,-1.7145,-1.7239,-1.7512,-1.7652,-1.7846,-1.8257,-1.8172,-1.8265,-1.8635,-1.8681,-1.8681,-1.8681,-1.8404,-1.8118,-1.7731,-1.7738,-1.7924,-1.8257,-1.8673,-1.9096,-1.9563,-1.9691,-1.9837,-1.9982,-2.0209,-2.0292,-2.0292,-2.0292,-2.0292,-2.0292,-2.0292,-2.0292,-2.0292,-2.0292,-2.0292,-2.0292,-2.0292,-2.0382,-2.0518,-2.0518,-2.0518,-2.0518,-2.0518,-2.0428,-2.0292,-2.0292,-2.0292,-2.0292,-2.0292,-2.0292,-2.0292,-2.0292,-2.0292,-2.0292,-2.0292,-2.0581,-2.0861,-2.0871,-2.0907,-2.0997,-2.0997,-2.0997,-2.0997,-2.0997,-2.0997,-2.0997,-2.0997,-2.0826,-2.0699,-2.0699,-2.0473,-2.0292,-2.0292,-2.0292,-2.0292,-2.0292,-1.9973,-1.9554,-1.905,-1.8218,-1.7618,-1.7414,-1.7335,-1.7482,-1.7845,-1.7523,-1.7153,-1.6749,-1.6749,-1.659,-1.6311,-1.6158,-1.6111,-0.739,-0.8576,-0.9729,-1.074,-1.1138,-1.1305,-1.1305,-1.1305,-1.1305,-1.1305,-1.1543,-1.1882,-1.2273,-1.3158,-1.4099,-1.4844,-1.5493,-1.5961,-1.6001,-1.6346,-1.6588,-1.6513,-1.6756,-1.7037,-1.7271,-1.7138,-1.7286,-1.7807,-1.7846,-1.7846,-1.7846,-1.7606,-1.7225,-1.6756,-1.6709,-1.6943,-1.7458,-1.7746,-1.8265,-1.895,-1.9004,-1.9196,-1.9487,-1.9837,-2.011,-2.0164,-2.0201,-2.0246,-2.0246,-2.0292,-2.0292,-2.0292,-2.0292,-2.0292,-2.0292,-2.0292,-2.0292,-2.0292,-2.0292,-2.0292,-2.0292,-2.0292,-2.0292,-2.0292,-2.0292,-2.0292,-2.0292,-2.0292,-2.0292,-2.0292,-2.0292,-2.0292,-2.0292,-2.0292,-2.0473,-2.0654,-2.0654,-2.0781,-2.0862,-2.0862,-2.0862,-2.0862,-2.0862,-2.0862,-2.0862,-2.0862,-2.0736,-2.0654,-2.0654,-2.0428,-2.0292,-2.0292,-2.0292,-2.0292,-2.0246,-1.9783,-1.9279,-1.8635,-1.7652,-1.6998,-1.6837,-1.6161,-1.6119,-1.6955,-1.6683,-1.6471,-1.6217,-1.6217,-1.6111,-1.5891,-1.5891,-1.5891,-0.6891,-0.8632,-1.0303,-1.0868,-1.1138,-1.1305,-1.1305,-1.1305,-1.1305,-1.1305,-1.1684,-1.2076,-1.2119,-1.2915,-1.3725,-1.4304,-1.47,-1.4994,-1.5201,-1.5112,-1.5022,-1.4968,-1.5248,-1.548,-1.5669,-1.5866,-1.6204,-1.6777,-1.6817,-1.6817,-1.6817,-1.6574,-1.6143,-1.5622,-1.5622,-1.5859,-1.6379,-1.6842,-1.7358,-1.7924,-1.8295,-1.8673,-1.892,-1.8966,-1.925,-1.9716,-1.9891,-1.9928,-1.9973,-2.0201,-2.0292,-2.0292,-2.0292,-2.0292,-2.0292,-2.0292,-2.0292,-2.0292,-2.0292,-2.0292,-2.0292,-2.0292,-2.0292,-2.0292,-2.0292,-2.0292,-2.0292,-2.0292,-2.0292,-2.0292,-2.0292,-2.0292,-2.0292,-2.0292,-2.0337,-2.0337,-2.0337,-2.0382,-2.0382,-2.0382,-2.0382,-2.0382,-2.0382,-2.0382,-2.0382,-2.0382,-2.0382,-2.0337,-2.0337,-2.0337,-2.0292,-2.0292,-2.0292,-2.0201,-1.9973,-1.9509,-1.8858,-1.7924,-1.6889,-1.6272,-1.6035,-1.5506,-1.5457,-1.6039,-1.6051,-1.5998,-1.5945,-1.5945,-1.5945,-1.5891,-1.5891,-1.5891,-0.6508,-0.8202,-0.9632,-1.0091,-1.0577,-1.0939,-1.1122,-1.1214,-1.1305,-1.1305,-1.1732,-1.212,-1.2119,-1.2759,-1.3326,-1.3593,-1.3973,-1.4256,-1.4202,-1.4346,-1.4442,-1.425,-1.4484,-1.4675,-1.4771,-1.4873,-1.5112,-1.5493,-1.5676,-1.5771,-1.5771,-1.5635,-1.5404,-1.5016,-1.5016,-1.5207,-1.5594,-1.5906,-1.6379,-1.7091,-1.7559,-1.7839,-1.7978,-1.8118,-1.8542,-1.9158,-1.9379,-1.9608,-1.9737,-1.9973,-2.0155,-2.0292,-2.0292,-2.0292,-2.0292,-2.0292,-2.0292,-2.0292,-2.0292,-2.0292,-2.0292,-2.0292,-2.0292,-2.0292,-2.0292,-2.0292,-2.0292,-2.0292,-2.0292,-2.0292,-2.0292,-2.0292,-2.0292,-2.0292,-2.0292,-2.0292,-2.0292,-2.0292,-2.0292,-2.0292,-2.0292,-2.0292,-2.0292,-2.0292,-2.0292,-2.0292,-2.0292,-2.0292,-2.0292,-2.0292,-2.0292,-2.0292,-2.0155,-1.9973,-1.9737,-1.905,-1.821,-1.7311,-1.6332,-1.5741,-1.5676,-1.5303,-1.5354,-1.5879,-1.5891,-1.5891,-1.5891,-1.5891,-1.5891,-1.5891,-1.5891,-1.5891,-0.6098,-0.7566,-0.8746,-0.9205,-0.9899,-1.0519,-1.0842,-1.1073,-1.1262,-1.1305,-1.1684,-1.2026,-1.2071,-1.2603,-1.3023,-1.3109,-1.3437,-1.3624,-1.3443,-1.3727,-1.3913,-1.3667,-1.3859,-1.401,-1.401,-1.4058,-1.4202,-1.4496,-1.4675,-1.4813,-1.4813,-1.4783,-1.4688,-1.44,-1.44,-1.455,-1.4885,-1.5166,-1.5629,-1.6298,-1.6669,-1.6857,-1.6904,-1.7131,-1.7505,-1.8079,-1.8681,-1.9042,-1.9317,-1.96,-1.9882,-2.0119,-2.0119,-2.0119,-2.011,-2.0065,-2.0019,-2.0019,-1.9928,-1.9928,-1.9928,-1.9928,-1.9965,-2.0019,-2.0019,-2.0065,-2.0119,-2.0119,-2.0164,-2.0201,-2.0201,-2.0246,-2.0292,-2.0292,-2.0292,-2.0292,-2.0292,-2.0292,-2.0292,-2.0292,-2.0292,-2.0292,-2.0292,-2.0292,-2.0292,-2.0292,-2.0292,-2.0292,-2.0292,-2.0246,-2.0201,-2.0201,-1.9928,-1.9608,-1.9317,-1.845,-1.7559,-1.6749,-1.5859,-1.536,-1.5519,-1.5253,-1.5354,-1.5879,-1.5891,-1.5891,-1.5891,-1.5891,-1.5891,-1.5891,-1.5891,-1.5891,-0.5507,-0.677,-0.799,-0.8432,-0.9244,-1.0058,-1.0519,-1.0842,-1.1073,-1.1262,-1.1543,-1.1788,-1.2066,-1.2495,-1.2856,-1.3076,-1.3136,-1.3147,-1.3098,-1.3147,-1.3098,-1.2856,-1.305,-1.3147,-1.3147,-1.3389,-1.363,-1.3908,-1.395,-1.395,-1.395,-1.395,-1.3859,-1.3588,-1.3539,-1.3823,-1.4346,-1.4838,-1.5213,-1.5486,-1.5486,-1.5629,-1.5879,-1.5872,-1.592,-1.6015,-1.752,-1.8265,-1.8481,-1.9042,-1.9379,-1.9633,-1.9633,-1.9633,-1.9633,-1.9333,-1.9279,-1.9234,-1.8966,-1.8874,-1.8874,-1.8874,-1.9058,-1.9279,-1.9279,-1.9433,-1.9633,-1.9633,-1.9762,-1.9928,-1.9928,-2.011,-2.0292,-2.0292,-2.0292,-2.0292,-2.0292,-2.0292,-2.0292,-2.0292,-2.0292,-2.0292,-2.0292,-2.0292,-2.0292,-2.0292,-2.0292,-2.0292,-2.0292,-2.0065,-1.9928,-1.9928,-1.9517,-1.9042,-1.8527,-1.7792,-1.7044,-1.6285,-1.5547,-1.5227,-1.5469,-1.5253,-1.5354,-1.5879,-1.5891,-1.5891,-1.5891,-1.5891,-1.5891,-1.5891,-1.5891,-1.5891,-0.4239,-0.527,-0.6422,-0.6987,-0.7994,-0.896,-0.9561,-1.0221,-1.0799,-1.1073,-1.1402,-1.1772,-1.2072,-1.2363,-1.2628,-1.2866,-1.2905,-1.2905,-1.2905,-1.2905,-1.2856,-1.2813,-1.2861,-1.2905,-1.2905,-1.3007,-1.3104,-1.3195,-1.3286,-1.3383,-1.3383,-1.3528,-1.3582,-1.3491,-1.3491,-1.3588,-1.3775,-1.4166,-1.4454,-1.4675,-1.4873,-1.507,-1.5363,-1.5363,-1.5363,-1.541,-1.6055,-1.6749,-1.7498,-1.8017,-1.8481,-1.8819,-1.8689,-1.8735,-1.8819,-1.8589,-1.8496,-1.8504,-1.8365,-1.8365,-1.8365,-1.8365,-1.8411,-1.8496,-1.8496,-1.8635,-1.8819,-1.8819,-1.9004,-1.9196,-1.9196,-1.9244,-1.9331,-1.9355,-1.9333,-1.9333,-1.9333,-1.97,-2.0019,-2.0019,-1.9936,-1.9891,-2.0019,-2.0019,-2.0019,-2.0019,-2.0019,-1.9928,-1.9646,-1.9509,-1.9325,-1.8996,-1.8681,-1.821,-1.7498,-1.6936,-1.6292,-1.5547,-1.507,-1.4936,-1.5228,-1.5157,-1.5354,-1.5879,-1.5891,-1.5891,-1.5891,-1.5891,-1.5891,-1.5891,-1.5891,-1.5891,-0.327,-0.4119,-0.5055,-0.5761,-0.6786,-0.7804,-0.8567,-0.9401,-1.0154,-1.0549,-1.0965,-1.1338,-1.1755,-1.2014,-1.2292,-1.2753,-1.2813,-1.2813,-1.2813,-1.2813,-1.2813,-1.2813,-1.2813,-1.2813,-1.2813,-1.2813,-1.2813,-1.2813,-1.291,-1.3001,-1.3001,-1.3152,-1.3249,-1.3249,-1.3346,-1.3394,-1.3394,-1.3738,-1.3979,-1.416,-1.4448,-1.464,-1.4838,-1.4838,-1.4838,-1.4838,-1.5064,-1.5669,-1.6567,-1.699,-1.7498,-1.7924,-1.766,-1.7746,-1.7878,-1.7559,-1.7466,-1.7466,-1.738,-1.7333,-1.7333,-1.7333,-1.738,-1.7466,-1.7466,-1.7699,-1.7917,-1.7917,-1.8156,-1.845,-1.845,-1.851,-1.8563,-1.8589,-1.8589,-1.855,-1.855,-1.9058,-1.9517,-1.9517,-1.9433,-1.9387,-1.9517,-1.9517,-1.9517,-1.9517,-1.9463,-1.9271,-1.895,-1.8812,-1.8535,-1.8064,-1.7746,-1.7333,-1.6567,-1.6103,-1.5588,-1.4981,-1.4694,-1.4698,-1.4956,-1.5065,-1.5312,-1.5753,-1.5843,-1.5891,-1.5891,-1.5891,-1.5891,-1.5891,-1.5891,-1.5891,0.0,0.0,0.0,-0.4752,-0.5649,-0.6586,-0.7533,-0.8336,-0.9056,-0.9733,-1.0091,-1.049,-1.114,-1.1497,-1.1879,-1.2635,-1.2759,-1.2813,-1.2813,-1.2813,-1.2813,-1.2813,-1.2813,-1.2813,-1.2813,-1.2813,-1.2813,-1.2813,-1.2813,-1.2813,-1.2813,-1.2813,-1.2813,-1.2813,-1.3007,-1.3098,-1.3098,-1.3636,-1.3883,-1.3883,-1.416,-1.4298,-1.4298,-1.4298,-1.4298,-1.4298,-1.4592,-1.507,-1.5778,-1.6055,-1.6473,-1.6951,-1.6676,-1.6723,-1.6897,-1.6379,-1.619,-1.6143,-1.5872,-1.5784,-1.5784,-1.5784,-1.5967,-1.619,-1.619,-1.652,-1.6943,-1.6943,-1.7271,-1.7638,-1.7638,-1.7839,-1.8031,-1.8027,-1.8045,-1.804,-1.804,-1.8411,-1.8735,-1.8781,-1.8781,-1.8781,-1.8781,-1.8781,-1.8781,-1.8781,-1.8535,-1.8342,-1.8334,-1.7924,-1.7552,-1.7279,-1.6817,-1.6346,-1.5825,-1.5363,-1.4981,-1.4694,-1.4442,-1.4425,-1.4702,-1.4968,-1.5234,-1.5493,-1.5759,-1.5891,-1.5891,-1.5891,-1.5891,-1.5891,-1.5891,-1.5891,-0.1749,0.0,0.0,0.0,0.0,0.0,-0.6399,-0.7377,-0.8268,-0.8792,-0.9231,-0.9708,-1.0366,-1.0552,-1.0894,-1.1808,-1.2419,-1.2813,-1.2813,-1.2813,-1.2813,-1.2813,-1.2813,-1.2813,-1.2813,-1.2813,-1.2813,-1.2813,-1.2813,-1.2813,-1.2813,-1.2813,-1.2813,-1.2813,-1.2861,-1.2856,-1.2856,-1.3346,-1.3588,-1.3636,-1.4064,-1.4298,-1.4298,-1.4298,-1.4298,-1.4298,-1.4394,-1.4538,-1.4729,-1.5213,-1.5588,-1.5818,-1.5594,-1.5635,-1.5812,-1.5499,-1.5404,-1.541,-1.5315,-1.5267,-1.5267,-1.5267,-1.5363,-1.5404,-1.5404,-1.5588,-1.5859,-1.5859,-1.6103,-1.6332,-1.6331,-1.6405,-1.6461,-1.6449,-1.6455,-1.644,-1.644,-1.6534,-1.6904,-1.7831,-1.7839,-1.7792,-1.7978,-1.8017,-1.8017,-1.8017,-1.7792,-1.7466,-1.7138,-1.6803,-1.6426,-1.5954,-1.5818,-1.5534,-1.507,-1.4885,-1.4688,-1.4442,-1.4346,-1.4425,-1.4702,-1.4968,-1.5234,-1.5493,-1.5759,-1.5891,-1.5891,-1.5891,-1.5891,-1.5891,-1.5891,-1.5891,0.0,0.0,0.0,0.0,0.0,0.0,-0.5335,-0.6177,-0.6976,-0.7507,-0.7992,-0.8508,-0.9096,-0.9402,-0.9831,-1.0566,-1.1322,-1.197,-1.2565,-1.2613,-1.2662,-1.2813,-1.2813,-1.2813,-1.2813,-1.2813,-1.2813,-1.2813,-1.2813,-1.2813,-1.2813,-1.2813,-1.2813,-1.2813,-1.2813,-1.2813,-1.2813,-1.3147,-1.3394,-1.3491,-1.3919,-1.4202,-1.4298,-1.4298,-1.4298,-1.4298,-1.4298,-1.4298,-1.4346,-1.464,-1.4879,-1.5112,-1.4879,-1.4927,-1.5064,-1.4831,-1.479,-1.479,-1.479,-1.479,-1.479,-1.479,-1.479,-1.479,-1.479,-1.4927,-1.5112,-1.5112,-1.5309,-1.5493,-1.552,-1.552,-1.5506,-1.551,-1.5497,-1.5512,-1.5506,-1.5506,-1.5784,-1.6716,-1.6763,-1.6716,-1.6904,-1.6897,-1.6897,-1.6897,-1.6662,-1.6426,-1.615,-1.5872,-1.5588,-1.5159,-1.5112,-1.4968,-1.4592,-1.4544,-1.4496,-1.4298,-1.4298,-1.437,-1.4533,-1.4908,-1.5179,-1.533,-1.5698,-1.5891,-1.5891,-1.5891,-1.5891,-1.5891,-1.5891,-1.5891,0.0,0.0,0.0,0.0,-0.2739,0.0,-0.4304,-0.4882,-0.5413,-0.6077,-0.6564,-0.705,-0.7507,-0.8064,-0.8597,-0.9112,-0.9713,-1.0614,-1.2019,-1.2273,-1.2419,-1.2613,-1.2716,-1.2764,-1.2764,-1.2759,-1.2813,-1.2813,-1.2813,-1.2813,-1.2813,-1.2813,-1.2813,-1.2813,-1.2813,-1.2813,-1.2813,-1.3001,-1.3195,-1.3443,-1.3738,-1.4022,-1.425,-1.4298,-1.4298,-1.4298,-1.4298,-1.4298,-1.4298,-1.4298,-1.4442,-1.464,-1.4394,-1.4442,-1.464,-1.4394,-1.4298,-1.4298,-1.4298,-1.4298,-1.4298,-1.4298,-1.4298,-1.4298,-1.4298,-1.4496,-1.464,-1.464,-1.4838,-1.4994,-1.5006,-1.5035,-1.5016,-1.5,-1.5013,-1.5006,-1.4994,-1.5035,-1.5124,-1.5547,-1.5683,-1.5737,-1.5737,-1.5737,-1.5737,-1.5737,-1.5493,-1.5343,-1.5343,-1.5118,-1.4939,-1.4688,-1.464,-1.4544,-1.4346,-1.4298,-1.4298,-1.4298,-1.4298,-1.4298,-1.4298,-1.4817,-1.5107,-1.5107,-1.5626,-1.5891,-1.5891,-1.5891,-1.5891,-1.5891,-1.5891,-1.5891,0.0,0.0,0.0,0.0,-0.1885,0.0,-0.3323,-0.3855,-0.434,-0.4926,-0.5416,-0.5852,-0.629,-0.656,-0.7025,-0.7756,-0.8159,-0.9001,-1.0877,-1.1487,-1.1785,-1.1829,-1.2224,-1.2467,-1.2467,-1.2662,-1.2813,-1.2813,-1.2813,-1.2813,-1.2813,-1.2813,-1.2813,-1.2813,-1.2813,-1.2813,-1.2813,-1.3001,-1.3147,-1.3195,-1.369,-1.3931,-1.3979,-1.4208,-1.4298,-1.4298,-1.4298,-1.4298,-1.4298,-1.4298,-1.4346,-1.4394,-1.4346,-1.4346,-1.4394,-1.4298,-1.4298,-1.4298,-1.4298,-1.4298,-1.4298,-1.4298,-1.4298,-1.4298,-1.4298,-1.4346,-1.4394,-1.4394,-1.4442,-1.4442,-1.4448,-1.4442,-1.4442,-1.4448,-1.4448,-1.4448,-1.4442,-1.4442,-1.449,-1.4586,-1.4927,-1.5226,-1.5226,-1.5226,-1.5226,-1.5226,-1.5029,-1.4831,-1.4831,-1.4586,-1.4448,-1.4394,-1.4394,-1.4346,-1.4298,-1.4298,-1.4298,-1.4298,-1.4298,-1.4298,-1.4298,-1.4817,-1.5107,-1.5107,-1.5626,-1.5891,-1.5891,-1.5891,-1.5891,-1.5891,-1.5891,-1.5891,0.0,0.0,0.0,-0.0179,-0.0718,0.0,0.0,-0.2601,-0.3045,-0.3674,-0.4166,-0.4582,-0.4897,-0.5177,-0.5616,-0.6247,-0.6647,-0.7286,-0.8516,-0.979,-1.0645,-1.0792,-1.1287,-1.1639,-1.178,-1.2029,-1.2273,-1.237,-1.2419,-1.2467,-1.2565,-1.2613,-1.2662,-1.2813,-1.2813,-1.2813,-1.2813,-1.291,-1.3001,-1.3098,-1.3394,-1.3636,-1.3883,-1.3877,-1.3968,-1.4118,-1.4118,-1.4118,-1.4112,-1.425,-1.4298,-1.4298,-1.4298,-1.4298,-1.4298,-1.4298,-1.4298,-1.4298,-1.4298,-1.4298,-1.4298,-1.4298,-1.4298,-1.4298,-1.4298,-1.4298,-1.4298,-1.4298,-1.4298,-1.4298,-1.4298,-1.4298,-1.4298,-1.4298,-1.4298,-1.4298,-1.4298,-1.4298,-1.4298,-1.4298,-1.4544,-1.4688,-1.4688,-1.4688,-1.4688,-1.4688,-1.4592,-1.4496,-1.4496,-1.4394,-1.4298,-1.4298,-1.4298,-1.4298,-1.4298,-1.4298,-1.4298,-1.4298,-1.4298,-1.4298,-1.4298,-1.469,-1.5034,-1.5294,-1.5686,-1.5891,-1.5891,-1.5891,-1.5891,-1.5891,-1.5891,-1.5891,0.0,0.0,0.0,0.0,0.0,-0.0045,0.0,0.0,0.0,-0.2465,-0.3004,-0.3406,-0.3583,-0.395,-0.4322,-0.4706,-0.5144,-0.5583,-0.6028,-0.7642,-0.8977,-0.9547,-1.0132,-1.0605,-1.0949,-1.1243,-1.1541,-1.1731,-1.1785,-1.1883,-1.2175,-1.2224,-1.237,-1.2613,-1.2667,-1.2667,-1.2667,-1.2716,-1.2807,-1.2953,-1.305,-1.3346,-1.3738,-1.3588,-1.3636,-1.3835,-1.3835,-1.3835,-1.3931,-1.4112,-1.425,-1.4298,-1.4298,-1.4298,-1.4298,-1.4298,-1.4298,-1.4298,-1.4298,-1.4298,-1.4298,-1.4298,-1.4298,-1.4298,-1.4298,-1.4298,-1.4298,-1.4298,-1.4298,-1.4298,-1.4298,-1.4298,-1.4298,-1.4298,-1.4298,-1.4298,-1.4298,-1.4298,-1.4298,-1.4298,-1.4298,-1.4298,-1.4298,-1.4298,-1.4298,-1.4298,-1.4298,-1.4298,-1.4298,-1.4298,-1.4298,-1.4298,-1.4298,-1.4298,-1.4298,-1.4298,-1.4298,-1.4298,-1.4298,-1.4298,-1.4298,-1.457,-1.4962,-1.5487,-1.5704,-1.5843,-1.5891,-1.5891,-1.5891,-1.5891,-1.5891,-1.5891,0.0,0.0,0.0,0.0,0.1121,0.0,0.0,0.0,-0.0762,-0.1435,0.0,-0.2423,-0.2603,0.0,0.0,-0.3224,-0.3701,-0.4055,-0.4175,-0.5154,-0.6446,-0.7952,-0.8875,-0.9562,-1.01,-1.06,-1.09,-1.0949,-1.0953,-1.1047,-1.134,-1.1536,-1.1834,-1.2078,-1.2078,-1.2078,-1.2078,-1.2322,-1.2467,-1.2467,-1.2905,-1.3147,-1.3201,-1.3394,-1.3539,-1.3539,-1.3539,-1.3684,-1.3883,-1.3931,-1.407,-1.4298,-1.4298,-1.4298,-1.4298,-1.4298,-1.4298,-1.4298,-1.4298,-1.4298,-1.4298,-1.4298,-1.4298,-1.4298,-1.4298,-1.4298,-1.4298,-1.4298,-1.4298,-1.4298,-1.4298,-1.4298,-1.4298,-1.4298,-1.4298,-1.4298,-1.4298,-1.4298,-1.4298,-1.4298,-1.4298,-1.4298,-1.4298,-1.4298,-1.4298,-1.4298,-1.4298,-1.4298,-1.4298,-1.4298,-1.4298,-1.4298,-1.4298,-1.4298,-1.4298,-1.4298,-1.4298,-1.4298,-1.4298,-1.4298,-1.4298,-1.457,-1.4962,-1.5487,-1.5529,-1.5656,-1.5891,-1.5891,-1.5891,-1.5891,-1.5891,-1.5891,0.0,0.0,0.0,0.0,0.0,0.0,0.1166,0.0,0.0448,0.0,0.0,0.0,0.0,0.0,0.0,0.0,-0.2361,-0.2549,-0.3029,-0.3481,-0.4424,-0.6233,-0.723,-0.8031,-0.8753,-0.9312,-0.9616,-0.9616,-0.9616,-0.9813,-1.0252,-1.0547,-1.089,-1.1292,-1.1438,-1.1541,-1.1541,-1.1785,-1.1932,-1.1927,-1.2467,-1.2759,-1.291,-1.3055,-1.3152,-1.3249,-1.3249,-1.3443,-1.369,-1.3835,-1.407,-1.4298,-1.4298,-1.4298,-1.4298,-1.4298,-1.4298,-1.4298,-1.4298,-1.4298,-1.4298,-1.4298,-1.4298,-1.4298,-1.4298,-1.4298,-1.4298,-1.4298,-1.4298,-1.4298,-1.4298,-1.4298,-1.4298,-1.4298,-1.4298,-1.4298,-1.4298,-1.4298,-1.4298,-1.4298,-1.4298,-1.4298,-1.4298,-1.4298,-1.4298,-1.4298,-1.4298,-1.4298,-1.4298,-1.4298,-1.4298,-1.4298,-1.4298,-1.4298,-1.4298,-1.4298,-1.4298,-1.4298,-1.4298,-1.4298,-1.4298,-1.457,-1.4823,-1.504,-1.5342,-1.5553,-1.5662,-1.5813,-1.5891,-1.5891,-1.5891,-1.5891,0.2829,0.0,0.0,0.0,0.0,0.0,0.0,0.0,0.0,0.0,0.0314,0.0,0.0,0.0,0.0,0.0,0.0,-0.1121,-0.1747,-0.2041,-0.286,-0.4755,-0.5852,-0.6743,-0.7458,-0.7967,-0.8231,-0.8273,-0.8276,-0.8471,-0.9015,-0.9361,-0.9809,-1.0355,-1.0605,-1.0752,-1.0752,-1.1047,-1.1194,-1.1292,-1.1834,-1.2273,-1.2565,-1.2667,-1.2759,-1.2905,-1.3007,-1.3152,-1.3346,-1.3642,-1.3925,-1.4208,-1.425,-1.4298,-1.4298,-1.4298,-1.4298,-1.4298,-1.4298,-1.4298,-1.4298,-1.4298,-1.4298,-1.4298,-1.4298,-1.4298,-1.4298,-1.4298,-1.4298,-1.4298,-1.4298,-1.4298,-1.4298,-1.4298,-1.4298,-1.4298,-1.4298,-1.4298,-1.4298,-1.4298,-1.4298,-1.4298,-1.4298,-1.4298,-1.4298,-1.4298,-1.4298,-1.4298,-1.4298,-1.4298,-1.4298,-1.4298,-1.4298,-1.4298,-1.4298,-1.4298,-1.4298,-1.4298,-1.4298,-1.4298,-1.4298,-1.4491,-1.4636,-1.4714,-1.5089,-1.5318,-1.539,-1.5584,-1.5674,-1.568,-1.5819,-1.5891,0.0,0.0,0.0,0.2875,0.0,0.0,0.0,0.0,0.2019,0.0,0.0,0.0,0.0,0.0,0.0,0.0,0.0,0.0,0.0,-0.0717,-0.1805,-0.3641,-0.5029,-0.5989,-0.6298,-0.6606,-0.6804,-0.6872,-0.688,-0.708,-0.763,-0.818,-0.8676,-0.9217,-0.9521,-0.9628,-0.9628,-0.992,-1.0167,-1.0462,-1.0998,-1.1487,-1.2029,-1.2273,-1.2419,-1.2419,-1.271,-1.2813,-1.2861,-1.3298,-1.369,-1.3931,-1.4208,-1.4298,-1.4298,-1.4298,-1.4298,-1.4298,-1.4298,-1.4298,-1.4298,-1.4298,-1.4298,-1.4298,-1.4298,-1.4298,-1.4298,-1.4298,-1.4298,-1.4298,-1.4298,-1.4298,-1.4298,-1.4298,-1.4298,-1.4298,-1.4298,-1.4298,-1.4298,-1.4298,-1.4298,-1.4298,-1.4298,-1.4298,-1.4298,-1.4298,-1.4298,-1.4298,-1.4298,-1.4298,-1.4298,-1.4298,-1.4298,-1.4298,-1.4298,-1.4298,-1.4298,-1.4298,-1.4298,-1.4298,-1.4298,-1.4304,-1.4437,-1.4708,-1.4733,-1.4865,-1.5119,-1.5125,-1.5137,-1.5143,-1.565,-1.5891,0.0,0.0,0.292,0.292,0.0,0.0,0.0,0.0,0.0,0.0,0.0,0.0,0.0,0.0,0.0,0.0,0.0,0.0,0.0,0.0224,-0.0449,-0.1447,-0.3129,-0.4416,-0.4938,-0.5393,-0.5743,-0.5927,-0.5993,-0.6184,-0.6539,-0.7039,-0.7487,-0.7882,-0.8333,-0.8535,-0.8535,-0.8829,-0.9072,-0.9369,-1.0055,-1.0699,-1.1243,-1.1683,-1.198,-1.2127,-1.2224,-1.237,-1.2565,-1.271,-1.3001,-1.3394,-1.3485,-1.3727,-1.407,-1.425,-1.4298,-1.4298,-1.4298,-1.4298,-1.4298,-1.4298,-1.4298,-1.4298,-1.4298,-1.4298,-1.4298,-1.4298,-1.4298,-1.4298,-1.4298,-1.4298,-1.4298,-1.4298,-1.4298,-1.4298,-1.4298,-1.4298,-1.4298,-1.4298,-1.4298,-1.4298,-1.4298,-1.4298,-1.4298,-1.4298,-1.4298,-1.4298,-1.4298,-1.4298,-1.4298,-1.4298,-1.4298,-1.4298,-1.4298,-1.4298,-1.4298,-1.4298,-1.4298,-1.4298,-1.4298,-1.4298,-1.434,-1.4437,-1.4624,-1.4757,-1.4853,-1.5022,-1.5107,-1.5113,-1.5076,-1.5197,0.292,0.292,0.0,0.292,0.292,0.0,0.292,0.0,0.2829,0.0,0.0,0.0,0.0,0.0,0.0,0.0,0.0,0.0,0.0,0.1166,0.0673,0.0045,-0.154,-0.2852,-0.3524,-0.4074,-0.4572,-0.4946,-0.5083,-0.5338,-0.5691,-0.6139,-0.6539,-0.6886,-0.7338,-0.764,-0.7739,-0.7885,-0.8131,-0.8375,-0.9118,-0.971,-1.0256,-1.0801,-1.1145,-1.1292,-1.1389,-1.1487,-1.159,-1.1883,-1.2175,-1.2462,-1.2759,-1.3098,-1.3545,-1.4016,-1.4202,-1.4298,-1.4298,-1.4298,-1.4298,-1.4298,-1.4298,-1.4298,-1.4298,-1.4298,-1.4298,-1.4298,-1.4298,-1.4298,-1.4298,-1.4298,-1.4298,-1.4298,-1.4298,-1.4298,-1.4298,-1.4298,-1.4298,-1.4298,-1.4298,-1.4298,-1.4298,-1.4298,-1.4298,-1.4298,-1.4298,-1.4298,-1.4298,-1.4298,-1.4298,-1.4298,-1.4298,-1.4298,-1.4298,-1.4298,-1.4298,-1.4298,-1.4298,-1.4298,-1.4298,-1.4298,-1.4298,-1.4298,-1.4473,-1.457,-1.457,-1.4739,-1.4817,-1.4823,-1.4563,-1.4439]},{"header":{"parameterUnit":"m.s-1","parameterCategory":1,"la1":30.6,"la2":29.2853,"lo1":-89.7004,"lo2":-87.6739,"dy":0.0162,"dx":0.0183,"nx":112,"ny":82,"refTime":"2023-09-11T18:00:00:Z","depth":0,"parameterNumber":3,"parameterNumberName":"V-component_of_WINDS"},"data":[0.0,0.0,0.0,0.0,0.0,0.0,0.0,0.0,0.0,0.0,0.0,0.0,0.0,0.0,0.0,0.0,0.0,0.0,0.0,0.0,0.0,0.0,0.0,0.0,0.0,0.0,0.0,0.0,0.0,0.0,0.0,0.0,0.0,0.0,0.0,0.0,0.0,0.0,0.0,0.0,0.0,0.0,0.0,0.0,0.0,0.0,0.0,0.0,0.0,0.0,0.0,0.0,0.0,0.0,0.0,0.0,0.0,0.0,0.0,0.0,0.0,0.0,0.0,0.0,0.0,0.0,0.0,0.0,0.0,0.0,0.0,0.0,0.0,0.0,0.0,0.0,0.0,0.0,0.0,0.0,0.0,0.0,0.0,0.0,0.0,0.0,0.0,0.0,0.0,0.0,3.0535,3.034,3.0388,3.0413,3.0414,3.0677,3.0881,3.0994,0.0,0.0,0.0,0.0,0.0,0.0,0.0,0.0,0.0,0.0,0.0,0.0,0.0,0.0,0.0,0.0,0.0,0.0,0.0,0.0,0.0,0.0,0.0,0.0,0.0,0.0,0.0,0.0,0.0,0.0,0.0,0.0,0.0,0.0,0.0,0.0,0.0,0.0,0.0,0.0,0.0,0.0,0.0,0.0,0.0,0.0,0.0,0.0,0.0,0.0,0.0,0.0,0.0,0.0,0.0,0.0,0.0,0.0,0.0,0.0,0.0,0.0,0.0,0.0,0.0,0.0,0.0,0.0,0.0,0.0,0.0,0.0,0.0,0.0,0.0,0.0,0.0,0.0,0.0,0.0,0.0,0.0,0.0,0.0,0.0,0.0,0.0,0.0,0.0,0.0,0.0,0.0,0.0,0.0,0.0,0.0,0.0,0.0,0.0,0.0,0.0,0.0,0.0,0.0,3.0626,3.0496,3.1323,3.1885,3.1871,3.2433,3.2779,3.2796,0.0,0.0,0.0,0.0,0.0,0.0,0.0,0.0,0.0,0.0,0.0,0.0,0.0,0.0,0.0,0.0,0.0,0.0,0.0,0.0,0.0,0.0,0.0,0.0,0.0,0.0,0.0,0.0,0.0,0.0,0.0,0.0,0.0,0.0,0.0,0.0,0.0,0.0,0.0,0.0,0.0,0.0,0.0,0.0,0.0,0.0,0.0,0.0,0.0,0.0,0.0,0.0,0.0,0.0,0.0,0.0,0.0,0.0,0.0,0.0,0.0,0.0,0.0,0.0,0.0,0.0,0.0,0.0,0.0,0.0,0.0,0.0,0.0,0.0,0.0,0.0,0.0,0.0,0.0,0.0,0.0,0.0,0.0,0.0,0.0,0.0,0.0,0.0,0.0,0.0,0.0,0.0,0.0,0.0,0.0,0.0,0.0,0.0,0.0,0.0,0.0,0.0,0.0,3.1371,3.1502,3.1927,3.2406,3.2711,3.2745,3.303,3.3225,3.325,3.2558,0.0,0.0,0.0,0.0,0.0,0.0,0.0,0.0,0.0,0.0,0.0,0.0,0.0,0.0,0.0,0.0,0.0,0.0,0.0,0.0,0.0,0.0,0.0,0.0,0.0,0.0,0.0,0.0,0.0,0.0,0.0,0.0,0.0,0.0,0.0,0.0,0.0,0.0,0.0,0.0,0.0,0.0,0.0,0.0,0.0,0.0,0.0,0.0,0.0,0.0,0.0,0.0,0.0,0.0,0.0,0.0,0.0,0.0,0.0,0.0,0.0,0.0,0.0,0.0,0.0,0.0,0.0,0.0,0.0,0.0,0.0,0.0,0.0,0.0,0.0,0.0,0.0,0.0,0.0,0.0,0.0,0.0,0.0,0.0,0.0,0.0,0.0,0.0,0.0,0.0,0.0,0.0,0.0,0.0,0.0,0.0,0.0,0.0,0.0,0.0,0.0,0.0,3.2215,3.2444,3.3106,3.333,3.3441,3.3503,3.3699,3.3833,3.39,3.3704,0.0,0.0,0.0,0.0,0.0,0.0,0.0,0.0,0.0,0.0,0.0,0.0,0.0,0.0,0.0,0.0,0.0,0.0,0.0,0.0,0.0,0.0,0.0,0.0,0.0,0.0,0.0,0.0,0.0,0.0,0.0,0.0,0.0,0.0,0.0,0.0,0.0,0.0,0.0,0.0,0.0,0.0,0.0,0.0,0.0,0.0,0.0,0.0,0.0,0.0,0.0,0.0,0.0,0.0,0.0,0.0,0.0,0.0,0.0,0.0,0.0,0.0,0.0,0.0,0.0,0.0,0.0,0.0,0.0,0.0,0.0,0.0,0.0,0.0,0.0,0.0,0.0,0.0,0.0,0.0,0.0,0.0,0.0,0.0,0.0,0.0,0.0,0.0,0.0,0.0,0.0,0.0,0.0,0.0,0.0,0.0,0.0,0.0,0.0,0.0,0.0,0.0,3.3064,3.303,3.3093,3.3882,3.44,3.4405,3.5145,3.562,3.5622,3.492,0.0,0.0,0.0,0.0,0.0,0.0,0.0,0.0,0.0,0.0,0.0,0.0,0.0,0.0,0.0,0.0,0.0,0.0,0.0,0.0,0.0,0.0,0.0,0.0,0.0,0.0,0.0,0.0,0.0,0.0,0.0,0.0,0.0,0.0,0.0,0.0,0.0,0.0,0.0,0.0,0.0,0.0,0.0,0.0,0.0,0.0,0.0,0.0,0.0,0.0,0.0,0.0,0.0,0.0,0.0,0.0,0.0,0.0,0.0,0.0,0.0,0.0,0.0,0.0,0.0,0.0,0.0,0.0,0.0,0.0,0.0,0.0,0.0,0.0,0.0,0.0,0.0,0.0,0.0,0.0,0.0,0.0,0.0,0.0,0.0,0.0,0.0,0.0,0.0,0.0,0.0,0.0,0.0,0.0,0.0,0.0,0.0,0.0,0.0,0.0,0.0,0.0,3.3804,3.3992,3.4538,3.4917,3.5146,3.5182,3.5519,3.5756,3.5802,0.0,0.0,0.0,0.0,0.0,0.0,0.0,0.0,0.0,0.0,0.0,0.0,0.0,0.0,0.0,0.0,0.0,0.0,0.0,0.0,0.0,0.0,0.0,0.0,0.0,0.0,0.0,0.0,0.0,0.0,0.0,0.0,0.0,0.0,0.0,0.0,0.0,0.0,0.0,0.0,0.0,0.0,0.0,0.0,0.0,0.0,0.0,0.0,0.0,0.0,0.0,0.0,0.0,0.0,0.0,0.0,0.0,0.0,0.0,0.0,0.0,0.0,0.0,0.0,0.0,0.0,0.0,0.0,0.0,0.0,0.0,0.0,0.0,0.0,0.0,0.0,0.0,0.0,0.0,0.0,0.0,0.0,0.0,0.0,0.0,0.0,0.0,0.0,0.0,0.0,0.0,0.0,0.0,0.0,0.0,0.0,0.0,0.0,0.0,0.0,0.0,0.0,3.441,3.4519,3.475,3.5301,3.5372,3.5392,3.5464,3.5538,3.5634,3.5739,0.0,0.0,0.0,0.0,0.0,0.0,0.0,0.0,0.0,0.0,0.0,0.0,0.0,0.0,0.0,0.0,0.0,0.0,0.0,0.0,0.0,0.0,0.0,0.0,0.0,0.0,0.0,0.0,0.0,0.0,0.0,0.0,0.0,0.0,0.0,0.0,0.0,0.0,0.0,0.0,0.0,0.0,0.0,0.0,0.0,0.0,0.0,0.0,0.0,0.0,0.0,0.0,0.0,0.0,0.0,0.0,0.0,0.0,0.0,0.0,0.0,0.0,0.0,0.0,0.0,0.0,0.0,0.0,0.0,0.0,0.0,0.0,0.0,0.0,0.0,0.0,0.0,0.0,0.0,0.0,0.0,0.0,0.0,0.0,0.0,0.0,0.0,0.0,0.0,0.0,0.0,0.0,0.0,0.0,0.0,0.0,0.0,0.0,0.0,0.0,0.0,0.0,3.5095,3.5201,3.5166,3.5105,3.51,3.5122,3.5181,3.5328,3.5457,0.0,0.0,0.0,0.0,0.0,0.0,0.0,0.0,0.0,0.0,0.0,0.0,0.0,0.0,0.0,0.0,0.0,0.0,0.0,0.0,0.0,0.0,0.0,0.0,0.0,0.0,0.0,0.0,0.0,0.0,0.0,0.0,0.0,0.0,0.0,0.0,0.0,0.0,0.0,0.0,0.0,0.0,0.0,0.0,0.0,0.0,0.0,0.0,0.0,0.0,0.0,0.0,0.0,0.0,0.0,0.0,0.0,0.0,0.0,0.0,0.0,0.0,0.0,0.0,0.0,0.0,0.0,0.0,0.0,0.0,0.0,0.0,0.0,0.0,0.0,0.0,0.0,0.0,0.0,0.0,0.0,0.0,0.0,0.0,0.0,0.0,0.0,0.0,0.0,0.0,0.0,0.0,0.0,0.0,0.0,0.0,0.0,0.0,0.0,0.0,0.0,0.0,0.0,3.4972,3.4992,3.4992,3.4954,3.4963,3.4991,3.5044,3.5171,3.5319,3.5451,0.0,0.0,0.0,0.0,0.0,0.0,0.0,0.0,0.0,0.0,0.0,0.0,0.0,0.0,0.0,0.0,0.0,0.0,0.0,0.0,0.0,0.0,0.0,0.0,0.0,0.0,0.0,0.0,0.0,0.0,0.0,0.0,0.0,0.0,0.0,0.0,0.0,0.0,0.0,0.0,0.0,0.0,0.0,0.0,0.0,0.0,0.0,0.0,0.0,0.0,0.0,0.0,0.0,0.0,0.0,0.0,0.0,0.0,0.0,0.0,0.0,0.0,0.0,0.0,0.0,0.0,0.0,0.0,0.0,0.0,0.0,0.0,0.0,0.0,0.0,0.0,0.0,0.0,0.0,0.0,0.0,0.0,0.0,0.0,0.0,0.0,0.0,0.0,0.0,0.0,0.0,0.0,0.0,0.0,0.0,0.0,0.0,0.0,0.0,0.0,0.0,0.0,3.4722,3.4722,3.4722,3.467,3.4691,3.4732,3.4831,3.5277,3.5628,3.5787,0.0,0.0,0.0,0.0,0.0,0.0,0.0,0.0,0.0,0.0,0.0,0.0,0.0,0.0,0.0,0.0,0.0,0.0,0.0,0.0,0.0,0.0,0.0,0.0,0.0,0.0,0.0,0.0,0.0,0.0,0.0,0.0,0.0,0.0,0.0,0.0,0.0,0.0,0.0,0.0,0.0,0.0,0.0,0.0,0.0,0.0,0.0,0.0,0.0,0.0,0.0,0.0,0.0,0.0,0.0,0.0,0.0,0.0,0.0,0.0,0.0,0.0,0.0,0.0,0.0,0.0,0.0,0.0,0.0,0.0,0.0,0.0,0.0,0.0,0.0,0.0,0.0,0.0,0.0,0.0,0.0,0.0,0.0,0.0,0.0,0.0,0.0,0.0,0.0,0.0,0.0,0.0,0.0,0.0,0.0,0.0,0.0,0.0,0.0,0.0,0.0,0.0,3.4517,3.4596,3.4629,3.4523,3.4552,3.4652,3.4764,3.5644,3.6262,3.6471,0.0,0.0,0.0,0.0,0.0,0.0,0.0,0.0,0.0,0.0,0.0,0.0,0.0,0.0,0.0,0.0,0.0,0.0,0.0,0.0,0.0,0.0,0.0,0.0,0.0,0.0,0.0,0.0,0.0,0.0,0.0,0.0,0.0,0.0,0.0,0.0,0.0,0.0,0.0,0.0,0.0,0.0,0.0,0.0,0.0,0.0,0.0,0.0,0.0,0.0,0.0,0.0,0.0,0.0,0.0,0.0,0.0,0.0,0.0,0.0,2.3689,2.3692,0.0,0.0,0.0,0.0,0.0,0.0,0.0,0.0,0.0,0.0,0.0,0.0,0.0,0.0,0.0,0.0,0.0,0.0,0.0,0.0,0.0,0.0,0.0,0.0,0.0,0.0,0.0,0.0,0.0,0.0,0.0,0.0,0.0,0.0,0.0,0.0,0.0,0.0,0.0,0.0,3.5113,3.5636,3.5972,3.5964,3.6025,3.6085,3.6161,3.6555,3.6884,3.7103,3.7479,0.0,0.0,0.0,0.0,0.0,0.0,0.0,0.0,0.0,0.0,0.0,0.0,0.0,0.0,0.0,0.0,0.0,0.0,0.0,0.0,0.0,0.0,0.0,0.0,0.0,0.0,0.0,0.0,0.0,0.0,0.0,0.0,0.0,0.0,0.0,0.0,0.0,0.0,0.0,0.0,0.0,0.0,0.0,0.0,0.0,0.0,0.0,0.0,0.0,0.0,0.0,0.0,0.0,0.0,0.0,0.0,0.0,0.0,0.0,2.3303,2.3041,0.0,0.0,0.0,0.0,0.0,0.0,0.0,0.0,0.0,0.0,0.0,0.0,0.0,0.0,0.0,0.0,0.0,0.0,0.0,0.0,0.0,0.0,0.0,0.0,0.0,0.0,0.0,0.0,0.0,0.0,0.0,0.0,0.0,0.0,0.0,0.0,0.0,0.0,0.0,0.0,3.5516,3.5853,3.608,3.5987,3.6091,3.6221,3.6357,3.6965,3.7455,3.7759,3.8328,0.0,0.0,0.0,0.0,0.0,0.0,0.0,0.0,0.0,0.0,0.0,0.0,0.0,0.0,0.0,0.0,0.0,0.0,0.0,0.0,0.0,0.0,0.0,0.0,0.0,0.0,0.0,0.0,0.0,0.0,0.0,0.0,0.0,0.0,0.0,0.0,0.0,0.0,0.0,0.0,0.0,0.0,0.0,0.0,0.0,0.0,0.0,0.0,0.0,0.0,0.0,0.0,0.0,2.459,2.4496,2.4348,2.4129,2.4095,2.4182,2.3487,2.3026,2.2827,2.3688,0.0,0.0,0.0,0.0,0.0,0.0,0.0,0.0,0.0,0.0,0.0,0.0,0.0,0.0,0.0,0.0,0.0,0.0,0.0,0.0,0.0,0.0,3.1389,3.1288,3.137,3.1568,3.1875,0.0,0.0,0.0,0.0,0.0,0.0,0.0,0.0,0.0,0.0,0.0,3.5883,3.6009,3.6049,3.5884,3.6049,3.624,3.6434,3.7301,3.8002,3.8353,3.9199,3.9785,0.0,0.0,0.0,0.0,0.0,0.0,0.0,0.0,0.0,0.0,0.0,0.0,0.0,0.0,0.0,0.0,0.0,0.0,0.0,0.0,0.0,0.0,0.0,0.0,0.0,0.0,0.0,0.0,0.0,0.0,0.0,0.0,2.5749,2.5596,0.0,0.0,0.0,0.0,0.0,0.0,0.0,0.0,0.0,0.0,0.0,0.0,0.0,2.4457,2.4415,2.4894,2.513,2.5113,2.5574,2.5766,2.573,2.5533,2.546,2.5462,2.5299,0.0,2.4652,2.5806,0.0,0.0,0.0,0.0,0.0,0.0,0.0,0.0,0.0,0.0,0.0,0.0,0.0,0.0,0.0,0.0,0.0,0.0,0.0,0.0,0.0,0.0,3.1895,3.1895,3.2465,3.2997,3.2931,3.2587,3.2587,3.3436,3.4064,3.4487,0.0,0.0,0.0,0.0,0.0,0.0,3.6495,3.7004,3.7363,3.7327,3.7487,3.7662,3.7743,3.8145,3.8477,3.8709,3.9077,3.9363,3.9568,3.9649,0.0,0.0,0.0,0.0,0.0,0.0,0.0,0.0,0.0,0.0,0.0,0.0,0.0,0.0,0.0,0.0,0.0,0.0,0.0,0.0,0.0,0.0,0.0,0.0,0.0,0.0,0.0,0.0,0.0,2.5846,2.55,2.5312,2.5143,2.5218,0.0,0.0,0.0,0.0,0.0,0.0,0.0,0.0,0.0,2.5514,2.578,2.5893,2.5857,2.6389,2.6639,2.6618,2.6756,2.6805,2.6782,2.6703,2.6683,2.6726,2.673,2.667,2.6637,2.7369,2.7871,2.8244,0.0,0.0,0.0,0.0,2.8891,2.8874,2.8283,2.8173,2.8322,2.8631,0.0,0.0,0.0,0.0,0.0,0.0,0.0,3.1506,3.1441,3.1882,3.2472,3.2953,3.3328,3.3703,3.4114,3.3999,3.384,3.4015,3.4553,3.4981,3.5029,3.5647,0.0,0.0,0.0,3.7005,3.6897,3.7142,3.7299,3.726,3.7373,3.7522,3.7649,3.7931,3.8234,3.8559,3.8755,3.9003,3.9256,3.9433,3.9359,0.0,0.0,0.0,0.0,0.0,0.0,0.0,0.0,0.0,0.0,0.0,0.0,0.0,0.0,0.0,0.0,0.0,0.0,0.0,0.0,0.0,0.0,0.0,0.0,0.0,0.0,0.0,0.0,2.5918,2.5608,2.536,2.5173,2.5368,0.0,0.0,0.0,0.0,0.0,0.0,2.6848,2.6738,2.6664,2.6609,2.7003,2.7202,2.7182,2.751,2.7664,2.7618,2.7536,2.7453,2.7406,2.7406,2.7427,2.7474,2.7531,2.7635,2.7802,2.8149,2.8456,2.8688,2.8865,2.9109,2.9385,2.9438,2.9489,2.9453,2.8816,2.8589,2.8649,2.8879,3.0221,3.1798,3.2236,0.0,0.0,0.0,0.0,3.2329,3.2284,3.2722,3.3348,3.4002,3.4127,3.4252,3.4906,3.5119,3.5031,3.454,3.4972,3.5456,3.549,3.6132,0.0,3.6504,3.6964,3.7261,3.7127,3.7089,3.7068,3.7007,3.705,3.7237,3.76,3.7701,3.8007,3.8591,3.8449,3.8491,3.8822,3.8947,3.9152,3.9451,0.0,0.0,0.0,0.0,0.0,0.0,0.0,0.0,0.0,0.0,0.0,0.0,0.0,0.0,0.0,0.0,0.0,0.0,0.0,0.0,0.0,0.0,0.0,0.0,0.0,0.0,0.0,0.0,0.0,2.6556,2.6387,0.0,0.0,0.0,0.0,2.8086,2.8075,2.7938,2.7756,2.7736,2.7652,2.7465,2.7476,2.7446,2.74,2.7411,2.7427,2.7427,2.7406,2.7406,2.7406,2.7406,2.7406,2.7406,2.7406,2.7406,2.7469,2.7871,2.8355,2.8896,2.8965,2.9477,3.0177,3.0374,3.043,3.0485,3.0903,3.1027,3.1029,3.1046,3.1255,3.1533,3.169,3.2056,0.0,0.0,3.3132,3.3804,3.3787,3.4269,3.4801,3.4854,3.4854,3.4854,3.4907,3.5472,3.5735,3.5013,3.5509,3.6057,3.6058,0.0,3.7262,3.7243,3.7167,3.7108,3.7108,3.7048,3.6989,3.7007,3.705,3.7408,3.8183,3.7858,3.8067,3.9188,3.8258,3.7809,3.8135,3.8234,3.8511,3.9013,3.9298,0.0,0.0,0.0,0.0,0.0,0.0,0.0,0.0,0.0,0.0,0.0,0.0,0.0,0.0,0.0,0.0,0.0,0.0,0.0,0.0,0.0,0.0,0.0,0.0,0.0,0.0,0.0,0.0,2.7674,2.7507,0.0,2.7679,2.7656,2.7692,2.7737,2.7729,2.7648,2.7557,2.7536,2.7515,2.7432,2.7849,2.8068,2.8046,2.8423,2.8857,2.9319,2.9234,2.9427,2.9855,2.9932,2.9756,2.9341,2.9377,2.9144,2.8766,2.8903,2.8913,2.8907,2.9539,2.9943,3.0211,3.0386,3.047,3.0513,3.0681,3.0869,3.1121,3.1898,3.2331,3.259,3.2949,3.3334,3.3682,3.3738,3.4021,3.4285,3.434,3.4497,3.4812,3.5452,3.5538,3.5625,3.6194,3.649,3.6573,3.6293,3.6488,3.6682,3.6682,3.6929,3.7105,3.7105,3.7085,3.7204,3.7697,3.771,3.7918,3.8427,3.8175,3.8123,3.84,3.8906,3.9224,3.9299,3.908,3.9238,3.9878,3.9679,3.9757,4.0226,4.0433,4.0719,0.0,0.0,0.0,0.0,0.0,0.0,0.0,0.0,0.0,0.0,0.0,0.0,0.0,0.0,0.0,0.0,0.0,0.0,0.0,0.0,0.0,0.0,0.0,0.0,0.0,2.8422,2.8422,2.8083,2.7907,2.7887,2.7992,2.8003,2.8017,2.8084,2.8116,2.8185,2.8353,2.8331,2.8443,2.8659,2.9112,2.935,2.935,2.9736,3.0188,3.068,3.0592,3.0765,3.1198,3.1281,3.1092,3.0664,3.072,3.0481,3.0083,3.013,2.9957,2.972,3.0206,3.0375,3.0429,3.0909,3.11,3.1132,3.1035,3.1233,3.1679,3.2614,3.3098,3.3318,3.3464,3.3704,3.3985,3.4068,3.4393,3.4735,3.4871,3.5082,3.5451,3.6167,3.6253,3.6357,3.6944,3.7029,3.7077,3.7303,3.7183,3.7007,3.7007,3.7007,3.7077,3.7341,3.7376,3.7637,3.8409,3.8515,3.8725,3.9231,3.8814,3.8685,3.9147,3.9592,3.9908,4.007,3.9923,4.0086,4.0669,4.0281,4.0256,4.0669,4.0985,4.1329,4.1698,0.0,0.0,0.0,0.0,0.0,0.0,0.0,0.0,0.0,0.0,0.0,0.0,0.0,0.0,0.0,0.0,0.0,0.0,0.0,0.0,0.0,0.0,0.0,2.8841,2.8455,2.8122,2.781,2.7626,2.7795,2.8414,2.8456,2.87,2.9305,2.9369,2.9624,3.0204,3.0236,3.0528,3.1167,3.1198,3.1198,3.1198,3.1198,3.1198,3.1214,3.1214,3.1255,3.1261,3.1261,3.1246,3.1214,3.1214,3.1214,3.1207,3.133,3.1404,3.1349,3.0924,3.0728,3.087,3.1991,3.2423,3.2397,3.2126,3.2359,3.284,3.3284,3.3584,3.365,3.3128,3.3153,3.3398,3.3528,3.4309,3.5183,3.5439,3.6153,3.6829,3.6968,3.7005,3.7005,3.7005,3.706,3.7268,3.8006,3.7549,3.7077,3.7077,3.7077,3.7323,3.8041,3.8146,0.0,3.9234,3.9336,3.9336,3.9354,3.8902,3.9129,4.0411,3.9808,4.0009,4.1502,4.0682,4.0211,4.0338,3.9896,3.9848,4.0271,4.086,4.1267,4.1512,0.0,0.0,0.0,0.0,0.0,0.0,0.0,0.0,0.0,0.0,0.0,0.0,0.0,0.0,0.0,0.0,0.0,0.0,0.0,0.0,0.0,3.0662,3.0078,2.9181,2.9321,2.9414,2.9189,2.9036,2.9192,2.978,2.986,3.0084,3.0639,3.0687,3.0757,3.0923,3.0939,3.1018,3.1182,3.1198,3.1198,3.1198,3.1198,3.1476,3.2007,3.2007,3.2234,3.2724,3.2724,3.2455,3.2007,3.2007,3.1681,3.1198,3.1232,3.1257,3.1265,3.1438,3.1493,3.1556,3.2071,3.2548,3.2961,3.2908,3.3359,3.4016,3.4117,3.4326,3.4553,3.4379,3.4587,3.4863,3.4996,3.5302,3.5672,3.599,3.625,3.6506,3.6725,3.7184,3.7585,3.7585,3.8066,3.8583,3.8793,3.8733,3.8673,3.8673,3.8673,3.8743,3.8933,3.8968,3.9269,4.0059,4.0186,4.0358,4.092,4.0845,4.0915,4.1271,4.1086,4.1161,4.1561,4.1323,4.1248,4.1382,4.1262,4.1363,4.1791,4.2157,4.2193,0.0,0.0,0.0,0.0,0.0,0.0,0.0,0.0,0.0,0.0,0.0,0.0,0.0,0.0,0.0,0.0,0.0,0.0,0.0,0.0,0.0,0.0,3.1061,3.0522,3.0016,2.9869,2.9839,2.998,2.9858,3.0052,3.0656,3.0735,3.0869,3.1191,3.1198,3.1324,3.1634,3.165,3.1792,3.2076,3.2092,3.2092,3.2092,3.2092,3.2297,3.2734,3.2734,3.2914,3.3309,3.3309,3.3087,3.2734,3.2734,3.2471,3.2092,3.2092,3.2092,3.2086,0.0,0.0,0.0,0.0,3.3352,3.3738,3.3738,3.4079,3.4495,3.4451,3.4613,3.4828,3.4802,3.5001,3.5234,3.535,3.57,3.6135,3.6459,3.683,3.7136,3.7331,3.7741,3.8075,3.8014,3.8491,3.9038,3.9369,3.9543,0.0,4.0049,3.9641,3.9406,3.9697,3.9754,4.0056,4.0784,4.0933,4.113,4.1555,4.1617,4.16,4.1608,4.16,0.0,0.0,0.0,4.1626,4.1714,4.1758,0.0,0.0,0.0,4.2515,4.2359,4.2555,0.0,0.0,4.1129,4.0848,0.0,0.0,0.0,0.0,0.0,0.0,0.0,0.0,0.0,0.0,0.0,0.0,0.0,0.0,0.0,0.0,3.1291,3.1117,3.1102,3.0298,2.989,3.0378,3.0363,3.0575,3.127,3.1334,3.1365,3.1444,3.1435,3.1729,3.2386,3.2402,0.0,0.0,0.0,3.3309,3.3309,3.3309,3.3309,3.3309,3.3309,3.3309,3.3309,3.3309,3.3309,3.3309,3.3309,3.3309,3.3309,3.3388,3.3467,3.352,3.2985,3.2791,3.2921,3.3883,3.4325,3.4423,3.4423,0.0,0.0,3.4546,3.4677,3.4791,3.4873,3.4987,3.5107,3.5267,3.5845,3.6513,3.6857,3.7528,3.8138,3.8202,3.8385,3.8505,3.8374,3.8642,3.9076,3.9824,4.0054,4.033,4.0995,4.0228,3.9711,4.0324,4.0495,4.0766,4.1316,4.1493,4.1573,4.1548,4.1545,0.0,4.1588,4.1568,4.1582,4.1604,4.1604,4.1604,4.1604,4.1714,4.1823,4.1892,4.2103,4.2371,4.2634,4.2768,4.2613,4.2205,4.1775,4.1598,0.0,0.0,0.0,0.0,0.0,0.0,0.0,0.0,0.0,0.0,0.0,0.0,0.0,0.0,0.0,3.1499,3.1682,3.1855,3.1741,3.1333,3.095,3.075,3.0891,3.1286,3.2023,3.2086,3.2323,3.285,3.2898,3.2961,3.3103,3.3103,3.3166,3.3309,3.3309,3.3309,3.3309,3.3309,3.3309,3.3309,3.3309,0.0,3.3309,3.3309,3.3309,3.3309,3.3309,3.3309,3.334,3.3878,3.4528,3.505,3.3815,3.3399,3.3544,3.3748,3.3899,3.4025,3.4025,3.4101,3.4273,3.4857,3.5154,3.537,3.5915,3.6165,0.0,3.6446,3.6595,3.6787,3.7086,3.735,3.759,3.7694,3.8278,3.8822,3.8798,3.9428,4.0044,4.0197,4.0295,4.0391,4.0528,4.0718,4.0871,4.1028,4.1046,4.1121,4.1214,4.1365,4.1405,4.129,4.1272,4.1318,4.142,4.1443,4.1493,4.1604,4.1604,4.1604,4.1604,4.1626,4.1692,4.1823,4.1866,4.1998,4.2228,4.2351,4.2402,4.2362,4.2154,4.179,0.0,0.0,0.0,0.0,0.0,0.0,0.0,0.0,0.0,0.0,0.0,3.3685,3.3271,0.0,3.2197,3.2023,3.2135,3.2331,3.258,3.2457,3.2152,3.1611,3.1665,3.2013,3.2734,3.2813,3.2929,3.3277,3.3309,3.3309,3.3309,3.3309,3.3309,3.3309,3.3309,3.3467,3.3799,3.3799,3.3988,3.4352,3.4352,3.4352,3.4352,3.4352,3.4352,3.4352,3.4352,3.4352,3.4383,3.4699,3.5118,3.5427,3.473,3.4579,3.4766,3.4766,3.4829,3.4935,3.4935,3.5055,3.5266,3.5623,3.5825,3.5952,3.6283,3.6486,3.66,3.6678,3.6967,3.7298,3.7505,3.7864,3.8223,3.8275,3.8696,3.9023,3.8972,3.9402,3.9867,3.9867,3.9885,3.9927,3.9978,4.0294,4.058,4.0813,4.1018,4.1129,4.1065,4.1192,4.1279,4.1227,4.1198,4.1209,4.1238,4.129,4.134,4.1408,4.1408,4.1408,4.1408,4.1453,4.1538,4.1604,4.167,4.178,4.1952,4.2016,4.2124,4.2254,4.2181,4.2068,0.0,0.0,0.0,0.0,0.0,0.0,0.0,3.3209,3.3571,3.3675,3.3558,3.3333,3.3044,3.2751,3.2626,3.275,3.2669,3.2748,3.3214,3.3309,3.3103,3.256,3.2497,3.2718,3.3245,3.3309,3.3309,3.3309,3.3309,3.3356,3.3482,3.3498,3.3561,3.3704,3.3704,3.3972,3.4494,3.451,3.4794,3.5394,3.5394,3.5394,3.5394,3.5394,3.5394,3.5394,3.5394,3.5458,3.5584,3.5584,3.5679,3.5789,3.5789,3.5931,3.6107,3.5808,3.5806,3.5942,3.5942,3.6109,3.6335,3.6465,3.6534,3.6614,3.6718,3.682,3.69,3.6867,3.7275,3.7758,3.7866,3.839,3.8887,3.8887,3.9007,3.9088,3.8969,3.9088,3.9249,3.9222,3.9206,3.9242,3.9375,3.9532,3.9833,4.037,4.0793,4.1,4.0912,4.1041,4.1129,4.1145,4.1146,4.1134,4.1093,4.1157,4.1209,4.1209,4.1209,4.1209,4.1209,4.1318,4.1363,4.1363,4.1471,4.1582,4.1675,4.1675,4.1762,4.1934,4.1934,4.219,3.1184,3.1086,3.1079,3.1587,3.1763,3.2013,0.0,3.3351,3.3669,3.3692,3.3943,3.4137,3.3965,3.3733,3.3512,3.3427,3.3287,3.3214,3.3293,3.3309,3.3277,3.3198,3.3182,3.3214,3.3293,3.3309,3.3309,3.3309,3.3309,3.3561,3.4146,3.4178,3.4478,3.5142,3.5157,3.5189,3.5268,3.5268,3.5315,3.5394,3.5394,3.5394,3.5394,3.5394,3.5394,3.5394,3.5394,3.5742,3.6282,3.6282,3.6674,3.7273,3.7273,3.7273,3.716,3.5909,3.5602,3.5822,3.5822,3.6028,3.6416,3.6988,3.7209,3.7295,3.783,3.8024,3.7979,3.7792,3.7828,3.7892,3.7892,3.8185,3.8476,3.8476,3.8655,3.8805,3.8667,3.8667,3.8667,3.8516,3.8516,3.8544,3.8678,3.8925,3.9372,4.0188,4.0551,4.0793,4.0888,4.0918,4.0918,4.0935,4.0918,4.0982,4.1093,4.1157,4.1209,4.1209,4.1209,4.1209,4.1209,4.1209,4.1232,4.1232,4.1232,4.1255,4.1277,4.1277,4.1277,4.13,4.13,4.1679,3.1571,3.1517,3.1399,3.1716,3.2017,3.2355,3.2875,3.3371,3.3705,3.382,3.389,3.3899,3.3787,3.3658,3.3555,3.3398,3.3335,3.3309,3.3309,3.3309,3.3435,3.383,3.4026,3.3899,3.3356,3.3656,3.3878,3.3878,3.4273,3.4636,3.492,3.4936,3.5078,3.5379,3.5394,3.5584,3.5995,3.5995,3.62,3.6624,3.6624,3.6624,3.6624,3.6624,3.6624,3.6624,3.6624,3.6769,3.7038,3.7038,3.7212,3.751,3.751,3.751,3.7431,3.6846,3.674,3.6912,3.6912,3.7054,3.7287,3.756,3.7657,3.7693,3.7953,3.802,3.802,3.7934,3.7905,3.7905,3.7905,3.802,3.8107,3.8107,3.8177,3.8262,3.8189,3.8205,3.8177,3.8135,3.8049,3.8078,3.8319,3.8583,3.8996,3.967,4.0095,4.0434,4.069,4.0817,4.0912,4.0912,4.0912,4.0935,4.0982,4.1012,4.1035,4.1035,4.1035,4.1035,4.1035,4.1105,4.1129,4.1129,4.118,4.1209,4.1209,4.1209,4.1209,4.1209,4.1209,4.1368,3.1729,3.1734,3.1638,3.1911,3.2238,3.2595,3.3028,3.3402,3.3668,3.3771,3.3684,3.3555,3.345,3.345,3.3398,3.3335,3.3309,3.3372,3.3546,3.3577,3.383,3.451,3.4754,3.4639,3.3941,3.432,3.4589,3.4589,3.5094,3.5473,3.5663,3.5679,3.5774,3.5963,3.5992,3.62,3.6706,3.6706,3.6975,3.751,3.751,3.751,3.751,3.751,3.751,3.751,3.751,3.751,3.751,3.751,3.751,3.751,3.751,3.751,3.751,3.751,3.7583,3.77,3.77,3.7788,3.7905,3.7905,3.7905,3.7905,3.7847,3.7847,3.7847,3.7788,3.7788,3.7788,3.7788,3.7817,3.7847,3.7847,3.7876,3.7905,3.7847,3.7847,3.7847,3.7788,3.77,3.773,3.802,3.8274,3.8623,3.9115,3.9594,4.0095,4.0519,4.0721,4.0864,4.0912,4.0912,4.0912,4.0912,4.0912,4.0912,4.0912,4.0912,4.0912,4.0912,4.0982,4.1047,4.1047,4.1088,4.1117,4.1117,4.1117,4.1117,4.1117,4.1117,4.1117,3.1261,3.133,3.1365,3.2038,3.2187,3.2443,3.3286,3.3487,3.3503,3.3503,3.3398,3.3293,3.3309,3.3309,3.3293,3.3309,3.3309,3.353,3.4162,3.4257,3.4525,3.5268,3.5363,3.5363,3.5331,3.5347,3.5363,3.5363,3.5379,3.5679,3.6329,3.6361,3.6706,3.7415,3.7447,3.7462,3.7478,3.7478,3.7494,3.751,3.751,3.751,3.751,3.751,3.751,3.751,3.751,3.751,3.751,3.751,3.751,3.751,3.751,3.751,3.751,3.751,3.7583,3.77,3.77,3.7788,3.7905,3.7905,3.7905,3.7876,3.7759,3.77,3.7671,3.7539,3.751,3.751,3.751,3.7628,3.77,3.77,3.7817,3.7876,3.773,3.77,3.7671,3.7539,3.751,3.7569,3.77,3.7931,3.823,3.8567,3.9121,3.9772,4.0412,4.0624,4.0745,4.0888,4.0912,4.0912,4.0912,4.0912,4.0912,4.0912,4.0912,4.0912,4.0912,4.0894,4.0912,4.0912,4.0912,4.0912,4.0912,4.0912,4.0912,4.0912,4.0912,4.0912,3.2333,3.251,3.2389,3.2609,3.2735,3.2877,3.3166,3.3293,3.3388,3.3388,3.3319,3.3309,3.3309,3.3309,3.3309,3.3309,3.3672,3.4036,3.4257,3.4999,3.5633,3.6026,3.6502,3.6784,3.6798,3.6342,3.6045,3.6045,3.6516,3.6909,3.7117,3.7117,3.7227,3.7494,3.751,3.751,3.751,3.751,3.751,3.751,3.751,3.751,3.751,3.751,3.751,3.751,3.751,3.751,3.751,3.751,3.751,3.751,3.751,3.751,3.751,3.751,3.7539,3.7569,3.7569,3.7599,3.7612,3.7612,3.7612,3.7628,3.7599,3.7569,3.7569,3.751,3.751,3.751,3.751,3.7539,3.7569,3.7569,3.7599,3.7612,3.7599,3.7569,3.7569,3.751,3.751,3.7539,3.7671,3.7844,3.8128,3.859,3.9369,4.0011,4.0326,4.0573,4.0745,4.0888,4.0912,4.0912,4.0912,4.0912,4.0912,4.0912,4.0912,4.0912,4.0912,4.0912,4.0912,4.0912,4.0912,4.0912,4.0912,4.0912,4.0912,4.0912,4.0912,4.0912,3.2746,3.2962,3.2773,3.2773,3.2854,3.2935,3.3016,3.3123,3.3229,3.3309,3.3319,3.3451,3.3704,3.3805,3.3853,3.3904,3.439,3.4802,3.4924,3.5656,3.6362,3.6738,3.7216,3.7499,3.7494,3.7069,3.6801,3.6801,3.7227,3.751,3.751,3.751,3.751,3.751,3.751,3.751,3.751,3.751,3.751,3.751,3.751,3.751,3.751,3.751,3.751,3.751,3.751,3.751,3.751,3.751,3.751,3.751,3.751,3.751,3.751,3.751,3.751,3.751,3.751,3.751,3.751,3.751,3.751,3.751,3.751,3.751,3.751,3.751,3.751,3.751,3.751,3.751,3.751,3.751,3.751,3.751,3.751,3.751,3.751,3.751,3.751,3.7539,3.7612,3.7682,3.7924,3.843,3.9148,3.978,4.0086,4.036,4.0624,4.0817,4.0864,4.0912,4.0912,4.0912,4.0912,4.0912,4.0912,4.0912,4.0912,4.0912,4.0912,4.0912,4.0912,4.0912,4.0912,4.0912,4.0912,4.0912,4.0912,4.0912,3.2469,3.2746,3.2578,3.2578,3.2578,3.2648,3.2843,3.3005,3.3123,3.3282,3.3398,3.3709,3.442,3.4697,3.4872,3.5035,3.5391,3.5756,3.6082,3.6316,3.6738,3.7431,3.751,3.751,3.751,3.751,3.751,3.751,3.751,3.751,3.751,3.751,3.751,3.751,3.751,3.751,3.751,3.751,3.751,3.751,3.751,3.751,3.751,3.751,3.751,3.751,3.751,3.751,3.751,3.751,3.751,3.751,3.751,3.751,3.751,3.751,3.751,3.751,3.751,3.751,3.751,3.751,3.751,3.751,3.751,3.751,3.751,3.751,3.751,3.751,3.751,3.751,3.751,3.751,3.751,3.751,3.751,3.751,3.751,3.751,3.751,3.751,3.751,3.7519,3.7661,3.8028,3.8567,3.9127,3.9731,4.0096,4.0404,4.0673,4.0817,4.0912,4.0912,4.0912,4.0912,4.0912,4.0912,4.0912,4.0912,4.0912,4.0912,4.0912,4.0912,4.0912,4.0912,4.0912,4.0912,4.0912,4.0912,4.0912,3.2098,3.2496,3.2453,3.2453,3.2523,3.2648,3.2843,3.3005,3.3176,3.3398,3.3477,3.3572,3.3794,3.4362,3.507,3.5911,3.6198,3.6356,3.6329,3.6835,3.7275,3.7494,3.751,3.751,3.751,3.751,3.751,3.751,3.751,3.751,3.751,3.751,3.751,3.751,3.751,3.751,3.751,3.751,3.751,3.751,3.751,3.751,3.751,3.751,3.751,3.751,3.751,3.751,3.751,3.751,3.751,3.751,3.751,3.751,3.751,3.751,3.751,3.751,3.751,3.751,3.751,3.751,3.751,3.751,3.751,3.751,3.751,3.751,3.751,3.751,3.751,3.751,3.751,3.751,3.751,3.751,3.751,3.751,3.751,3.751,3.751,3.751,3.751,3.7628,3.7801,3.8055,3.8681,3.9269,3.9677,4.0062,4.0404,4.0673,4.0817,4.0912,4.0912,4.0912,4.0912,4.0912,4.0912,4.0912,4.0912,4.0912,4.0912,4.0912,4.0912,4.0912,4.0912,4.0912,4.0912,4.0912,4.0912,4.0912,3.1891,3.2342,3.2425,3.2453,3.2551,3.2676,3.2951,3.3058,3.3176,3.345,3.3524,3.3778,3.4505,3.5268,3.6071,3.6998,3.7157,3.7109,3.6909,3.7227,3.751,3.751,3.751,3.751,3.751,3.751,3.751,3.751,3.751,3.751,3.751,3.751,3.751,3.751,3.751,3.751,3.751,3.751,3.751,3.751,3.751,3.751,3.751,3.751,3.751,3.751,3.751,3.751,3.751,3.751,3.751,3.751,3.751,3.751,3.751,3.751,3.751,3.751,3.751,3.751,3.751,3.751,3.751,3.751,3.751,3.751,3.751,3.751,3.751,3.751,3.751,3.751,3.751,3.751,3.751,3.751,3.751,3.751,3.751,3.751,3.751,3.7539,3.7614,3.7793,3.8072,3.8428,3.8892,3.9355,3.9746,4.0104,4.0362,4.0583,4.0776,4.0912,4.0912,4.0912,4.0912,4.0912,4.0912,4.0912,4.0912,4.0912,4.0912,4.0912,4.0912,4.0912,4.0912,4.0912,4.0912,4.0912,4.0912,4.0912,3.1717,3.2253,3.2453,3.2594,3.2648,3.2757,3.3043,3.315,3.3256,3.3529,3.372,3.4324,3.5857,3.6642,3.7298,3.7972,3.8011,3.7847,3.7569,3.7539,3.751,3.751,3.751,3.751,3.751,3.751,3.751,3.751,3.751,3.751,3.751,3.751,3.751,3.751,3.751,3.751,3.751,3.751,3.751,3.751,3.751,3.751,3.751,3.751,3.751,3.751,3.751,3.751,3.751,3.751,3.751,3.751,3.751,3.751,3.751,3.751,3.751,3.751,3.751,3.751,3.751,3.751,3.751,3.751,3.751,3.751,3.751,3.751,3.751,3.751,3.751,3.751,3.751,3.751,3.751,3.751,3.751,3.751,3.751,3.751,3.7494,3.7553,3.7793,3.8027,3.8391,3.9011,3.9203,3.9461,3.9901,4.0163,4.0362,4.051,4.0752,4.0912,4.0912,4.0912,4.0912,4.0912,4.0912,4.0912,4.0912,4.0912,4.0912,4.0912,4.0912,4.0912,4.0912,4.0912,4.0912,4.0912,4.0912,4.0912,3.1271,3.2037,3.2621,3.28,3.2951,3.3069,3.3229,3.345,3.3668,3.3949,3.4577,3.5425,3.6623,3.7166,3.7567,3.8019,3.8135,3.802,3.77,3.7671,3.7612,3.751,3.751,3.751,3.751,3.751,3.751,3.751,3.751,3.751,3.751,3.751,3.751,3.751,3.751,3.751,3.751,3.751,3.751,3.751,3.751,3.751,3.751,3.751,3.751,3.751,3.751,3.751,3.751,3.751,3.751,3.751,3.751,3.751,3.751,3.751,3.751,3.751,3.751,3.751,3.751,3.751,3.751,3.751,3.751,3.751,3.751,3.751,3.751,3.751,3.751,3.751,3.751,3.751,3.751,3.751,3.751,3.751,3.751,3.751,3.7506,3.7608,3.7982,3.831,3.8748,3.9543,3.9723,3.9884,4.0205,4.0362,4.051,4.0648,4.0817,4.0912,4.0912,4.0912,4.0912,4.0912,4.0912,4.0912,4.0912,4.0912,4.0912,4.0912,4.0912,4.0912,4.0912,4.0912,4.0912,4.0912,4.0912,4.0912,3.1171,3.2068,3.28,3.2978,3.3096,3.3282,3.3555,3.3822,3.4068,3.4211,3.4652,3.5454,3.6971,3.7485,3.7812,3.827,3.8387,3.829,3.796,3.786,3.7743,3.7612,3.7539,3.751,3.751,3.751,3.751,3.751,3.751,3.751,3.751,3.751,3.751,3.751,3.751,3.751,3.751,3.751,3.751,3.751,3.751,3.751,3.751,3.751,3.751,3.751,3.751,3.751,3.751,3.751,3.751,3.751,3.751,3.751,3.751,3.751,3.751,3.751,3.751,3.751,3.751,3.751,3.751,3.751,3.751,3.751,3.751,3.751,3.751,3.751,3.751,3.751,3.751,3.751,3.751,3.751,3.751,3.751,3.7494,3.7506,3.7653,3.7918,3.8294,3.8853,3.9384,3.9783,4.007,4.0288,4.0478,4.0648,4.0704,4.0697,4.0817,4.0912,4.0912,4.0912,4.0912,4.0912,4.0912,4.0912,4.0912,4.0912,4.0912,4.0912,4.0912,4.0912,4.0912,4.0912,4.0912,4.0912,4.0912,4.0912,3.1144,3.212,3.2978,3.315,3.3335,3.3581,3.3949,3.4284,3.4536,3.4544,3.4842,3.5595,3.7128,3.7759,3.8197,3.8739,3.8788,3.8678,3.8383,3.8201,3.8046,3.786,3.7714,3.7612,3.7539,3.7569,3.7553,3.7539,3.7569,3.7569,3.751,3.751,3.751,3.751,3.751,3.751,3.751,3.7539,3.7539,3.7539,3.7553,3.7599,3.7583,3.7569,3.7539,3.7539,3.751,3.751,3.751,3.751,3.751,3.751,3.751,3.751,3.751,3.751,3.751,3.751,3.751,3.751,3.751,3.751,3.751,3.751,3.751,3.751,3.751,3.751,3.751,3.751,3.751,3.751,3.751,3.751,3.751,3.751,3.751,3.7494,3.7506,3.7499,3.7777,3.8124,3.865,3.94,3.9953,4.0011,4.0313,4.0583,4.0721,4.084,4.0864,4.0745,4.084,4.0912,4.0912,4.0912,4.0912,4.0912,4.0912,4.0912,4.0912,4.0912,4.0912,4.0912,4.0912,4.0912,4.0912,4.0912,4.0912,4.0912,4.0912,4.0912,3.098,3.205,3.3123,3.3398,3.3761,3.4101,3.4374,3.489,3.5249,3.5088,3.5966,3.6853,3.7107,3.805,3.895,3.9441,3.9418,3.9259,3.9125,3.8871,3.8595,3.8286,3.8144,3.796,3.77,3.7788,3.7817,3.77,3.7788,3.7759,3.751,3.751,3.751,3.751,3.751,3.751,3.751,3.7612,3.7671,3.7671,3.7817,3.7876,3.7876,3.773,3.7671,3.7671,3.7569,3.751,3.751,3.751,3.751,3.751,3.751,3.751,3.751,3.751,3.751,3.751,3.751,3.751,3.751,3.751,3.751,3.751,3.751,3.751,3.751,3.751,3.751,3.751,3.751,3.751,3.751,3.751,3.751,3.751,3.751,3.7506,3.7483,3.7517,3.752,3.7892,3.8962,3.9843,4.0443,4.0446,4.0583,4.0721,4.0847,4.0888,4.0912,4.0871,4.0894,4.0912,4.0912,4.0912,4.0912,4.0912,4.0912,4.0912,4.0912,4.0912,4.0912,4.0912,4.0912,4.0912,4.0912,4.0912,4.0912,4.0912,4.0912,4.0912,3.0998,3.1842,3.2787,3.3443,3.3848,3.4234,3.4794,3.5322,3.5776,3.6011,3.6408,3.692,3.7627,3.8602,3.9369,3.9462,3.9848,4.0028,3.9723,3.9516,3.9252,3.8909,3.8562,3.827,3.8087,3.8046,3.8075,3.8217,3.8359,3.8359,3.816,3.7817,3.7612,3.7612,3.7539,3.7539,3.7612,3.7671,3.7772,3.7931,3.7988,3.8017,3.8017,3.796,3.786,3.77,3.773,3.77,3.7628,3.77,3.77,3.7612,3.7612,3.7553,3.751,3.751,3.751,3.751,3.751,3.751,3.751,3.751,3.7569,3.7628,3.7539,3.751,3.751,3.751,3.7569,3.7612,3.7612,3.7671,3.773,3.7642,3.7671,3.773,3.7642,3.7648,3.7706,3.7717,3.7892,3.8389,3.9556,4.0096,4.043,4.0524,4.071,4.084,4.0894,4.0912,4.0912,4.0912,4.0912,4.0912,4.0912,4.0912,4.0912,4.0912,4.0912,4.0912,4.0912,4.0912,4.0912,4.0912,4.0912,4.0912,4.0912,4.0912,4.0912,4.0912,4.0912,4.0912,3.127,3.1987,3.2755,3.3696,3.4134,3.4537,3.5253,3.5776,3.6245,3.6803,3.6805,3.7073,3.8248,3.8989,3.9499,0.0,0.0,4.0737,4.04,4.0228,3.9952,3.9532,3.9146,3.8794,3.8535,3.8439,3.8523,3.8936,3.9061,3.9071,3.9017,3.8495,3.8087,3.7831,3.7714,3.7685,3.7759,3.7889,3.8075,3.8315,3.8439,3.8495,3.8495,3.8411,3.823,3.8033,3.8033,3.7992,3.7905,3.7947,3.7889,3.7801,3.7788,3.77,3.7612,3.7553,3.7569,3.7569,3.751,3.7539,3.7569,3.7569,3.7671,3.7801,3.7714,3.7642,3.7612,3.7612,3.7714,3.7831,3.7905,3.7918,3.7947,3.7831,3.7889,3.7931,3.7889,3.7841,3.7886,3.8018,3.8519,3.9211,4.0155,4.0413,4.0531,4.0669,4.0806,4.0912,4.0912,4.0912,4.0912,4.0912,4.0912,4.0912,4.0912,4.0912,4.0912,4.0912,4.0912,4.0912,4.0912,4.0912,4.0912,4.0912,4.0912,4.0912,4.0912,4.0912,4.0912,4.0912,4.0912,4.0912,3.1876,3.2537,3.3243,3.4244,3.473,3.5144,3.5737,3.6266,3.6733,3.7291,3.73,3.7587,3.8853,3.9051,3.935,4.0419,4.1056,4.1328,4.1209,4.096,4.0635,4.0245,3.9944,3.9584,3.9028,3.8974,3.9216,3.9756,3.9808,3.9842,3.9978,3.9603,3.8984,3.8128,3.8071,3.8046,3.7905,3.8359,3.8667,3.8805,3.9195,3.9408,3.9365,3.9109,3.8909,3.8777,3.8504,3.8391,3.8363,3.8189,3.8116,3.8071,3.7947,3.7905,3.7876,3.7759,3.77,3.7671,3.7539,3.7599,3.77,3.77,3.7889,3.8116,3.8071,3.7988,3.7905,3.7905,3.7988,3.8144,3.8335,3.8262,3.81,3.8116,3.8116,3.8128,3.827,3.8103,3.7987,3.8325,3.9306,4.0248,4.08,4.0878,4.0889,4.0905,4.0912,4.0912,4.0912,4.0912,4.0912,4.0912,4.0912,4.0912,4.0912,4.0912,4.0912,4.0912,4.0912,4.0912,4.0912,4.0912,4.0912,4.0912,4.0912,4.0912,4.0912,4.0912,4.0912,4.0912,4.0912,4.0912,3.2376,3.2716,3.3116,3.4705,3.5253,3.5594,3.6224,3.6652,3.6972,3.7321,3.7576,3.7864,3.8277,3.9495,4.0368,4.017,4.1191,4.1892,4.152,4.1408,4.1226,4.0847,4.0377,3.9969,3.9697,3.9774,3.9969,4.0319,4.0476,4.0524,4.0417,4.0294,3.98,3.8865,3.8662,3.8595,3.8639,3.8898,3.9179,3.9497,3.9714,3.9868,3.9944,3.9749,3.9516,3.9216,3.9232,3.9061,3.8821,3.8952,3.8827,3.8567,3.8528,3.8403,3.8221,3.8046,3.7972,3.796,3.7801,3.786,3.7988,3.8087,3.8315,3.8595,3.8678,3.8556,3.8415,3.8583,3.8694,3.8761,3.8898,3.8909,3.8827,3.8733,3.8788,3.8865,3.8909,3.9059,3.9149,3.899,3.9859,4.07,4.0878,4.0913,4.0899,4.0912,4.0912,4.0912,4.0912,4.0912,4.0912,4.0912,4.0912,4.0912,4.0912,4.0912,4.0912,4.0912,4.0912,4.0912,4.0912,4.0912,4.0912,4.0912,4.0912,4.0912,4.0912,4.0912,4.0912,4.0912,4.0912,4.0912,3.2717,3.3056,3.3486,3.498,3.5659,3.6118,3.6676,3.6972,3.7242,3.7523,3.7811,3.8006,3.8075,3.9734,4.0851,4.012,4.1332,4.2222,4.1819,4.1754,4.16,4.1192,4.0717,4.0392,4.036,4.0392,4.0538,4.0819,4.0995,4.1018,4.0907,4.0843,4.0556,3.9935,3.9523,3.9339,3.9391,3.9558,3.98,4.0095,4.0311,4.0476,4.0524,4.0368,4.0153,3.9851,3.9902,3.9756,0.0,3.9523,3.9435,3.9212,3.9061,3.8925,3.875,3.8523,3.8411,3.8343,3.8217,3.8246,3.8383,3.8579,3.8898,3.9239,3.9425,3.9222,3.8952,3.9265,3.9345,3.9345,3.9435,3.9435,3.9355,3.9292,3.9345,3.9408,3.954,3.9781,3.9935,3.9731,4.0351,4.0903,4.0913,4.0899,4.0912,4.0912,4.0912,4.0912,4.0912,4.0912,4.0912,4.0912,4.0912,4.0912,4.0912,4.0912,4.0912,4.0912,4.0912,4.0912,4.0912,4.0912,4.0912,4.0912,4.0912,4.0912,4.0912,4.0912,4.0912,4.0912,4.0912,4.0912,0.0,3.354,3.4259,3.5156,3.6018,3.6736,3.7069,3.728,0.0,3.7846,3.7968,3.8036,3.8192,3.9768,4.0871,4.0291,4.1488,4.2382,4.2048,4.1984,4.1776,4.1277,4.1007,4.0884,4.0918,4.0884,4.096,4.1209,4.134,4.1426,4.1426,4.1295,4.1203,4.114,4.0597,4.022,4.007,4.0326,4.0514,4.0652,4.0982,4.1117,4.1117,4.0931,4.0754,4.0652,4.0514,4.041,4.033,4.0003,3.9901,3.991,3.9592,3.947,3.9444,3.9162,3.899,3.8871,3.8706,3.8761,3.8925,3.9179,3.9566,4.0003,4.0255,3.9918,3.954,3.9858,3.9952,3.9952,3.9952,3.9858,3.9755,3.9755,3.9755,3.9833,4.0087,4.0238,4.037,4.0504,4.0738,4.0913,4.0905,4.0912,4.0912,4.0912,4.0912,4.0912,4.0912,4.0912,4.0912,4.0912,4.0912,4.0912,4.0912,4.0912,4.0912,4.0912,4.0912,4.0912,4.0912,4.0912,4.0912,4.0912,4.0912,4.0912,4.0912,4.0912,4.0912,4.0912,4.0912,4.0929,3.3452,0.0,3.4885,3.577,3.6603,3.7264,0.0,3.7595,3.7685,3.7933,3.7984,3.8036,3.8192,3.955,4.0528,4.0255,4.1528,4.2447,4.2048,4.1819,4.1604,4.1363,4.1295,4.1272,4.129,4.1272,4.134,4.1475,4.1538,4.156,4.156,4.152,4.1515,4.1471,4.134,4.1071,4.0686,4.0847,4.0989,4.1053,4.1226,4.138,4.1488,4.1318,4.1186,4.1053,4.103,4.0907,4.0752,4.0662,4.0549,4.0427,4.0279,4.0212,4.0128,3.9876,3.9749,3.9671,3.9454,3.9487,3.9677,3.9944,4.0188,4.0387,4.0551,4.0362,4.0138,4.0313,4.0362,4.0362,4.0362,4.0337,4.0296,4.0296,4.0296,4.0362,4.051,4.0576,4.0648,4.0782,4.0864,4.0905,4.0912,4.0912,4.0912,4.0912,4.0912,4.0912,4.0912,4.0912,4.0912,4.0912,4.0912,4.0912,4.0912,4.0912,4.0912,4.0912,4.0912,4.0912,4.0912,4.0912,4.0912,4.0912,4.0912,4.0912,4.0912,4.0912,4.0912,4.0912,4.0912,4.1205,3.3775,3.4558,3.5462,3.5944,3.6878,3.7703,3.781,3.7845,3.7862,3.7984,3.8053,3.8105,3.8105,3.939,4.0402,4.018,4.1507,4.2407,4.2048,4.1776,4.1582,4.1493,4.1493,4.1493,4.1493,4.1493,4.1515,4.1604,4.1604,4.1604,4.1604,4.1604,4.1604,4.1604,4.1604,4.1493,4.1221,4.1307,4.1335,4.1386,4.1471,4.1538,4.1604,4.1515,4.1453,4.1386,4.1386,4.1295,4.1129,4.1065,4.0977,4.0866,4.0799,4.0752,4.0693,4.0466,4.0319,4.0212,4.0062,4.0121,4.0305,4.0453,4.0558,4.0704,4.0769,4.0697,4.0583,4.0655,4.068,4.068,4.0607,4.0583,4.0583,4.0583,4.0583,4.0648,4.0769,4.0793,4.0817,4.0888,4.0912,4.0912,4.0912,4.0912,4.0912,4.0912,4.0912,4.0912,4.0912,4.0912,4.0912,4.0912,4.0912,4.0912,4.0912,4.0912,4.0912,4.0912,4.0912,4.0912,4.0912,4.0912,4.0912,4.0912,4.0912,4.0912,4.0912,4.0912,4.1067,4.1412,4.1412,4.1826,3.4111,3.505,3.6039,3.5964,3.7023,3.8069,3.8069,3.8052,3.8052,3.8053,3.8139,3.8174,3.8036,3.9319,4.0328,4.014,4.1405,4.232,4.2048,4.1776,4.1604,4.1604,4.1604,4.1604,4.1604,4.1604,4.1604,4.1604,4.1604,4.1604,4.1604,4.1604,4.1604,4.1604,4.1604,4.1604,4.1604,4.1604,4.1604,4.1604,4.1604,4.1604,4.1604,4.1604,4.1604,4.1604,4.1604,4.1538,4.1426,4.1295,4.1232,4.1255,4.1169,4.1163,4.1146,4.0954,4.0789,4.0614,4.0607,4.0631,4.0721,4.0721,4.0817,4.0912,4.0912,4.0912,4.0912,4.0912,4.0912,4.0871,4.0769,4.0721,4.0721,4.0721,4.0721,4.0769,4.0888,4.0912,4.0912,4.0912,4.0912,4.0912,4.0912,4.0912,4.0912,4.0912,4.0912,4.0912,4.0912,4.0912,4.0912,4.0912,4.0912,4.0912,4.0912,4.0912,4.0912,4.0912,4.0912,4.0912,4.0912,4.0912,4.0912,4.0912,4.0912,4.0963,4.1067,4.1067,4.1464,4.2189,4.2189,4.262,3.4528,3.5607,3.6642,3.6254,3.7287,3.8415,3.835,3.8334,3.8318,3.8256,3.8274,3.8241,3.8053,3.9319,4.0328,4.014,4.1225,4.2069,4.2005,4.1776,4.1604,4.1604,4.1604,4.1604,4.1604,4.1604,4.1604,4.1604,4.1604,4.1604,4.1604,4.1604,4.1604,4.1604,4.1604,4.1604,4.1604,4.1604,4.1604,4.1604,4.1604,4.1604,4.1604,4.1604,4.1604,4.1604,4.1604,4.1582,4.156,4.1408,4.1448,4.1538,4.1403,4.1426,4.1493,4.1363,4.1272,4.1244,4.107,4.0935,4.0864,4.0864,4.0871,4.0912,4.0912,4.0912,4.0912,4.0912,4.0912,4.0912,4.0871,4.0864,4.0864,4.0864,4.0864,4.0871,4.0912,4.0912,4.0912,4.0912,4.0912,4.0912,4.0912,4.0912,4.0912,4.0912,4.0912,4.0912,4.0912,4.0912,4.0912,4.0912,4.0912,4.0912,4.0912,4.0912,4.0912,4.0912,4.0912,4.0912,4.0912,4.0912,4.0912,4.0912,4.0912,4.1222,4.1843,4.1843,4.224,4.3017,4.3017,4.3414,3.4718,3.5822,3.6944,3.6655,3.7659,3.8713,3.8637,3.8525,3.8446,3.8417,3.8354,3.8239,3.8086,3.9283,4.0505,4.1173,4.1695,4.2005,4.2005,4.1776,4.1604,4.1604,4.1604,4.1604,4.1604,4.1604,4.1604,4.1604,4.1604,4.1604,4.1604,4.1604,4.1604,4.1604,4.1604,4.1604,4.1604,4.1604,4.1604,4.1604,4.1604,4.1604,4.1604,4.1604,4.1604,4.1604,4.1604,4.1604,4.1604,4.1538,4.1538,4.1604,4.1538,4.1538,4.1582,4.1448,4.134,4.1272,4.1146,4.1006,4.0912,4.0912,4.0912,4.0912,4.0912,4.0912,4.0912,4.0912,4.0912,4.0912,4.0912,4.0912,4.0912,4.0912,4.0912,4.0912,4.0912,4.0912,4.0912,4.0912,4.0912,4.0912,4.0912,4.0912,4.0912,4.0912,4.0912,4.0912,4.0912,4.0912,4.0912,4.0912,4.0912,4.0912,4.0912,4.0912,4.0912,4.0912,4.0912,4.0912,4.0912,4.0912,4.0912,4.0912,4.1291,4.1671,4.2016,4.2447,4.3034,4.3793,4.3869,4.4292,3.4878,3.5972,3.7117,3.698,3.7966,3.895,3.8877,3.8725,3.86,3.8554,3.8465,3.8356,3.8171,3.9265,4.0625,4.2037,4.2097,4.1984,4.1945,4.1754,4.1604,4.1604,4.1604,4.1604,4.1604,4.1604,4.1604,4.1604,4.1604,4.1604,4.1604,4.1604,4.1604,4.1604,4.1604,4.1604,4.1604,4.1604,4.1604,4.1604,4.1604,4.1604,4.1604,4.1604,4.1604,4.1604,4.1604,4.1604,4.1604,4.1604,4.1604,4.1604,4.1604,4.1604,4.1582,4.1493,4.1363,4.1249,4.1169,4.1053,4.0935,4.0912,4.0912,4.0912,4.0912,4.0912,4.0912,4.0912,4.0912,4.0912,4.0912,4.0912,4.0912,4.0912,4.0912,4.0912,4.0912,4.0912,4.0912,4.0912,4.0912,4.0912,4.0912,4.0912,4.0912,4.0912,4.0912,4.0912,4.0912,4.0912,4.0912,4.0912,4.0912,4.0912,4.0912,4.0912,4.0912,4.0912,4.0935,4.0959,4.0959,4.0965,4.1052,4.1265,4.1795,4.2262,4.2632,4.3254,4.3946,4.4647,4.4782,4.5145,3.4992,3.6099,3.7254,3.7117,3.8134,3.9156,3.9087,3.9021,3.8902,3.8715,3.8683,3.8564,3.8241,3.9248,4.0545,4.1896,4.2055,4.1962,4.1841,4.1692,4.1604,4.1604,4.1604,4.1604,4.1604,4.1604,4.1604,4.1604,4.1604,4.1604,4.1604,4.1604,4.1604,4.1604,4.1604,4.1604,4.1604,4.1604,4.1604,4.1604,4.1604,4.1604,4.1604,4.1604,4.1604,4.1604,4.1604,4.1604,4.1604,4.1604,4.1604,4.1604,4.1604,4.1604,4.1604,4.1582,4.1493,4.138,4.1249,4.1152,4.107,4.0935,4.0912,4.0912,4.0912,4.0912,4.0912,4.0912,4.0912,4.0912,4.0912,4.0912,4.0912,4.0912,4.0912,4.0912,4.0912,4.0912,4.0912,4.0912,4.0912,4.0912,4.0912,4.0912,4.0912,4.0912,4.0912,4.0912,4.0912,4.0912,4.0912,4.0912,4.0912,4.0912,4.0912,4.0912,4.0912,4.0912,4.1023,4.1087,4.1087,4.1152,4.1534,4.2282,4.2351,4.3064,4.4498,4.455,4.496,4.57,4.5817,4.591,3.5038,3.6138,3.7276,3.7186,3.8314,3.9419,3.9315,3.9202,3.9087,3.897,3.8862,3.8844,3.9096,3.977,4.0699,4.1999,4.2115,4.1945,4.1819,4.1692,4.1604,4.1604,4.1604,4.1604,4.1604,4.1604,4.1604,4.1604,4.1604,4.1604,4.1604,4.1604,4.1604,4.1604,4.1604,4.1604,4.1604,4.1604,4.1604,4.1604,4.1604,4.1604,4.1604,4.1604,4.1604,4.1604,4.1604,4.1604,4.1604,4.1604,4.1604,4.1604,4.1604,4.1604,4.1604,4.1604,4.1515,4.138,4.1255,4.1152,4.107,4.0935,4.0912,4.0912,4.0912,4.0959,4.1006,4.1006,4.1059,4.1065,4.0918,4.0912,4.0912,4.0912,4.0912,4.0912,4.0912,4.0912,4.0912,4.0912,4.0912,4.0912,4.0912,4.0912,4.0912,4.0912,4.0912,4.0935,4.1006,4.1006,4.1029,4.1088,4.1035,4.1006,4.1006,4.0959,4.0935,4.1023,4.107,4.1093,4.1093,4.1644,4.2079,4.2392,4.3356,4.4122,4.4697,4.5159,4.5575,4.593,4.6137,4.6315,3.5388,3.6337,3.7343,3.7555,3.8616,3.9583,3.9476,3.9386,3.9288,3.9271,3.8997,3.9022,3.9892,4.0366,4.0975,4.2076,4.2097,4.1923,4.1758,4.1648,4.1604,4.1604,4.1604,4.1604,4.1604,4.1604,4.1604,4.1604,4.1604,4.1604,4.1604,4.1604,4.1604,4.1604,4.1604,4.1604,4.1604,4.1604,4.1604,4.1604,4.1604,4.1604,4.1604,4.1604,4.1604,4.1604,4.1604,4.1604,4.1604,4.1604,4.1604,4.1604,4.1604,4.1604,4.1604,4.1604,4.1538,4.1448,4.1255,4.1157,4.1099,4.0959,4.0935,4.0959,4.0959,4.1029,4.1123,4.1123,4.1157,4.1163,4.0989,4.0959,4.0959,4.0912,4.0912,4.0912,4.0912,4.0912,4.0912,4.0912,4.0912,4.0912,4.0912,4.0912,4.0912,4.0912,4.0912,4.0959,4.107,4.1093,4.1123,4.1186,4.1175,4.1123,4.1093,4.1023,4.1,4.1093,4.114,4.125,4.1557,4.2178,4.2754,4.3225,4.432,4.5016,4.5243,4.5835,4.6179,4.6308,4.6572,4.6771,3.6118,3.6784,3.7486,3.8297,3.9046,3.9589,3.9589,3.9546,3.952,3.958,3.9119,3.9126,4.0521,4.0962,4.1319,4.1991,4.2034,4.1902,4.1626,4.1604,4.1604,4.1604,4.1604,4.1604,4.1604,4.1604,4.1604,4.1604,4.1604,4.1604,4.1604,4.1604,4.1604,4.1604,4.1604,4.1604,4.1604,4.1604,4.1604,4.1604,4.1604,4.1604,4.1604,4.1604,4.1604,4.1604,4.1604,4.1604,4.1604,4.1604,4.1604,4.1604,4.1604,4.1604,4.1604,4.1604,4.1604,4.156,4.13,4.1209,4.1163,4.0965,4.0982,4.1093,4.1093,4.1152,4.1209,4.1209,4.1209,4.1203,4.114,4.1093,4.107,4.0935,4.0912,4.0912,4.0912,4.0912,4.0912,4.0912,4.0912,4.0912,4.0912,4.0912,4.0912,4.0912,4.0912,4.0959,4.107,4.1093,4.1123,4.1209,4.1209,4.118,4.1117,4.1093,4.1093,4.1093,4.1175,4.1626,4.2567,4.2729,4.3535,4.5062,4.5258,4.5658,4.6405,4.6661,4.6865,4.702,4.7209,4.7414,3.6181,3.6833,3.7486,3.8297,3.9046,3.9589,3.9589,3.9577,3.9571,3.9602,3.9115,3.8826,3.9256,4.0448,4.1579,4.2163,4.2231,4.2097,4.1797,4.1819,4.1858,4.1736,4.1736,4.1692,4.1604,4.1604,4.1604,4.1604,4.1604,4.1604,4.1604,4.1604,4.1604,4.1604,4.1604,4.1604,4.1604,4.1604,4.1604,4.1604,4.1604,4.1604,4.1604,4.1604,4.1604,4.1604,4.1604,4.1604,4.1604,4.1604,4.1604,4.1604,4.1604,4.1604,4.1604,4.1604,4.1538,4.1431,4.1255,4.1209,4.1186,4.1076,4.1099,4.1157,4.1157,4.1249,4.134,4.134,4.1408,4.1471,4.1335,4.1307,4.1244,4.0982,4.0912,4.0912,4.0912,4.0912,4.0912,4.0912,4.0912,4.0912,4.0912,4.0912,4.0912,4.0912,4.0912,4.0965,4.1134,4.1335,4.1448,4.1475,4.1386,4.1318,4.1312,4.1203,4.1221,4.1307,4.1426,4.1848,4.2723,4.3358,4.4253,4.5445,4.6058,4.6523,4.688,4.6972,4.7125,4.7359,4.756,4.779,3.658,3.7089,3.7562,3.8694,3.9279,3.9589,3.9589,3.9589,3.9596,3.9597,3.9192,3.885,3.887,4.0668,4.2229,4.2434,4.2396,4.2228,4.1973,4.1991,4.1991,4.1866,4.1845,4.1819,4.1692,4.1732,4.1732,4.167,4.167,4.167,4.167,4.167,4.1692,4.1754,4.1754,4.1732,4.167,4.167,4.1648,4.1604,4.1604,4.1604,4.1604,4.1604,4.1604,4.1604,4.1604,4.1604,4.1604,4.1604,4.1604,4.1604,4.1604,4.1604,4.1604,4.1604,4.156,4.1471,4.134,4.1295,4.1272,4.1175,4.1198,4.1295,4.1295,4.1363,4.1493,4.1493,4.1538,4.156,4.1426,4.1403,4.1318,4.1047,4.0954,4.0907,4.0982,4.0935,4.0912,4.0912,4.0912,4.0912,4.0912,4.0912,4.0912,4.0912,4.0965,4.1065,4.1186,4.1431,4.1604,4.1604,4.1538,4.1471,4.1403,4.1318,4.134,4.1471,4.1604,4.2273,4.3532,4.405,4.4902,4.6167,4.6798,4.7147,4.7309,4.7414,4.7582,4.7829,4.8012,4.8209,3.721,3.7507,3.7788,3.9323,3.9656,3.9589,3.9589,3.9589,3.959,3.9606,3.9367,3.9146,3.9163,4.1413,4.3151,4.2791,4.2575,4.2374,4.2166,4.2166,4.2124,4.198,4.2012,4.2009,4.1845,4.1966,4.1966,4.1823,4.1823,4.1823,4.1823,4.1845,4.1905,4.203,4.2048,4.197,4.1845,4.1823,4.1736,4.1626,4.1604,4.1604,4.1604,4.1604,4.1604,4.1604,4.1604,4.1604,4.1604,4.1604,4.1604,4.1604,4.1604,4.1604,4.1604,4.1604,4.1582,4.156,4.1448,4.1403,4.138,4.1255,4.1318,4.1426,4.1426,4.1515,4.1604,4.1604,4.1604,4.156,4.1448,4.1426,4.1386,4.1202,4.1047,4.099,4.1099,4.1006,4.0918,4.0918,4.0918,4.0918,4.0918,4.0918,4.0918,4.0918,4.1088,4.1232,4.1232,4.1431,4.1604,4.1604,4.1604,4.156,4.1426,4.1426,4.1493,4.1648,4.178,4.2772,4.477,4.4718,4.5451,4.7138,4.7428,4.7603,4.7674,4.7933,4.8151,4.8325,4.8457,4.8643,3.7434,3.7944,3.8486,3.9455,3.9656,3.9589,3.9589,3.9589,3.9602,3.9601,3.9537,3.9493,3.9493,4.1872,4.361,4.296,4.283,4.2714,4.2532,4.2631,4.2652,4.2472,4.247,4.2389,4.2205,4.2205,4.2184,4.2058,4.2058,4.2058,4.2058,4.2142,4.2228,4.2313,4.2313,4.2272,4.2205,4.1977,4.1827,4.1758,4.1648,4.1604,4.1604,4.1604,4.1604,4.1604,4.1604,4.1604,4.1604,4.1604,4.1604,4.1604,4.1604,4.1604,4.1604,4.1604,4.1538,4.1448,4.1403,4.1403,4.1403,4.138,4.1448,4.156,4.156,4.1582,4.1604,4.1604,4.1604,4.1604,4.156,4.156,4.156,4.1498,4.1375,4.1273,4.118,4.1157,4.114,4.114,4.114,4.114,4.114,4.114,4.114,4.114,4.1272,4.1363,4.1363,4.1515,4.1604,4.1604,4.1604,4.1582,4.156,4.1648,4.1801,4.1977,4.2269,4.3274,4.5185,4.5077,4.5874,4.7754,4.7915,4.8093,4.8305,4.8363,4.8438,4.8532,4.866,4.8751,3.7515,3.8147,3.8775,3.9519,3.965,3.9589,3.9589,3.9589,3.9596,3.9596,3.9601,4.008,4.1665,4.3144,4.3968,4.3422,4.3195,4.3051,4.2957,4.2975,4.2938,4.2806,4.2749,4.2689,4.2494,4.2552,4.2512,4.2351,4.2331,4.2331,4.2331,4.2452,4.2554,4.2674,4.2692,4.2614,4.2494,4.2313,4.2145,4.1952,4.187,4.1823,4.1776,4.1666,4.1604,4.1604,4.1604,4.1604,4.1604,4.1604,4.1604,4.1604,4.1604,4.1604,4.1604,4.1604,4.156,4.1493,4.1493,4.1493,4.1493,4.1493,4.1538,4.1604,4.1604,4.1604,4.1604,4.1604,4.1604,4.1604,4.1604,4.1604,4.1604,4.1604,4.1506,4.1387,4.1295,4.1255,4.1209,4.1209,4.1209,4.1209,4.1209,4.1209,4.1209,4.1209,4.1318,4.1403,4.1403,4.1515,4.1604,4.1604,4.1604,4.1604,4.1604,4.1758,4.1934,4.2166,4.2532,4.3607,4.5513,4.5605,4.6448,4.8209,4.8307,4.8439,4.8642,4.8642,4.8697,4.875,4.8821,4.8857,3.7581,3.8289,3.902,3.9564,3.9657,3.9589,3.9589,3.9589,3.9589,3.9589,3.9602,4.0602,4.3882,4.442,4.4212,4.3886,4.3599,4.3409,4.3373,4.3286,4.3214,4.316,4.3087,4.2976,4.2883,4.2957,4.2919,4.2727,4.2689,4.2689,4.2689,4.2768,4.2902,4.3087,4.3105,4.3014,4.2807,4.271,4.2512,4.219,4.2187,4.2121,4.203,4.1823,4.1692,4.1688,4.1648,4.1626,4.1626,4.1604,4.1604,4.1604,4.1604,4.1604,4.1604,4.1604,4.1604,4.1604,4.1604,4.1604,4.1604,4.1604,4.1604,4.1604,4.1604,4.1604,4.1604,4.1604,4.1604,4.1604,4.1604,4.1604,4.1604,4.1604,4.1515,4.1426,4.1426,4.134,4.1277,4.1277,4.1277,4.1277,4.1277,4.1277,4.1277,4.1277,4.1363,4.1426,4.1426,4.1538,4.1604,4.1604,4.1604,4.1604,4.1626,4.1827,4.2061,4.2351,4.2749,4.3852,4.5792,4.6117,4.6979,4.855,4.8624,4.8696,4.8822,4.8822,4.8857,4.8909,4.8909,4.8909,3.7874,3.8737,3.966,3.9691,3.9657,3.9589,3.9589,3.9589,3.9589,3.9589,3.9601,4.0606,4.3885,4.4491,4.4371,4.4023,4.3934,4.3855,4.3681,4.3732,4.3783,4.3781,4.3664,4.3562,4.3494,4.3443,4.3339,4.3142,4.3105,4.3105,4.3105,4.3178,4.332,4.3511,4.3511,4.3425,4.3232,4.3032,4.2827,4.2614,4.2456,4.2313,4.2246,4.2225,4.2118,4.1923,4.1819,4.178,4.1758,4.1648,4.1604,4.1604,4.1604,4.1604,4.1604,4.1604,4.1604,4.1604,4.1604,4.1604,4.1604,4.1604,4.1604,4.1604,4.1604,4.1604,4.1604,4.1604,4.1604,4.1604,4.1604,4.1604,4.1604,4.1604,4.1582,4.1582,4.1582,4.156,4.156,4.156,4.156,4.156,4.156,4.156,4.156,4.156,4.156,4.1582,4.1582,4.1582,4.1604,4.1604,4.1604,4.1648,4.1758,4.1956,4.2231,4.2614,4.3014,4.4106,4.6079,4.6342,4.7222,4.8819,4.8856,4.8874,4.8891,4.8891,4.8891,4.8909,4.8909,4.8909,3.915,3.9649,3.9929,3.9735,3.9648,3.9611,3.9601,3.9595,3.9589,3.9589,3.9607,4.0592,4.3885,4.4496,4.4452,4.4289,4.415,4.4039,4.4036,4.3989,4.3958,4.402,4.3923,4.386,4.3828,4.3814,4.3732,4.3599,4.3512,4.3478,4.3478,4.3548,4.3651,4.3765,4.3765,4.3699,4.3583,4.3408,4.3232,4.2976,4.2787,4.2671,4.2613,4.2554,4.2391,4.216,4.2037,4.1931,4.1849,4.1758,4.167,4.1604,4.1604,4.1604,4.1604,4.1604,4.1604,4.1604,4.1604,4.1604,4.1604,4.1604,4.1604,4.1604,4.1604,4.1604,4.1604,4.1604,4.1604,4.1604,4.1604,4.1604,4.1604,4.1604,4.1604,4.1604,4.1604,4.1604,4.1604,4.1604,4.1604,4.1604,4.1604,4.1604,4.1604,4.1604,4.1604,4.1604,4.1604,4.1604,4.1604,4.1604,4.167,4.1758,4.1849,4.2166,4.2514,4.2846,4.3249,4.4298,4.6181,4.6409,4.7256,4.8872,4.8909,4.8909,4.8909,4.8909,4.8909,4.8909,4.8909,4.8909,4.0204,4.0332,4.0072,3.9869,3.9702,3.9603,3.9597,3.9594,3.9602,3.9589,3.9601,4.06,4.3898,4.45,4.4501,4.4435,4.4296,4.4218,4.4314,4.4207,4.4128,4.4185,4.4124,4.4097,4.4097,4.4082,4.4036,4.3961,4.386,4.3793,4.3793,4.3865,4.3897,4.3992,4.3992,4.3963,4.3851,4.3734,4.3529,4.3304,4.3142,4.3069,4.305,4.2939,4.2788,4.2591,4.2331,4.2148,4.2023,4.1913,4.1801,4.171,4.171,4.171,4.1692,4.1714,4.1736,4.1736,4.178,4.178,4.178,4.178,4.174,4.1736,4.1736,4.1714,4.171,4.171,4.1688,4.1648,4.1648,4.1626,4.1604,4.1604,4.1604,4.1604,4.1604,4.1604,4.1604,4.1604,4.1604,4.1604,4.1604,4.1604,4.1604,4.1604,4.1604,4.1604,4.1604,4.1626,4.1648,4.1648,4.178,4.1931,4.2023,4.2432,4.2787,4.3069,4.3425,4.4452,4.6214,4.6426,4.7256,4.8872,4.8909,4.8909,4.8909,4.8909,4.8909,4.8909,4.8909,4.8909,4.0467,4.0453,4.017,4.01,3.984,3.9602,3.9603,3.9597,3.9594,3.9602,3.9602,4.0609,4.3879,4.449,4.4468,4.4322,4.4345,4.4383,4.4397,4.4383,4.4397,4.4468,4.4411,4.4383,4.4383,4.431,4.4237,4.4109,4.4075,4.4075,4.4075,4.4075,4.4124,4.427,4.4285,4.4177,4.3989,4.3867,4.3718,4.358,4.358,4.3529,4.348,4.3462,4.3444,4.341,4.2824,4.2512,4.2376,4.2148,4.2037,4.1984,4.1984,4.1984,4.1984,4.2058,4.2061,4.2082,4.2225,4.2267,4.2267,4.2267,4.2184,4.2061,4.2061,4.2034,4.1984,4.1984,4.1902,4.178,4.178,4.1692,4.1604,4.1604,4.1604,4.1604,4.1604,4.1604,4.1604,4.1604,4.1604,4.1604,4.1604,4.1604,4.1604,4.1604,4.1604,4.1604,4.1604,4.1714,4.178,4.178,4.1973,4.2148,4.2356,4.2691,4.2995,4.3267,4.36,4.4539,4.6231,4.6426,4.7256,4.8872,4.8909,4.8909,4.8909,4.8909,4.8909,4.8909,4.8909,4.8909,4.0757,4.0715,4.0549,4.0396,4.0189,4.0005,3.9825,3.9701,3.9609,3.9594,3.9602,4.039,4.2985,4.3472,4.368,4.4323,4.4454,4.4454,4.4454,4.4454,4.4468,4.4501,4.4487,4.4454,4.4454,4.4444,4.4416,4.4368,4.4321,4.4292,4.4292,4.4248,4.4252,4.43,4.43,4.427,4.4192,4.4089,4.3995,4.386,4.3814,4.3767,4.3686,4.3686,4.3686,4.3669,4.3374,4.3069,4.277,4.2575,4.2376,4.2269,4.2348,4.2328,4.2269,4.2371,4.2412,4.243,4.249,4.249,4.249,4.249,4.247,4.2412,4.2412,4.2351,4.2269,4.2269,4.2187,4.2121,4.2121,4.1863,4.1693,4.1984,4.2058,4.2058,4.2058,4.1888,4.1736,4.1736,4.1797,4.1819,4.1736,4.1736,4.1736,4.1736,4.1736,4.178,4.1892,4.1956,4.204,4.2169,4.2331,4.2514,4.277,4.2995,4.3286,4.36,4.3767,4.4638,4.6351,4.6477,4.7256,4.8872,4.8909,4.8909,4.8909,4.8909,4.8909,4.8909,4.8909,4.8909,4.0983,4.0906,4.0801,4.0668,4.0549,4.0386,4.0091,3.9924,3.9799,3.9717,3.9705,4.0372,4.2567,4.2778,4.3045,4.4294,4.4501,4.4501,4.4501,4.4501,4.4501,4.4501,4.4501,4.4501,4.4501,4.4501,4.4501,4.4501,4.4473,4.4426,4.4426,4.4401,4.4373,4.4373,4.4344,4.4329,4.4329,4.4244,4.4169,4.407,4.3976,4.3913,4.3867,4.3867,4.3867,4.3867,4.3749,4.3494,4.316,4.2995,4.277,4.2614,4.2767,4.271,4.2634,4.2787,4.2825,4.2825,4.2881,4.29,4.29,4.29,4.2881,4.2825,4.2825,4.2729,4.2596,4.2596,4.2516,4.2432,4.2432,4.2192,4.2063,4.2499,4.2499,4.2409,4.2409,4.2184,4.1973,4.1973,4.2034,4.2055,4.1973,4.1973,4.1973,4.1973,4.1977,4.2044,4.219,4.2251,4.2374,4.2555,4.271,4.29,4.316,4.3356,4.3565,4.3818,4.3915,4.4573,4.603,4.6364,4.7125,4.8481,4.876,4.8909,4.8909,4.8909,4.8909,4.8909,4.8909,4.8909,0.0,0.0,0.0,4.0916,4.0842,4.0721,4.0397,4.0299,4.0224,3.9965,3.9916,4.056,4.2691,4.2536,4.2654,4.4247,4.4496,4.4501,4.4501,4.4501,4.4501,4.4501,4.4501,4.4501,4.4501,4.4501,4.4501,4.4501,4.4501,4.4501,4.4501,4.4501,4.4501,4.4501,4.4444,4.4397,4.4397,4.4255,4.4199,4.4199,4.407,4.4005,4.4005,4.4005,4.4005,4.4005,4.3929,4.3767,4.3496,4.3374,4.3196,4.3032,4.316,4.3142,4.3032,4.3232,4.3303,4.332,4.3462,4.3515,4.3515,4.3515,4.3427,4.3303,4.3303,4.3178,4.3014,4.3014,4.2883,4.2713,4.2713,4.2671,4.2739,4.3122,4.2902,4.2629,4.2629,4.247,4.2328,4.2308,4.2308,4.2308,4.2308,4.2308,4.2308,4.2308,4.2374,4.2436,4.2418,4.2614,4.2769,4.2901,4.3105,4.3286,4.3479,4.3686,4.3818,4.3915,4.3958,4.4395,4.5249,4.6067,4.6884,4.7683,4.85,4.8909,4.8909,4.8909,4.8909,4.8909,4.8909,4.8909,4.1095,0.0,0.0,0.0,0.0,0.0,4.0691,4.0545,4.0413,4.0282,4.0184,4.0634,4.2363,4.2519,4.2896,4.4455,4.4592,4.4501,4.4501,4.4501,4.4501,4.4501,4.4501,4.4501,4.4501,4.4501,4.4501,4.4501,4.4501,4.4501,4.4501,4.4501,4.4501,4.4501,4.4487,4.4468,4.4468,4.4344,4.427,4.4255,4.4101,4.4005,4.4005,4.4005,4.4005,4.4005,4.3974,4.3926,4.3862,4.3718,4.3565,4.3461,4.3583,4.3548,4.3442,4.3617,4.3651,4.3669,4.3703,4.3719,4.3719,4.3719,4.3686,4.3651,4.3651,4.3565,4.3425,4.3425,4.3356,4.3249,4.3104,4.3159,4.3305,4.356,4.3433,4.325,4.325,4.3214,4.305,4.2653,4.2671,4.2691,4.2613,4.2575,4.2575,4.2575,4.2691,4.2825,4.2957,4.3069,4.3214,4.339,4.3461,4.3563,4.3767,4.3851,4.3897,4.3958,4.3989,4.4395,4.5249,4.6067,4.6884,4.7683,4.85,4.8909,4.8909,4.8909,4.8909,4.8909,4.8909,4.8909,0.0,0.0,0.0,0.0,0.0,0.0,4.0864,4.0725,4.0596,4.0502,4.0409,4.0682,4.1895,4.2408,4.3012,4.4224,4.4581,4.4674,4.4551,4.4537,4.4524,4.4501,4.4501,4.4501,4.4501,4.4501,4.4501,4.4501,4.4501,4.4501,4.4501,4.4501,4.4501,4.4501,4.4501,4.4501,4.4501,4.4383,4.4329,4.43,4.4147,4.4036,4.4005,4.4005,4.4005,4.4005,4.4005,4.4005,4.3989,4.3913,4.3832,4.3732,4.3832,4.3816,4.3749,4.3849,4.3883,4.3883,4.3883,4.3883,4.3883,4.3883,4.3883,4.3883,4.3883,4.3816,4.3732,4.3732,4.3684,4.3599,4.3526,4.3526,4.3635,4.38,4.3763,4.3654,4.3635,4.3635,4.3515,4.3124,4.3105,4.3124,4.305,4.3032,4.3032,4.3032,4.3124,4.3214,4.3339,4.3462,4.3565,4.3716,4.3732,4.3781,4.3929,4.3945,4.3961,4.4005,4.4005,4.4228,4.4729,4.5881,4.6717,4.7181,4.8314,4.8909,4.8909,4.8909,4.8909,4.8909,4.8909,4.8909,0.0,0.0,0.0,0.0,4.11,0.0,4.0946,4.0862,4.0775,4.0662,4.0586,4.0762,4.1514,4.2225,4.2977,4.3808,4.4499,4.4855,4.4661,4.4632,4.4592,4.4537,4.4528,4.4515,4.4515,4.4496,4.4501,4.4501,4.4501,4.4501,4.4501,4.4501,4.4501,4.4501,4.4501,4.4501,4.4501,4.4426,4.4368,4.4314,4.4244,4.4135,4.402,4.4005,4.4005,4.4005,4.4005,4.4005,4.4005,4.4005,4.3958,4.3913,4.3974,4.3958,4.3913,4.3974,4.4005,4.4005,4.4005,4.4005,4.4005,4.4005,4.4005,4.4005,4.4005,4.3961,4.3913,4.3913,4.3867,4.3855,4.3892,4.382,4.3765,4.3874,4.3911,4.3892,4.3855,4.382,4.3769,4.36,4.3531,4.3532,4.3532,4.3532,4.3532,4.3532,4.3599,4.3631,4.3631,4.3751,4.3853,4.3897,4.3913,4.3945,4.3989,4.4005,4.4005,4.4005,4.4005,4.4005,4.4005,4.5602,4.6494,4.6494,4.8091,4.8909,4.8909,4.8909,4.8909,4.8909,4.8909,4.8909,0.0,0.0,0.0,0.0,4.1109,0.0,4.1077,4.0971,4.0864,4.0856,4.0794,4.0991,4.1775,4.201,4.2549,4.3989,4.4294,4.4489,4.4872,4.4821,4.4764,4.4732,4.4646,4.4578,4.4578,4.4524,4.4501,4.4501,4.4501,4.4501,4.4501,4.4501,4.4501,4.4501,4.4501,4.4501,4.4501,4.4426,4.4383,4.4368,4.4259,4.4184,4.4169,4.4055,4.4005,4.4005,4.4005,4.4005,4.4005,4.4005,4.3989,4.3974,4.3989,4.3989,4.3974,4.4005,4.4005,4.4005,4.4005,4.4005,4.4005,4.4005,4.4005,4.4005,4.4005,4.3989,4.3974,4.3974,4.3958,4.3958,4.3976,4.3958,4.3958,4.3976,4.3976,4.3976,4.3958,4.3958,4.3942,4.391,4.3816,4.3754,4.3754,4.3754,4.3754,4.3754,4.3802,4.3849,4.3849,4.391,4.3976,4.3974,4.3974,4.3989,4.4005,4.4005,4.4005,4.4005,4.4005,4.4005,4.4005,4.5602,4.6494,4.6494,4.8091,4.8909,4.8909,4.8909,4.8909,4.8909,4.8909,4.8909,0.0,0.0,0.0,4.1113,4.1107,0.0,0.0,4.105,4.0981,4.0968,4.0921,4.1014,4.1371,4.179,4.2304,4.3085,4.3499,4.3832,4.4067,4.4622,4.4988,4.4953,4.4852,4.4802,4.4745,4.4699,4.4632,4.4605,4.4592,4.4578,4.4551,4.4537,4.4524,4.4501,4.4501,4.4501,4.4501,4.4473,4.4426,4.4397,4.4329,4.4255,4.4199,4.418,4.4131,4.4104,4.4104,4.4104,4.4085,4.402,4.4005,4.4005,4.4005,4.4005,4.4005,4.4005,4.4005,4.4005,4.4005,4.4005,4.4005,4.4005,4.4005,4.4005,4.4005,4.4005,4.4005,4.4005,4.4005,4.4005,4.4005,4.4005,4.4005,4.4005,4.4005,4.4005,4.4005,4.4005,4.4005,4.4005,4.3945,4.3897,4.3897,4.3897,4.3897,4.3897,4.3929,4.3961,4.3961,4.3974,4.4005,4.4005,4.4005,4.4005,4.4005,4.4005,4.4005,4.4005,4.4005,4.4005,4.4005,4.5212,4.6271,4.707,4.8277,4.8909,4.8909,4.8909,4.8909,4.8909,4.8909,4.8909,0.0,0.0,0.0,0.0,0.0,4.1094,0.0,0.0,0.0,4.1039,4.1023,4.0991,4.0957,4.1492,4.2005,4.2121,4.266,4.3136,4.3234,4.4188,4.4873,4.4914,4.5006,4.5038,4.4955,4.4883,4.4827,4.4757,4.4764,4.4738,4.4659,4.4646,4.4605,4.4537,4.4542,4.4542,4.4542,4.4528,4.4482,4.444,4.4411,4.4344,4.4244,4.427,4.4255,4.4214,4.4214,4.4214,4.4184,4.4085,4.402,4.4005,4.4005,4.4005,4.4005,4.4005,4.4005,4.4005,4.4005,4.4005,4.4005,4.4005,4.4005,4.4005,4.4005,4.4005,4.4005,4.4005,4.4005,4.4005,4.4005,4.4005,4.4005,4.4005,4.4005,4.4005,4.4005,4.4005,4.4005,4.4005,4.4005,4.4005,4.4005,4.4005,4.4005,4.4005,4.4005,4.4005,4.4005,4.4005,4.4005,4.4005,4.4005,4.4005,4.4005,4.4005,4.4005,4.4005,4.4005,4.4005,4.4005,4.4841,4.6048,4.7664,4.8333,4.876,4.8909,4.8909,4.8909,4.8909,4.8909,4.8909,0.0,0.0,0.0,0.0,4.1098,0.0,4.1094,0.0,4.1106,4.1088,0.0,4.1081,4.1089,0.0,0.0,4.2142,4.2299,4.26,4.3354,4.3544,4.3786,4.4252,4.4873,4.5231,4.5094,4.5019,4.4967,4.4955,4.4974,4.4931,4.4858,4.4808,4.4751,4.4685,4.4685,4.4685,4.4685,4.4619,4.4578,4.4578,4.4454,4.4383,4.4387,4.4329,4.4285,4.4285,4.4285,4.424,4.4199,4.4184,4.4119,4.4005,4.4005,4.4005,4.4005,4.4005,4.4005,4.4005,4.4005,4.4005,4.4005,4.4005,4.4005,4.4005,4.4005,4.4005,4.4005,4.4005,4.4005,4.4005,4.4005,4.4005,4.4005,4.4005,4.4005,4.4005,4.4005,4.4005,4.4005,4.4005,4.4005,4.4005,4.4005,4.4005,4.4005,4.4005,4.4005,4.4005,4.4005,4.4005,4.4005,4.4005,4.4005,4.4005,4.4005,4.4005,4.4005,4.4005,4.4005,4.4005,4.4005,4.4841,4.6048,4.7664,4.7794,4.8184,4.8909,4.8909,4.8909,4.8909,4.8909,4.8909,0.0,0.0,0.0,0.0,0.0,0.0,4.1097,0.0,4.1091,0.0,0.0,0.0,0.0,0.0,0.0,0.0,4.1574,4.168,4.2,4.2455,4.2996,4.3659,4.4395,4.4972,4.5295,4.5263,4.5239,4.5239,4.5239,4.5197,4.5079,4.5011,4.4929,4.487,4.4833,4.4827,4.4827,4.4764,4.4725,4.4706,4.4578,4.4496,4.4473,4.443,4.4401,4.4373,4.4373,4.4314,4.4259,4.4214,4.4119,4.4005,4.4005,4.4005,4.4005,4.4005,4.4005,4.4005,4.4005,4.4005,4.4005,4.4005,4.4005,4.4005,4.4005,4.4005,4.4005,4.4005,4.4005,4.4005,4.4005,4.4005,4.4005,4.4005,4.4005,4.4005,4.4005,4.4005,4.4005,4.4005,4.4005,4.4005,4.4005,4.4005,4.4005,4.4005,4.4005,4.4005,4.4005,4.4005,4.4005,4.4005,4.4005,4.4005,4.4005,4.4005,4.4005,4.4005,4.4005,4.4005,4.4005,4.4841,4.5621,4.629,4.7218,4.7868,4.8203,4.8667,4.8909,4.8909,4.8909,4.8909,4.1094,0.0,0.0,0.0,0.0,0.0,0.0,0.0,0.0,0.0,4.1092,0.0,0.0,0.0,0.0,0.0,0.0,4.1078,4.1037,4.1551,4.2227,4.298,4.3712,4.4452,4.517,4.5182,4.5234,4.5464,4.5484,4.5428,4.5323,4.5253,4.5178,4.5076,4.5038,4.5003,4.5003,4.4931,4.4895,4.487,4.4751,4.4632,4.4551,4.4542,4.4496,4.4454,4.4444,4.4401,4.4344,4.4274,4.4165,4.4055,4.402,4.4005,4.4005,4.4005,4.4005,4.4005,4.4005,4.4005,4.4005,4.4005,4.4005,4.4005,4.4005,4.4005,4.4005,4.4005,4.4005,4.4005,4.4005,4.4005,4.4005,4.4005,4.4005,4.4005,4.4005,4.4005,4.4005,4.4005,4.4005,4.4005,4.4005,4.4005,4.4005,4.4005,4.4005,4.4005,4.4005,4.4005,4.4005,4.4005,4.4005,4.4005,4.4005,4.4005,4.4005,4.4005,4.4005,4.4005,4.4005,4.4599,4.5045,4.5287,4.6438,4.7144,4.7367,4.7961,4.824,4.8259,4.8686,4.8909,0.0,0.0,0.0,4.111,0.0,0.0,0.0,0.0,4.1103,0.0,0.0,0.0,0.0,0.0,0.0,0.0,0.0,0.0,0.0,4.1068,4.1347,4.2148,4.289,4.3653,4.4458,4.4532,4.4858,4.5638,4.5696,4.5665,4.5596,4.5521,4.5429,4.5302,4.5279,4.5297,4.5297,4.5213,4.5159,4.5091,4.4943,4.4821,4.4699,4.4632,4.4592,4.4592,4.451,4.4501,4.4487,4.4358,4.4259,4.4184,4.4055,4.4005,4.4005,4.4005,4.4005,4.4005,4.4005,4.4005,4.4005,4.4005,4.4005,4.4005,4.4005,4.4005,4.4005,4.4005,4.4005,4.4005,4.4005,4.4005,4.4005,4.4005,4.4005,4.4005,4.4005,4.4005,4.4005,4.4005,4.4005,4.4005,4.4005,4.4005,4.4005,4.4005,4.4005,4.4005,4.4005,4.4005,4.4005,4.4005,4.4005,4.4005,4.4005,4.4005,4.4005,4.4005,4.4005,4.4005,4.4005,4.4023,4.4432,4.5268,4.5342,4.5751,4.6531,4.655,4.6587,4.6605,4.8166,4.8909,0.0,0.0,4.1107,4.1107,0.0,0.0,0.0,0.0,0.0,0.0,0.0,0.0,0.0,0.0,0.0,0.0,0.0,0.0,0.0,4.1074,4.1169,4.1439,4.211,4.2918,4.3765,4.4321,4.475,4.5022,4.5525,4.5815,4.5805,4.5731,4.566,4.5573,4.5513,4.5495,4.5495,4.5419,4.5351,4.5291,4.5124,4.4995,4.4883,4.477,4.4712,4.4672,4.4646,4.4605,4.4551,4.451,4.4426,4.4329,4.4281,4.4207,4.4119,4.402,4.4005,4.4005,4.4005,4.4005,4.4005,4.4005,4.4005,4.4005,4.4005,4.4005,4.4005,4.4005,4.4005,4.4005,4.4005,4.4005,4.4005,4.4005,4.4005,4.4005,4.4005,4.4005,4.4005,4.4005,4.4005,4.4005,4.4005,4.4005,4.4005,4.4005,4.4005,4.4005,4.4005,4.4005,4.4005,4.4005,4.4005,4.4005,4.4005,4.4005,4.4005,4.4005,4.4005,4.4005,4.4005,4.4005,4.4135,4.4432,4.5008,4.5417,4.5714,4.6234,4.6494,4.6513,4.7099,4.7655,4.1107,4.1107,0.0,4.1107,4.1107,0.0,4.1107,0.0,4.1094,0.0,0.0,0.0,0.0,0.0,0.0,0.0,0.0,0.0,0.0,4.1097,4.1108,4.1094,4.1495,4.211,4.2981,4.3815,4.4433,4.4708,4.5498,4.596,4.5938,4.586,4.5805,4.5734,4.5684,4.5654,4.5637,4.5593,4.553,4.5465,4.5322,4.5199,4.5098,4.4991,4.4907,4.487,4.4846,4.4821,4.4815,4.4738,4.4659,4.456,4.4496,4.4397,4.4304,4.4116,4.4036,4.4005,4.4005,4.4005,4.4005,4.4005,4.4005,4.4005,4.4005,4.4005,4.4005,4.4005,4.4005,4.4005,4.4005,4.4005,4.4005,4.4005,4.4005,4.4005,4.4005,4.4005,4.4005,4.4005,4.4005,4.4005,4.4005,4.4005,4.4005,4.4005,4.4005,4.4005,4.4005,4.4005,4.4005,4.4005,4.4005,4.4005,4.4005,4.4005,4.4005,4.4005,4.4005,4.4005,4.4005,4.4005,4.4005,4.4005,4.4544,4.4841,4.4841,4.5361,4.5602,4.5621,4.6012,4.6501]}]]